<?xml version="1.0" encoding="UTF-8" standalone="no" ?><gpx xmlns="http://www.topografix.com/GPX/1/1" xmlns:gpxx="http://www.garmin.com/xmlschemas/GpxExtensions/v3" xmlns:wptx1="http://www.garmin.com/xmlschemas/WaypointExtension/v1" xmlns:gpxtpx="http://www.garmin.com/xmlschemas/TrackPointExtension/v1" creator="Dakota 20" version="1.1" xmlns:xsi="http://www.w3.org/2001/XMLSchema-instance" xsi:schemaLocation="http://www.topografix.com/GPX/1/1 http://www.topografix.com/GPX/1/1/gpx.xsd http://www.garmin.com/xmlschemas/GpxExtensions/v3 http://www8.garmin.com/xmlschemas/GpxExtensionsv3.xsd http://www.garmin.com/xmlschemas/WaypointExtension/v1 http://www8.garmin.com/xmlschemas/WaypointExtensionv1.xsd http://www.garmin.com/xmlschemas/TrackPointExtension/v1 http://www.garmin.com/xmlschemas/TrackPointExtensionv1.xsd"><metadata><link href="http://www.garmin.com"><text>Garmin International</text></link><time>2015-05-13T15:15:53Z</time></metadata><trk><name>Current Track: 13 MAY 2015 09:58</name><extensions><gpxx:TrackExtension><gpxx:DisplayColor>Cyan</gpxx:DisplayColor></gpxx:TrackExtension></extensions><trkseg><trkpt lat="51.9796665106" lon="-2.1718594898"><ele>43.88</ele><time>2015-05-13T08:58:09Z</time></trkpt><trkpt lat="51.9796655886" lon="-2.1718596574"><ele>45.80</ele><time>2015-05-13T08:58:12Z</time></trkpt><trkpt lat="51.9796686061" lon="-2.1718595736"><ele>49.16</ele><time>2015-05-13T08:58:22Z</time></trkpt><trkpt lat="51.9796727970" lon="-2.1718563046"><ele>42.92</ele><time>2015-05-13T08:58:23Z</time></trkpt><trkpt lat="51.9796756469" lon="-2.1718549635"><ele>46.76</ele><time>2015-05-13T08:58:24Z</time></trkpt><trkpt lat="51.9796740543" lon="-2.1718528681"><ele>43.88</ele><time>2015-05-13T08:58:31Z</time></trkpt><trkpt lat="51.9796739705" lon="-2.1718527004"><ele>40.51</ele><time>2015-05-13T08:58:32Z</time></trkpt><trkpt lat="51.9796739705" lon="-2.1718525328"><ele>48.20</ele><time>2015-05-13T08:58:33Z</time></trkpt><trkpt lat="51.9796738029" lon="-2.1718527004"><ele>45.32</ele><time>2015-05-13T08:58:34Z</time></trkpt><trkpt lat="51.9796736352" lon="-2.1718527004"><ele>38.59</ele><time>2015-05-13T08:58:35Z</time></trkpt><trkpt lat="51.9796733838" lon="-2.1718525328"><ele>47.24</ele><time>2015-05-13T08:58:36Z</time></trkpt><trkpt lat="51.9796717074" lon="-2.1718480065"><ele>43.88</ele><time>2015-05-13T08:58:46Z</time></trkpt><trkpt lat="51.9796719588" lon="-2.1718471684"><ele>45.80</ele><time>2015-05-13T08:58:53Z</time></trkpt><trkpt lat="51.9796711206" lon="-2.1718460787"><ele>41.95</ele><time>2015-05-13T08:59:03Z</time></trkpt><trkpt lat="51.9796708692" lon="-2.1718452405"><ele>47.24</ele><time>2015-05-13T08:59:04Z</time></trkpt><trkpt lat="51.9796708692" lon="-2.1718472522"><ele>40.51</ele><time>2015-05-13T08:59:07Z</time></trkpt><trkpt lat="51.9796727970" lon="-2.1718497667"><ele>46.76</ele><time>2015-05-13T08:59:08Z</time></trkpt><trkpt lat="51.9796758983" lon="-2.1718491800"><ele>42.44</ele><time>2015-05-13T08:59:11Z</time></trkpt><trkpt lat="51.9796752278" lon="-2.1718490124"><ele>45.80</ele><time>2015-05-13T08:59:12Z</time></trkpt><trkpt lat="51.9796624035" lon="-2.1718376130"><ele>42.44</ele><time>2015-05-13T08:59:18Z</time></trkpt><trkpt lat="51.9796380959" lon="-2.1718135569"><ele>46.76</ele><time>2015-05-13T08:59:21Z</time></trkpt><trkpt lat="51.9796272833" lon="-2.1718131378"><ele>45.80</ele><time>2015-05-13T08:59:22Z</time></trkpt><trkpt lat="51.9796095137" lon="-2.1718155686"><ele>42.44</ele><time>2015-05-13T08:59:24Z</time></trkpt><trkpt lat="51.9795968570" lon="-2.1718209330"><ele>47.24</ele><time>2015-05-13T08:59:26Z</time></trkpt><trkpt lat="51.9795926660" lon="-2.1718237828"><ele>42.44</ele><time>2015-05-13T08:59:27Z</time></trkpt><trkpt lat="51.9795699511" lon="-2.1718330029"><ele>45.80</ele><time>2015-05-13T08:59:31Z</time></trkpt><trkpt lat="51.9795629103" lon="-2.1718396246"><ele>49.16</ele><time>2015-05-13T08:59:32Z</time></trkpt><trkpt lat="51.9795519300" lon="-2.1718418878"><ele>44.84</ele><time>2015-05-13T08:59:33Z</time></trkpt><trkpt lat="51.9794309791" lon="-2.1716618445"><ele>39.07</ele><time>2015-05-13T08:59:48Z</time></trkpt><trkpt lat="51.9794298057" lon="-2.1716671251"><ele>44.36</ele><time>2015-05-13T08:59:49Z</time></trkpt><trkpt lat="51.9794296380" lon="-2.1716684662"><ele>50.13</ele><time>2015-05-13T08:59:50Z</time></trkpt><trkpt lat="51.9794304762" lon="-2.1716667898"><ele>43.88</ele><time>2015-05-13T08:59:51Z</time></trkpt><trkpt lat="51.9794222619" lon="-2.1716572344"><ele>50.13</ele><time>2015-05-13T08:59:53Z</time></trkpt><trkpt lat="51.9794179872" lon="-2.1716521215"><ele>42.44</ele><time>2015-05-13T08:59:54Z</time></trkpt><trkpt lat="51.9794157241" lon="-2.1716359444"><ele>44.84</ele><time>2015-05-13T08:59:55Z</time></trkpt><trkpt lat="51.9793956075" lon="-2.1715591662"><ele>42.92</ele><time>2015-05-13T08:59:59Z</time></trkpt><trkpt lat="51.9793816935" lon="-2.1715101320"><ele>45.32</ele><time>2015-05-13T09:00:02Z</time></trkpt><trkpt lat="51.9793548714" lon="-2.1714514587"><ele>40.99</ele><time>2015-05-13T09:00:05Z</time></trkpt><trkpt lat="51.9793477468" lon="-2.1714367904"><ele>45.80</ele><time>2015-05-13T09:00:06Z</time></trkpt><trkpt lat="51.9793422148" lon="-2.1714215353"><ele>42.92</ele><time>2015-05-13T09:00:07Z</time></trkpt><trkpt lat="51.9793367665" lon="-2.1714041010"><ele>39.55</ele><time>2015-05-13T09:00:08Z</time></trkpt><trkpt lat="51.9793312345" lon="-2.1713845711"><ele>43.88</ele><time>2015-05-13T09:00:09Z</time></trkpt><trkpt lat="51.9793216791" lon="-2.1713665500"><ele>40.51</ele><time>2015-05-13T09:00:10Z</time></trkpt><trkpt lat="51.9793075137" lon="-2.1713299211"><ele>45.80</ele><time>2015-05-13T09:00:12Z</time></trkpt><trkpt lat="51.9793033227" lon="-2.1713129058"><ele>43.88</ele><time>2015-05-13T09:00:13Z</time></trkpt><trkpt lat="51.9792961143" lon="-2.1712714154"><ele>40.03</ele><time>2015-05-13T09:00:15Z</time></trkpt><trkpt lat="51.9792902470" lon="-2.1712476108"><ele>43.40</ele><time>2015-05-13T09:00:16Z</time></trkpt><trkpt lat="51.9792828709" lon="-2.1712240577"><ele>43.40</ele><time>2015-05-13T09:00:17Z</time></trkpt><trkpt lat="51.9792485051" lon="-2.1711805556"><ele>40.51</ele><time>2015-05-13T09:00:21Z</time></trkpt><trkpt lat="51.9791891612" lon="-2.1711385623"><ele>40.03</ele><time>2015-05-13T09:00:28Z</time></trkpt><trkpt lat="51.9791674521" lon="-2.1711189486"><ele>40.99</ele><time>2015-05-13T09:00:30Z</time></trkpt><trkpt lat="51.9790901709" lon="-2.1710731834"><ele>39.07</ele><time>2015-05-13T09:00:37Z</time></trkpt><trkpt lat="51.9789116364" lon="-2.1711166017"><ele>37.15</ele><time>2015-05-13T09:00:54Z</time></trkpt><trkpt lat="51.9788844790" lon="-2.1710910369"><ele>39.55</ele><time>2015-05-13T09:00:57Z</time></trkpt><trkpt lat="51.9788574893" lon="-2.1710717585"><ele>43.40</ele><time>2015-05-13T09:01:00Z</time></trkpt><trkpt lat="51.9788527954" lon="-2.1710657235"><ele>36.19</ele><time>2015-05-13T09:01:01Z</time></trkpt><trkpt lat="51.9788460899" lon="-2.1710522287"><ele>35.71</ele><time>2015-05-13T09:01:02Z</time></trkpt><trkpt lat="51.9787980616" lon="-2.1709988359"><ele>33.78</ele><time>2015-05-13T09:01:07Z</time></trkpt><trkpt lat="51.9787862431" lon="-2.1709909569"><ele>39.55</ele><time>2015-05-13T09:01:08Z</time></trkpt><trkpt lat="51.9787257258" lon="-2.1709427610"><ele>36.19</ele><time>2015-05-13T09:01:13Z</time></trkpt><trkpt lat="51.9787154999" lon="-2.1709321998"><ele>32.82</ele><time>2015-05-13T09:01:14Z</time></trkpt><trkpt lat="51.9787041005" lon="-2.1709212195"><ele>36.67</ele><time>2015-05-13T09:01:15Z</time></trkpt><trkpt lat="51.9786068704" lon="-2.1708033700"><ele>32.82</ele><time>2015-05-13T09:01:25Z</time></trkpt><trkpt lat="51.9785433356" lon="-2.1707406733"><ele>34.26</ele><time>2015-05-13T09:01:33Z</time></trkpt><trkpt lat="51.9785249792" lon="-2.1707187966"><ele>32.82</ele><time>2015-05-13T09:01:35Z</time></trkpt><trkpt lat="51.9784979895" lon="-2.1706749592"><ele>35.71</ele><time>2015-05-13T09:01:38Z</time></trkpt><trkpt lat="51.9784662221" lon="-2.1706135198"><ele>27.53</ele><time>2015-05-13T09:01:42Z</time></trkpt><trkpt lat="51.9784582593" lon="-2.1705958340"><ele>31.86</ele><time>2015-05-13T09:01:43Z</time></trkpt><trkpt lat="51.9784387294" lon="-2.1705730353"><ele>34.74</ele><time>2015-05-13T09:01:45Z</time></trkpt><trkpt lat="51.9784215465" lon="-2.1705487277"><ele>31.38</ele><time>2015-05-13T09:01:47Z</time></trkpt><trkpt lat="51.9784155954" lon="-2.1705363225"><ele>27.53</ele><time>2015-05-13T09:01:48Z</time></trkpt><trkpt lat="51.9784091413" lon="-2.1705263481"><ele>28.98</ele><time>2015-05-13T09:01:49Z</time></trkpt><trkpt lat="51.9784030225" lon="-2.1705129370"><ele>33.30</ele><time>2015-05-13T09:01:50Z</time></trkpt><trkpt lat="51.9783948082" lon="-2.1704982687"><ele>28.98</ele><time>2015-05-13T09:01:51Z</time></trkpt><trkpt lat="51.9783870969" lon="-2.1704817563"><ele>32.82</ele><time>2015-05-13T09:01:52Z</time></trkpt><trkpt lat="51.9783608615" lon="-2.1704285312"><ele>28.02</ele><time>2015-05-13T09:01:56Z</time></trkpt><trkpt lat="51.9783572573" lon="-2.1704159584"><ele>30.90</ele><time>2015-05-13T09:01:57Z</time></trkpt><trkpt lat="51.9783451036" lon="-2.1704022121"><ele>34.74</ele><time>2015-05-13T09:01:59Z</time></trkpt><trkpt lat="51.9783285912" lon="-2.1703779884"><ele>28.50</ele><time>2015-05-13T09:02:01Z</time></trkpt><trkpt lat="51.9783080555" lon="-2.1703328099"><ele>25.61</ele><time>2015-05-13T09:02:04Z</time></trkpt><trkpt lat="51.9782980811" lon="-2.1703176387"><ele>30.90</ele><time>2015-05-13T09:02:05Z</time></trkpt><trkpt lat="51.9782778807" lon="-2.1702992823"><ele>35.23</ele><time>2015-05-13T09:02:07Z</time></trkpt><trkpt lat="51.9782688282" lon="-2.1702888887"><ele>34.26</ele><time>2015-05-13T09:02:08Z</time></trkpt><trkpt lat="51.9782623742" lon="-2.1702776570"><ele>29.46</ele><time>2015-05-13T09:02:09Z</time></trkpt><trkpt lat="51.9782223087" lon="-2.1701936703"><ele>32.82</ele><time>2015-05-13T09:02:15Z</time></trkpt><trkpt lat="51.9782119151" lon="-2.1701661777"><ele>28.02</ele><time>2015-05-13T09:02:17Z</time></trkpt><trkpt lat="51.9781794772" lon="-2.1700933389"><ele>31.86</ele><time>2015-05-13T09:02:22Z</time></trkpt><trkpt lat="51.9781643897" lon="-2.1700484119"><ele>27.05</ele><time>2015-05-13T09:02:25Z</time></trkpt><trkpt lat="51.9781581871" lon="-2.1700323187"><ele>29.46</ele><time>2015-05-13T09:02:26Z</time></trkpt><trkpt lat="51.9781327061" lon="-2.1699760761"><ele>32.34</ele><time>2015-05-13T09:02:29Z</time></trkpt><trkpt lat="51.9780954067" lon="-2.1699245274"><ele>27.53</ele><time>2015-05-13T09:02:34Z</time></trkpt><trkpt lat="51.9780570175" lon="-2.1699021477"><ele>31.38</ele><time>2015-05-13T09:02:38Z</time></trkpt><trkpt lat="51.9780194666" lon="-2.1699013934"><ele>28.50</ele><time>2015-05-13T09:02:41Z</time></trkpt><trkpt lat="51.9779548422" lon="-2.1699327417"><ele>32.34</ele><time>2015-05-13T09:02:48Z</time></trkpt><trkpt lat="51.9779352285" lon="-2.1699308977"><ele>27.53</ele><time>2015-05-13T09:02:50Z</time></trkpt><trkpt lat="51.9779001083" lon="-2.1699121222"><ele>31.86</ele><time>2015-05-13T09:02:54Z</time></trkpt><trkpt lat="51.9778363220" lon="-2.1698968671"><ele>25.61</ele><time>2015-05-13T09:02:59Z</time></trkpt><trkpt lat="51.9778234139" lon="-2.1698974539"><ele>27.53</ele><time>2015-05-13T09:03:00Z</time></trkpt><trkpt lat="51.9778174628" lon="-2.1699107811"><ele>31.38</ele><time>2015-05-13T09:03:01Z</time></trkpt><trkpt lat="51.9778179657" lon="-2.1699230187"><ele>29.46</ele><time>2015-05-13T09:03:02Z</time></trkpt><trkpt lat="51.9778181333" lon="-2.1699445602"><ele>23.21</ele><time>2015-05-13T09:03:04Z</time></trkpt><trkpt lat="51.9778158702" lon="-2.1699559595"><ele>28.98</ele><time>2015-05-13T09:03:05Z</time></trkpt><trkpt lat="51.9778121822" lon="-2.1699687839"><ele>26.09</ele><time>2015-05-13T09:03:06Z</time></trkpt><trkpt lat="51.9778111763" lon="-2.1699766628"><ele>28.98</ele><time>2015-05-13T09:03:07Z</time></trkpt><trkpt lat="51.9778063986" lon="-2.1699964441"><ele>32.34</ele><time>2015-05-13T09:03:11Z</time></trkpt><trkpt lat="51.9778022915" lon="-2.1699984558"><ele>28.98</ele><time>2015-05-13T09:03:12Z</time></trkpt><trkpt lat="51.9777951669" lon="-2.1699988749"><ele>25.13</ele><time>2015-05-13T09:03:13Z</time></trkpt><trkpt lat="51.9777903054" lon="-2.1700037364"><ele>28.50</ele><time>2015-05-13T09:03:14Z</time></trkpt><trkpt lat="51.9777798280" lon="-2.1700247750"><ele>29.94</ele><time>2015-05-13T09:03:16Z</time></trkpt><trkpt lat="51.9777432829" lon="-2.1700774971"><ele>29.46</ele><time>2015-05-13T09:03:21Z</time></trkpt><trkpt lat="51.9777010381" lon="-2.1701653395"><ele>26.09</ele><time>2015-05-13T09:03:28Z</time></trkpt><trkpt lat="51.9776703604" lon="-2.1701923292"><ele>29.94</ele><time>2015-05-13T09:03:31Z</time></trkpt><trkpt lat="51.9776235055" lon="-2.1702453028"><ele>27.53</ele><time>2015-05-13T09:03:36Z</time></trkpt><trkpt lat="51.9776024669" lon="-2.1702862903"><ele>29.46</ele><time>2015-05-13T09:03:39Z</time></trkpt><trkpt lat="51.9775876310" lon="-2.1703121904"><ele>24.65</ele><time>2015-05-13T09:03:41Z</time></trkpt><trkpt lat="51.9775778241" lon="-2.1703216620"><ele>28.98</ele><time>2015-05-13T09:03:42Z</time></trkpt><trkpt lat="51.9775308855" lon="-2.1703759767"><ele>24.17</ele><time>2015-05-13T09:03:48Z</time></trkpt><trkpt lat="51.9775232580" lon="-2.1703793295"><ele>27.05</ele><time>2015-05-13T09:03:49Z</time></trkpt><trkpt lat="51.9775049854" lon="-2.1703998651"><ele>31.38</ele><time>2015-05-13T09:03:51Z</time></trkpt><trkpt lat="51.9774813484" lon="-2.1704130247"><ele>26.09</ele><time>2015-05-13T09:03:53Z</time></trkpt><trkpt lat="51.9774691109" lon="-2.1704173833"><ele>26.09</ele><time>2015-05-13T09:03:54Z</time></trkpt><trkpt lat="51.9774255250" lon="-2.1704188082"><ele>29.46</ele><time>2015-05-13T09:03:58Z</time></trkpt><trkpt lat="51.9773976970" lon="-2.1704349853"><ele>24.65</ele><time>2015-05-13T09:04:01Z</time></trkpt><trkpt lat="51.9773857109" lon="-2.1704624780"><ele>28.50</ele><time>2015-05-13T09:04:03Z</time></trkpt><trkpt lat="51.9773464836" lon="-2.1704934072"><ele>27.05</ele><time>2015-05-13T09:04:07Z</time></trkpt><trkpt lat="51.9773143809" lon="-2.1705535054"><ele>29.46</ele><time>2015-05-13T09:04:12Z</time></trkpt><trkpt lat="51.9772723038" lon="-2.1706937347"><ele>26.57</ele><time>2015-05-13T09:04:20Z</time></trkpt><trkpt lat="51.9772319030" lon="-2.1707627177"><ele>29.94</ele><time>2015-05-13T09:04:27Z</time></trkpt><trkpt lat="51.9772203360" lon="-2.1707846783"><ele>26.57</ele><time>2015-05-13T09:04:29Z</time></trkpt><trkpt lat="51.9771620817" lon="-2.1708480455"><ele>28.98</ele><time>2015-05-13T09:04:37Z</time></trkpt><trkpt lat="51.9771086052" lon="-2.1709279250"><ele>25.13</ele><time>2015-05-13T09:04:45Z</time></trkpt><trkpt lat="51.9770879019" lon="-2.1709478740"><ele>28.98</ele><time>2015-05-13T09:04:48Z</time></trkpt><trkpt lat="51.9770773407" lon="-2.1709589381"><ele>28.98</ele><time>2015-05-13T09:04:49Z</time></trkpt><trkpt lat="51.9770218525" lon="-2.1709849220"><ele>29.94</ele><time>2015-05-13T09:04:54Z</time></trkpt><trkpt lat="51.9770113751" lon="-2.1709851734"><ele>24.17</ele><time>2015-05-13T09:04:55Z</time></trkpt><trkpt lat="51.9769998081" lon="-2.1709858440"><ele>26.57</ele><time>2015-05-13T09:04:56Z</time></trkpt><trkpt lat="51.9769773446" lon="-2.1710014343"><ele>29.46</ele><time>2015-05-13T09:04:58Z</time></trkpt><trkpt lat="51.9769446552" lon="-2.1710497979"><ele>25.61</ele><time>2015-05-13T09:05:02Z</time></trkpt><trkpt lat="51.9769324176" lon="-2.1710854210"><ele>28.98</ele><time>2015-05-13T09:05:04Z</time></trkpt><trkpt lat="51.9769243710" lon="-2.1711025201"><ele>28.50</ele><time>2015-05-13T09:05:05Z</time></trkpt><trkpt lat="51.9769175816" lon="-2.1711186972"><ele>25.13</ele><time>2015-05-13T09:05:06Z</time></trkpt><trkpt lat="51.9769102894" lon="-2.1711265761"><ele>26.57</ele><time>2015-05-13T09:05:07Z</time></trkpt><trkpt lat="51.9768749177" lon="-2.1711804718"><ele>25.61</ele><time>2015-05-13T09:05:12Z</time></trkpt><trkpt lat="51.9768427312" lon="-2.1712197829"><ele>28.98</ele><time>2015-05-13T09:05:16Z</time></trkpt><trkpt lat="51.9768275600" lon="-2.1712383069"><ele>23.69</ele><time>2015-05-13T09:05:18Z</time></trkpt><trkpt lat="51.9768185075" lon="-2.1712459344"><ele>26.09</ele><time>2015-05-13T09:05:19Z</time></trkpt><trkpt lat="51.9768059347" lon="-2.1712766960"><ele>31.38</ele><time>2015-05-13T09:05:21Z</time></trkpt><trkpt lat="51.9768021628" lon="-2.1712891851"><ele>26.09</ele><time>2015-05-13T09:05:22Z</time></trkpt><trkpt lat="51.9767973851" lon="-2.1713029314"><ele>20.32</ele><time>2015-05-13T09:05:23Z</time></trkpt><trkpt lat="51.9767926075" lon="-2.1713205334"><ele>25.61</ele><time>2015-05-13T09:05:24Z</time></trkpt><trkpt lat="51.9767848123" lon="-2.1713370457"><ele>19.36</ele><time>2015-05-13T09:05:25Z</time></trkpt><trkpt lat="51.9767762627" lon="-2.1713503730"><ele>27.05</ele><time>2015-05-13T09:05:26Z</time></trkpt><trkpt lat="51.9767289050" lon="-2.1714761853"><ele>25.13</ele><time>2015-05-13T09:05:35Z</time></trkpt><trkpt lat="51.9767100457" lon="-2.1715154126"><ele>27.53</ele><time>2015-05-13T09:05:38Z</time></trkpt><trkpt lat="51.9767043460" lon="-2.1715252195"><ele>31.38</ele><time>2015-05-13T09:05:39Z</time></trkpt><trkpt lat="51.9766961318" lon="-2.1715301648"><ele>25.61</ele><time>2015-05-13T09:05:40Z</time></trkpt><trkpt lat="51.9766532164" lon="-2.1715910174"><ele>26.09</ele><time>2015-05-13T09:05:46Z</time></trkpt><trkpt lat="51.9766419847" lon="-2.1715984773"><ele>29.94</ele><time>2015-05-13T09:05:48Z</time></trkpt><trkpt lat="51.9766331837" lon="-2.1716034226"><ele>26.09</ele><time>2015-05-13T09:05:49Z</time></trkpt><trkpt lat="51.9766258914" lon="-2.1716098767"><ele>30.42</ele><time>2015-05-13T09:05:50Z</time></trkpt><trkpt lat="51.9766149949" lon="-2.1716217790"><ele>26.09</ele><time>2015-05-13T09:05:51Z</time></trkpt><trkpt lat="51.9765760191" lon="-2.1716761775"><ele>29.46</ele><time>2015-05-13T09:05:55Z</time></trkpt><trkpt lat="51.9765586685" lon="-2.1716865711"><ele>22.25</ele><time>2015-05-13T09:05:57Z</time></trkpt><trkpt lat="51.9765487779" lon="-2.1716941986"><ele>25.61</ele><time>2015-05-13T09:05:58Z</time></trkpt><trkpt lat="51.9765112270" lon="-2.1717447415"><ele>22.25</ele><time>2015-05-13T09:06:04Z</time></trkpt><trkpt lat="51.9765082095" lon="-2.1717528719"><ele>26.09</ele><time>2015-05-13T09:06:05Z</time></trkpt><trkpt lat="51.9764548168" lon="-2.1718791872"><ele>28.98</ele><time>2015-05-13T09:06:13Z</time></trkpt><trkpt lat="51.9764425792" lon="-2.1718985494"><ele>25.13</ele><time>2015-05-13T09:06:14Z</time></trkpt><trkpt lat="51.9764176849" lon="-2.1719401237"><ele>27.05</ele><time>2015-05-13T09:06:17Z</time></trkpt><trkpt lat="51.9763499591" lon="-2.1720416285"><ele>28.50</ele><time>2015-05-13T09:06:25Z</time></trkpt><trkpt lat="51.9763457682" lon="-2.1720552072"><ele>25.61</ele><time>2015-05-13T09:06:26Z</time></trkpt><trkpt lat="51.9763396494" lon="-2.1720668580"><ele>25.61</ele><time>2015-05-13T09:06:27Z</time></trkpt><trkpt lat="51.9763257354" lon="-2.1721272077"><ele>26.57</ele><time>2015-05-13T09:06:44Z</time></trkpt><trkpt lat="51.9763276633" lon="-2.1721287165"><ele>23.21</ele><time>2015-05-13T09:06:46Z</time></trkpt><trkpt lat="51.9763284177" lon="-2.1721283812"><ele>27.05</ele><time>2015-05-13T09:06:47Z</time></trkpt><trkpt lat="51.9763280824" lon="-2.1721304767"><ele>26.57</ele><time>2015-05-13T09:06:52Z</time></trkpt><trkpt lat="51.9763287529" lon="-2.1721398644"><ele>22.73</ele><time>2015-05-13T09:07:22Z</time></trkpt><trkpt lat="51.9763285853" lon="-2.1721404511"><ele>27.05</ele><time>2015-05-13T09:07:23Z</time></trkpt><trkpt lat="51.9763282500" lon="-2.1721515991"><ele>23.21</ele><time>2015-05-13T09:07:43Z</time></trkpt><trkpt lat="51.9763280824" lon="-2.1721519344"><ele>26.57</ele><time>2015-05-13T09:07:44Z</time></trkpt><trkpt lat="51.9763275795" lon="-2.1721526887"><ele>23.21</ele><time>2015-05-13T09:07:47Z</time></trkpt><trkpt lat="51.9763274118" lon="-2.1721528564"><ele>27.53</ele><time>2015-05-13T09:07:48Z</time></trkpt><trkpt lat="51.9763390627" lon="-2.1721907426"><ele>23.69</ele><time>2015-05-13T09:07:53Z</time></trkpt><trkpt lat="51.9763420802" lon="-2.1721956879"><ele>27.05</ele><time>2015-05-13T09:07:54Z</time></trkpt><trkpt lat="51.9763900246" lon="-2.1723033115"><ele>27.53</ele><time>2015-05-13T09:08:01Z</time></trkpt><trkpt lat="51.9763940480" lon="-2.1723189857"><ele>24.17</ele><time>2015-05-13T09:08:02Z</time></trkpt><trkpt lat="51.9763983227" lon="-2.1723344084"><ele>27.53</ele><time>2015-05-13T09:08:03Z</time></trkpt><trkpt lat="51.9764154218" lon="-2.1723828558"><ele>26.09</ele><time>2015-05-13T09:08:07Z</time></trkpt><trkpt lat="51.9764586724" lon="-2.1725310478"><ele>21.77</ele><time>2015-05-13T09:08:17Z</time></trkpt><trkpt lat="51.9764586724" lon="-2.1725486498"><ele>27.53</ele><time>2015-05-13T09:08:18Z</time></trkpt><trkpt lat="51.9765159208" lon="-2.1728056390"><ele>25.61</ele><time>2015-05-13T09:08:33Z</time></trkpt><trkpt lat="51.9765209500" lon="-2.1728438605"><ele>28.50</ele><time>2015-05-13T09:08:35Z</time></trkpt><trkpt lat="51.9765633624" lon="-2.1729491372"><ele>25.61</ele><time>2015-05-13T09:08:43Z</time></trkpt><trkpt lat="51.9765670504" lon="-2.1729606204"><ele>26.57</ele><time>2015-05-13T09:08:44Z</time></trkpt><trkpt lat="51.9765729178" lon="-2.1729843412"><ele>28.02</ele><time>2015-05-13T09:08:46Z</time></trkpt><trkpt lat="51.9765756838" lon="-2.1730131749"><ele>27.05</ele><time>2015-05-13T09:08:48Z</time></trkpt><trkpt lat="51.9765918609" lon="-2.1731536556"><ele>27.53</ele><time>2015-05-13T09:09:03Z</time></trkpt><trkpt lat="51.9766191021" lon="-2.1732235607"><ele>23.21</ele><time>2015-05-13T09:09:12Z</time></trkpt><trkpt lat="51.9766197726" lon="-2.1732373908"><ele>27.53</ele><time>2015-05-13T09:09:13Z</time></trkpt><trkpt lat="51.9766305853" lon="-2.1732739359"><ele>31.38</ele><time>2015-05-13T09:09:16Z</time></trkpt><trkpt lat="51.9766336866" lon="-2.1732854191"><ele>27.53</ele><time>2015-05-13T09:09:17Z</time></trkpt><trkpt lat="51.9766345248" lon="-2.1732979920"><ele>22.73</ele><time>2015-05-13T09:09:18Z</time></trkpt><trkpt lat="51.9766345248" lon="-2.1733147558"><ele>27.53</ele><time>2015-05-13T09:09:19Z</time></trkpt><trkpt lat="51.9766345248" lon="-2.1733709145"><ele>22.73</ele><time>2015-05-13T09:09:22Z</time></trkpt><trkpt lat="51.9766349439" lon="-2.1733884327"><ele>26.09</ele><time>2015-05-13T09:09:23Z</time></trkpt><trkpt lat="51.9766389672" lon="-2.1734205354"><ele>29.46</ele><time>2015-05-13T09:09:25Z</time></trkpt><trkpt lat="51.9766419008" lon="-2.1734410711"><ele>28.98</ele><time>2015-05-13T09:09:26Z</time></trkpt><trkpt lat="51.9766519591" lon="-2.1734752692"><ele>24.65</ele><time>2015-05-13T09:09:28Z</time></trkpt><trkpt lat="51.9766622689" lon="-2.1735058632"><ele>30.90</ele><time>2015-05-13T09:09:30Z</time></trkpt><trkpt lat="51.9766649511" lon="-2.1735205315"><ele>26.09</ele><time>2015-05-13T09:09:31Z</time></trkpt><trkpt lat="51.9766711537" lon="-2.1735523827"><ele>30.90</ele><time>2015-05-13T09:09:34Z</time></trkpt><trkpt lat="51.9766734168" lon="-2.1735650394"><ele>27.53</ele><time>2015-05-13T09:09:35Z</time></trkpt><trkpt lat="51.9766756799" lon="-2.1735820547"><ele>23.21</ele><time>2015-05-13T09:09:37Z</time></trkpt><trkpt lat="51.9766766857" lon="-2.1735920291"><ele>26.57</ele><time>2015-05-13T09:09:38Z</time></trkpt><trkpt lat="51.9766753446" lon="-2.1736050211"><ele>31.38</ele><time>2015-05-13T09:09:40Z</time></trkpt><trkpt lat="51.9766773563" lon="-2.1736156661"><ele>26.09</ele><time>2015-05-13T09:09:41Z</time></trkpt><trkpt lat="51.9766715728" lon="-2.1736461762"><ele>32.82</ele><time>2015-05-13T09:09:44Z</time></trkpt><trkpt lat="51.9766728301" lon="-2.1736603417"><ele>26.09</ele><time>2015-05-13T09:09:45Z</time></trkpt><trkpt lat="51.9766756799" lon="-2.1737124771"><ele>28.98</ele><time>2015-05-13T09:09:48Z</time></trkpt><trkpt lat="51.9766766857" lon="-2.1737471782"><ele>29.94</ele><time>2015-05-13T09:09:50Z</time></trkpt><trkpt lat="51.9766791165" lon="-2.1737774368"><ele>25.13</ele><time>2015-05-13T09:09:52Z</time></trkpt><trkpt lat="51.9766777754" lon="-2.1738177538"><ele>28.98</ele><time>2015-05-13T09:09:54Z</time></trkpt><trkpt lat="51.9766769372" lon="-2.1738330089"><ele>28.98</ele><time>2015-05-13T09:09:55Z</time></trkpt><trkpt lat="51.9766759314" lon="-2.1738461684"><ele>24.65</ele><time>2015-05-13T09:09:56Z</time></trkpt><trkpt lat="51.9766771048" lon="-2.1738578193"><ele>25.61</ele><time>2015-05-13T09:09:57Z</time></trkpt><trkpt lat="51.9766776077" lon="-2.1738738287"><ele>29.46</ele><time>2015-05-13T09:09:58Z</time></trkpt><trkpt lat="51.9766769372" lon="-2.1738905087"><ele>33.78</ele><time>2015-05-13T09:09:59Z</time></trkpt><trkpt lat="51.9766780268" lon="-2.1739075240"><ele>26.57</ele><time>2015-05-13T09:10:00Z</time></trkpt><trkpt lat="51.9766623527" lon="-2.1740637626"><ele>30.42</ele><time>2015-05-13T09:10:10Z</time></trkpt><trkpt lat="51.9766639452" lon="-2.1740819514"><ele>26.57</ele><time>2015-05-13T09:10:11Z</time></trkpt><trkpt lat="51.9766786974" lon="-2.1741759963"><ele>27.05</ele><time>2015-05-13T09:10:17Z</time></trkpt><trkpt lat="51.9766935334" lon="-2.1742383577"><ele>24.17</ele><time>2015-05-13T09:10:22Z</time></trkpt><trkpt lat="51.9766960479" lon="-2.1742554568"><ele>26.57</ele><time>2015-05-13T09:10:23Z</time></trkpt><trkpt lat="51.9766985625" lon="-2.1743003000"><ele>31.86</ele><time>2015-05-13T09:10:25Z</time></trkpt><trkpt lat="51.9767030887" lon="-2.1743219253"><ele>25.13</ele><time>2015-05-13T09:10:26Z</time></trkpt><trkpt lat="51.9767061062" lon="-2.1743413713"><ele>26.09</ele><time>2015-05-13T09:10:27Z</time></trkpt><trkpt lat="51.9767053518" lon="-2.1743623260"><ele>29.46</ele><time>2015-05-13T09:10:28Z</time></trkpt><trkpt lat="51.9767198525" lon="-2.1744292974"><ele>25.61</ele><time>2015-05-13T09:10:33Z</time></trkpt><trkpt lat="51.9767240435" lon="-2.1744604781"><ele>28.98</ele><time>2015-05-13T09:10:35Z</time></trkpt><trkpt lat="51.9767253846" lon="-2.1745070815"><ele>25.61</ele><time>2015-05-13T09:10:37Z</time></trkpt><trkpt lat="51.9767273124" lon="-2.1745310538"><ele>27.53</ele><time>2015-05-13T09:10:38Z</time></trkpt><trkpt lat="51.9767315872" lon="-2.1745651681"><ele>31.38</ele><time>2015-05-13T09:10:40Z</time></trkpt><trkpt lat="51.9767335150" lon="-2.1745829377"><ele>27.05</ele><time>2015-05-13T09:10:41Z</time></trkpt><trkpt lat="51.9767357782" lon="-2.1746186446"><ele>23.21</ele><time>2015-05-13T09:10:43Z</time></trkpt><trkpt lat="51.9767351076" lon="-2.1746363305"><ele>26.57</ele><time>2015-05-13T09:10:44Z</time></trkpt><trkpt lat="51.9767333474" lon="-2.1746706963"><ele>30.90</ele><time>2015-05-13T09:10:46Z</time></trkpt><trkpt lat="51.9767360296" lon="-2.1746967640"><ele>22.73</ele><time>2015-05-13T09:10:48Z</time></trkpt><trkpt lat="51.9767392986" lon="-2.1747115999"><ele>28.02</ele><time>2015-05-13T09:10:49Z</time></trkpt><trkpt lat="51.9767496921" lon="-2.1747797448"><ele>26.09</ele><time>2015-05-13T09:10:53Z</time></trkpt><trkpt lat="51.9767532125" lon="-2.1748205647"><ele>29.94</ele><time>2015-05-13T09:10:55Z</time></trkpt><trkpt lat="51.9767545536" lon="-2.1748354845"><ele>28.98</ele><time>2015-05-13T09:10:56Z</time></trkpt><trkpt lat="51.9767595828" lon="-2.1748752147"><ele>25.61</ele><time>2015-05-13T09:10:59Z</time></trkpt><trkpt lat="51.9767638575" lon="-2.1749079879"><ele>28.98</ele><time>2015-05-13T09:11:01Z</time></trkpt><trkpt lat="51.9767649472" lon="-2.1749277692"><ele>28.98</ele><time>2015-05-13T09:11:02Z</time></trkpt><trkpt lat="51.9767623488" lon="-2.1749626379"><ele>26.09</ele><time>2015-05-13T09:11:04Z</time></trkpt><trkpt lat="51.9767622650" lon="-2.1749977581"><ele>27.53</ele><time>2015-05-13T09:11:06Z</time></trkpt><trkpt lat="51.9767660368" lon="-2.1750246640"><ele>30.90</ele><time>2015-05-13T09:11:08Z</time></trkpt><trkpt lat="51.9767676294" lon="-2.1750338003"><ele>27.53</ele><time>2015-05-13T09:11:09Z</time></trkpt><trkpt lat="51.9767812919" lon="-2.1751163621"><ele>23.69</ele><time>2015-05-13T09:11:14Z</time></trkpt><trkpt lat="51.9767834712" lon="-2.1751337964"><ele>27.05</ele><time>2015-05-13T09:11:15Z</time></trkpt><trkpt lat="51.9768140651" lon="-2.1752488799"><ele>28.98</ele><time>2015-05-13T09:11:23Z</time></trkpt><trkpt lat="51.9768170826" lon="-2.1752626263"><ele>24.17</ele><time>2015-05-13T09:11:24Z</time></trkpt><trkpt lat="51.9768201839" lon="-2.1752785519"><ele>27.53</ele><time>2015-05-13T09:11:25Z</time></trkpt><trkpt lat="51.9768340979" lon="-2.1753213834"><ele>23.21</ele><time>2015-05-13T09:11:28Z</time></trkpt><trkpt lat="51.9768370315" lon="-2.1753313579"><ele>27.53</ele><time>2015-05-13T09:11:29Z</time></trkpt><trkpt lat="51.9768440723" lon="-2.1753561683"><ele>28.98</ele><time>2015-05-13T09:11:31Z</time></trkpt><trkpt lat="51.9768573157" lon="-2.1753929649"><ele>26.09</ele><time>2015-05-13T09:11:34Z</time></trkpt><trkpt lat="51.9768633507" lon="-2.1754183620"><ele>30.42</ele><time>2015-05-13T09:11:36Z</time></trkpt><trkpt lat="51.9768690504" lon="-2.1754324436"><ele>25.13</ele><time>2015-05-13T09:11:37Z</time></trkpt><trkpt lat="51.9768745825" lon="-2.1754459385"><ele>26.57</ele><time>2015-05-13T09:11:38Z</time></trkpt><trkpt lat="51.9768836349" lon="-2.1754720900"><ele>30.90</ele><time>2015-05-13T09:11:40Z</time></trkpt><trkpt lat="51.9768880773" lon="-2.1754865907"><ele>26.57</ele><time>2015-05-13T09:11:41Z</time></trkpt><trkpt lat="51.9768910110" lon="-2.1755031031"><ele>29.94</ele><time>2015-05-13T09:11:42Z</time></trkpt><trkpt lat="51.9769066852" lon="-2.1755746845"><ele>25.13</ele><time>2015-05-13T09:11:47Z</time></trkpt><trkpt lat="51.9769090321" lon="-2.1755877603"><ele>28.50</ele><time>2015-05-13T09:11:48Z</time></trkpt><trkpt lat="51.9769109599" lon="-2.1756161749"><ele>24.65</ele><time>2015-05-13T09:11:50Z</time></trkpt><trkpt lat="51.9769106247" lon="-2.1756330226"><ele>28.98</ele><time>2015-05-13T09:11:51Z</time></trkpt><trkpt lat="51.9769160729" lon="-2.1756650414"><ele>25.13</ele><time>2015-05-13T09:11:53Z</time></trkpt><trkpt lat="51.9769204315" lon="-2.1756785363"><ele>26.09</ele><time>2015-05-13T09:11:54Z</time></trkpt><trkpt lat="51.9769293163" lon="-2.1757258102"><ele>31.38</ele><time>2015-05-13T09:11:57Z</time></trkpt><trkpt lat="51.9769312441" lon="-2.1757469326"><ele>27.53</ele><time>2015-05-13T09:11:58Z</time></trkpt><trkpt lat="51.9769397099" lon="-2.1758058574"><ele>20.32</ele><time>2015-05-13T09:12:02Z</time></trkpt><trkpt lat="51.9769403804" lon="-2.1758185141"><ele>27.05</ele><time>2015-05-13T09:12:03Z</time></trkpt><trkpt lat="51.9769376144" lon="-2.1758432407"><ele>29.94</ele><time>2015-05-13T09:12:05Z</time></trkpt><trkpt lat="51.9769338425" lon="-2.1758545563"><ele>23.69</ele><time>2015-05-13T09:12:06Z</time></trkpt><trkpt lat="51.9769305736" lon="-2.1758703981"><ele>25.61</ele><time>2015-05-13T09:12:07Z</time></trkpt><trkpt lat="51.9769279752" lon="-2.1758946218"><ele>28.50</ele><time>2015-05-13T09:12:09Z</time></trkpt><trkpt lat="51.9769124687" lon="-2.1759311669"><ele>24.17</ele><time>2015-05-13T09:12:12Z</time></trkpt><trkpt lat="51.9769042544" lon="-2.1759454161"><ele>24.65</ele><time>2015-05-13T09:12:13Z</time></trkpt><trkpt lat="51.9768302422" lon="-2.1761006489"><ele>28.02</ele><time>2015-05-13T09:12:26Z</time></trkpt><trkpt lat="51.9768205192" lon="-2.1761832107"><ele>23.21</ele><time>2015-05-13T09:12:35Z</time></trkpt><trkpt lat="51.9768280629" lon="-2.1761868149"><ele>28.98</ele><time>2015-05-13T09:12:37Z</time></trkpt><trkpt lat="51.9768314995" lon="-2.1761905029"><ele>26.09</ele><time>2015-05-13T09:12:38Z</time></trkpt><trkpt lat="51.9768817909" lon="-2.1761779301"><ele>20.81</ele><time>2015-05-13T09:12:47Z</time></trkpt><trkpt lat="51.9768879097" lon="-2.1761739068"><ele>27.53</ele><time>2015-05-13T09:12:48Z</time></trkpt><trkpt lat="51.9769023266" lon="-2.1761698835"><ele>23.21</ele><time>2015-05-13T09:12:50Z</time></trkpt><trkpt lat="51.9769076072" lon="-2.1761637647"><ele>28.02</ele><time>2015-05-13T09:12:51Z</time></trkpt><trkpt lat="51.9769098703" lon="-2.1761251241"><ele>27.53</ele><time>2015-05-13T09:13:12Z</time></trkpt><trkpt lat="51.9769195095" lon="-2.1761129703"><ele>26.57</ele><time>2015-05-13T09:13:27Z</time></trkpt><trkpt lat="51.9769316632" lon="-2.1760877408"><ele>31.86</ele><time>2015-05-13T09:13:29Z</time></trkpt><trkpt lat="51.9769373629" lon="-2.1760781854"><ele>22.73</ele><time>2015-05-13T09:13:30Z</time></trkpt><trkpt lat="51.9769426435" lon="-2.1760673728"><ele>28.02</ele><time>2015-05-13T09:13:31Z</time></trkpt><trkpt lat="51.9769935217" lon="-2.1759963781"><ele>27.05</ele><time>2015-05-13T09:13:39Z</time></trkpt><trkpt lat="51.9770309050" lon="-2.1759745851"><ele>26.57</ele><time>2015-05-13T09:13:43Z</time></trkpt><trkpt lat="51.9771260396" lon="-2.1760894172"><ele>29.46</ele><time>2015-05-13T09:13:54Z</time></trkpt><trkpt lat="51.9771331642" lon="-2.1761007328"><ele>25.61</ele><time>2015-05-13T09:13:55Z</time></trkpt><trkpt lat="51.9771427196" lon="-2.1761159878"><ele>27.53</ele><time>2015-05-13T09:13:56Z</time></trkpt><trkpt lat="51.9772758242" lon="-2.1762914211"><ele>24.65</ele><time>2015-05-13T09:14:14Z</time></trkpt><trkpt lat="51.9772888999" lon="-2.1763120405"><ele>28.50</ele><time>2015-05-13T09:14:16Z</time></trkpt><trkpt lat="51.9773174822" lon="-2.1763635054"><ele>24.65</ele><time>2015-05-13T09:14:20Z</time></trkpt><trkpt lat="51.9773234334" lon="-2.1763806883"><ele>27.53</ele><time>2015-05-13T09:14:21Z</time></trkpt><trkpt lat="51.9773549493" lon="-2.1764871385"><ele>30.90</ele><time>2015-05-13T09:14:27Z</time></trkpt><trkpt lat="51.9773599785" lon="-2.1764987893"><ele>27.53</ele><time>2015-05-13T09:14:28Z</time></trkpt><trkpt lat="51.9773680251" lon="-2.1765214205"><ele>25.61</ele><time>2015-05-13T09:14:30Z</time></trkpt><trkpt lat="51.9773841184" lon="-2.1765510086"><ele>31.38</ele><time>2015-05-13T09:14:33Z</time></trkpt><trkpt lat="51.9773888960" lon="-2.1765619889"><ele>27.05</ele><time>2015-05-13T09:14:34Z</time></trkpt><trkpt lat="51.9774101023" lon="-2.1765977796"><ele>29.46</ele><time>2015-05-13T09:14:37Z</time></trkpt><trkpt lat="51.9774267823" lon="-2.1766262781"><ele>24.65</ele><time>2015-05-13T09:14:39Z</time></trkpt><trkpt lat="51.9774373434" lon="-2.1766321454"><ele>27.53</ele><time>2015-05-13T09:14:40Z</time></trkpt><trkpt lat="51.9774650875" lon="-2.1766674332"><ele>30.90</ele><time>2015-05-13T09:14:44Z</time></trkpt><trkpt lat="51.9774691109" lon="-2.1766765695"><ele>25.13</ele><time>2015-05-13T09:14:45Z</time></trkpt><trkpt lat="51.9774733018" lon="-2.1766869631"><ele>28.02</ele><time>2015-05-13T09:14:46Z</time></trkpt><trkpt lat="51.9775069971" lon="-2.1767672617"><ele>31.86</ele><time>2015-05-13T09:14:52Z</time></trkpt><trkpt lat="51.9775130320" lon="-2.1767821815"><ele>27.53</ele><time>2015-05-13T09:14:53Z</time></trkpt><trkpt lat="51.9775152113" lon="-2.1767999511"><ele>24.17</ele><time>2015-05-13T09:14:54Z</time></trkpt><trkpt lat="51.9775227550" lon="-2.1768510807"><ele>28.50</ele><time>2015-05-13T09:14:57Z</time></trkpt><trkpt lat="51.9775499124" lon="-2.1769245900"><ele>26.57</ele><time>2015-05-13T09:15:01Z</time></trkpt><trkpt lat="51.9775584619" lon="-2.1769582853"><ele>29.94</ele><time>2015-05-13T09:15:03Z</time></trkpt><trkpt lat="51.9775622338" lon="-2.1769849397"><ele>26.09</ele><time>2015-05-13T09:15:05Z</time></trkpt><trkpt lat="51.9775704481" lon="-2.1770298667"><ele>28.98</ele><time>2015-05-13T09:15:08Z</time></trkpt><trkpt lat="51.9775807578" lon="-2.1770526655"><ele>25.13</ele><time>2015-05-13T09:15:10Z</time></trkpt><trkpt lat="51.9775862899" lon="-2.1770585328"><ele>28.50</ele><time>2015-05-13T09:15:11Z</time></trkpt><trkpt lat="51.9775844458" lon="-2.1770879533"><ele>27.05</ele><time>2015-05-13T09:15:14Z</time></trkpt><trkpt lat="51.9775832724" lon="-2.1771135181"><ele>28.98</ele><time>2015-05-13T09:15:16Z</time></trkpt><trkpt lat="51.9775805902" lon="-2.1771159489"><ele>27.53</ele><time>2015-05-13T09:15:19Z</time></trkpt><trkpt lat="51.9775773212" lon="-2.1771164518"><ele>30.42</ele><time>2015-05-13T09:15:40Z</time></trkpt><trkpt lat="51.9775741361" lon="-2.1771216486"><ele>29.94</ele><time>2015-05-13T09:15:41Z</time></trkpt><trkpt lat="51.9775738008" lon="-2.1771220677"><ele>23.69</ele><time>2015-05-13T09:15:42Z</time></trkpt><trkpt lat="51.9775734656" lon="-2.1771223191"><ele>28.98</ele><time>2015-05-13T09:15:43Z</time></trkpt><trkpt lat="51.9775721245" lon="-2.1771226544"><ele>27.53</ele><time>2015-05-13T09:15:46Z</time></trkpt><trkpt lat="51.9775658380" lon="-2.1771382447"><ele>23.69</ele><time>2015-05-13T09:16:11Z</time></trkpt><trkpt lat="51.9775669277" lon="-2.1771458723"><ele>28.98</ele><time>2015-05-13T09:16:12Z</time></trkpt><trkpt lat="51.9775685202" lon="-2.1771534998"><ele>24.17</ele><time>2015-05-13T09:16:13Z</time></trkpt><trkpt lat="51.9775721245" lon="-2.1771621332"><ele>29.46</ele><time>2015-05-13T09:16:14Z</time></trkpt><trkpt lat="51.9775791653" lon="-2.1771800704"><ele>25.13</ele><time>2015-05-13T09:16:16Z</time></trkpt><trkpt lat="51.9775822666" lon="-2.1771904640"><ele>33.30</ele><time>2015-05-13T09:16:17Z</time></trkpt><trkpt lat="51.9775853679" lon="-2.1772002708"><ele>21.77</ele><time>2015-05-13T09:16:18Z</time></trkpt><trkpt lat="51.9775903132" lon="-2.1772112511"><ele>29.94</ele><time>2015-05-13T09:16:19Z</time></trkpt><trkpt lat="51.9775964320" lon="-2.1772233211"><ele>23.21</ele><time>2015-05-13T09:16:20Z</time></trkpt><trkpt lat="51.9776090886" lon="-2.1772385761"><ele>32.82</ele><time>2015-05-13T09:16:22Z</time></trkpt><trkpt lat="51.9776132796" lon="-2.1772468742"><ele>25.13</ele><time>2015-05-13T09:16:23Z</time></trkpt><trkpt lat="51.9776178896" lon="-2.1772566810"><ele>28.02</ele><time>2015-05-13T09:16:24Z</time></trkpt><trkpt lat="51.9776411075" lon="-2.1772762109"><ele>32.34</ele><time>2015-05-13T09:16:27Z</time></trkpt><trkpt lat="51.9776477292" lon="-2.1772780549"><ele>24.17</ele><time>2015-05-13T09:16:28Z</time></trkpt><trkpt lat="51.9776557758" lon="-2.1772823296"><ele>26.57</ele><time>2015-05-13T09:16:29Z</time></trkpt><trkpt lat="51.9776708633" lon="-2.1772774681"><ele>28.98</ele><time>2015-05-13T09:16:31Z</time></trkpt><trkpt lat="51.9776842743" lon="-2.1772779711"><ele>24.65</ele><time>2015-05-13T09:16:32Z</time></trkpt><trkpt lat="51.9776971824" lon="-2.1772783902"><ele>27.53</ele><time>2015-05-13T09:16:33Z</time></trkpt><trkpt lat="51.9777186401" lon="-2.1772852633"><ele>27.53</ele><time>2015-05-13T09:16:35Z</time></trkpt><trkpt lat="51.9777996093" lon="-2.1773302741"><ele>26.57</ele><time>2015-05-13T09:16:45Z</time></trkpt><trkpt lat="51.9778598752" lon="-2.1773860976"><ele>30.90</ele><time>2015-05-13T09:16:52Z</time></trkpt><trkpt lat="51.9778799918" lon="-2.1773978323"><ele>25.61</ele><time>2015-05-13T09:16:54Z</time></trkpt><trkpt lat="51.9778880384" lon="-2.1774004307"><ele>27.05</ele><time>2015-05-13T09:16:55Z</time></trkpt><trkpt lat="51.9779061433" lon="-2.1773985028"><ele>28.50</ele><time>2015-05-13T09:16:57Z</time></trkpt><trkpt lat="51.9779269304" lon="-2.1773994248"><ele>27.53</ele><time>2015-05-13T09:16:59Z</time></trkpt><trkpt lat="51.9779686723" lon="-2.1774166077"><ele>30.90</ele><time>2015-05-13T09:17:03Z</time></trkpt><trkpt lat="51.9779773895" lon="-2.1774218045"><ele>25.61</ele><time>2015-05-13T09:17:04Z</time></trkpt><trkpt lat="51.9779911358" lon="-2.1774288453"><ele>29.94</ele><time>2015-05-13T09:17:06Z</time></trkpt><trkpt lat="51.9780115038" lon="-2.1774747781"><ele>27.05</ele><time>2015-05-13T09:17:10Z</time></trkpt><trkpt lat="51.9780426845" lon="-2.1775438450"><ele>31.86</ele><time>2015-05-13T09:17:15Z</time></trkpt><trkpt lat="51.9780479651" lon="-2.1775563341"><ele>27.05</ele><time>2015-05-13T09:17:16Z</time></trkpt><trkpt lat="51.9780890364" lon="-2.1775978245"><ele>28.50</ele><time>2015-05-13T09:17:22Z</time></trkpt><trkpt lat="51.9781080633" lon="-2.1776208747"><ele>28.98</ele><time>2015-05-13T09:17:24Z</time></trkpt><trkpt lat="51.9781314489" lon="-2.1776519716"><ele>25.61</ele><time>2015-05-13T09:17:27Z</time></trkpt><trkpt lat="51.9781451952" lon="-2.1776727587"><ele>29.46</ele><time>2015-05-13T09:17:29Z</time></trkpt><trkpt lat="51.9781601988" lon="-2.1776898578"><ele>22.73</ele><time>2015-05-13T09:17:31Z</time></trkpt><trkpt lat="51.9781683292" lon="-2.1776977368"><ele>27.53</ele><time>2015-05-13T09:17:32Z</time></trkpt><trkpt lat="51.9782000128" lon="-2.1777382214"><ele>26.57</ele><time>2015-05-13T09:17:36Z</time></trkpt><trkpt lat="51.9782248233" lon="-2.1777668037"><ele>28.98</ele><time>2015-05-13T09:17:40Z</time></trkpt><trkpt lat="51.9782333728" lon="-2.1777712461"><ele>24.65</ele><time>2015-05-13T09:17:41Z</time></trkpt><trkpt lat="51.9782434311" lon="-2.1777762752"><ele>27.53</ele><time>2015-05-13T09:17:42Z</time></trkpt><trkpt lat="51.9783043675" lon="-2.1778422408"><ele>28.98</ele><time>2015-05-13T09:17:49Z</time></trkpt><trkpt lat="51.9783377275" lon="-2.1778530534"><ele>27.05</ele><time>2015-05-13T09:17:53Z</time></trkpt><trkpt lat="51.9783589337" lon="-2.1778469346"><ele>30.90</ele><time>2015-05-13T09:17:55Z</time></trkpt><trkpt lat="51.9783682376" lon="-2.1778478567"><ele>27.53</ele><time>2015-05-13T09:17:56Z</time></trkpt><trkpt lat="51.9784132484" lon="-2.1778868325"><ele>30.42</ele><time>2015-05-13T09:18:01Z</time></trkpt><trkpt lat="51.9784326945" lon="-2.1778994892"><ele>23.69</ele><time>2015-05-13T09:18:03Z</time></trkpt><trkpt lat="51.9784422498" lon="-2.1779051889"><ele>28.02</ele><time>2015-05-13T09:18:04Z</time></trkpt><trkpt lat="51.9784606062" lon="-2.1779183485"><ele>30.42</ele><time>2015-05-13T09:18:06Z</time></trkpt><trkpt lat="51.9784673955" lon="-2.1779230423"><ele>25.61</ele><time>2015-05-13T09:18:07Z</time></trkpt><trkpt lat="51.9784754422" lon="-2.1779290773"><ele>28.50</ele><time>2015-05-13T09:18:08Z</time></trkpt><trkpt lat="51.9784914516" lon="-2.1779479366"><ele>32.82</ele><time>2015-05-13T09:18:10Z</time></trkpt><trkpt lat="51.9784987438" lon="-2.1779561508"><ele>26.09</ele><time>2015-05-13T09:18:11Z</time></trkpt><trkpt lat="51.9785073772" lon="-2.1779671311"><ele>26.57</ele><time>2015-05-13T09:18:12Z</time></trkpt><trkpt lat="51.9785151724" lon="-2.1779729985"><ele>29.94</ele><time>2015-05-13T09:18:13Z</time></trkpt><trkpt lat="51.9785227161" lon="-2.1779801231"><ele>29.94</ele><time>2015-05-13T09:18:14Z</time></trkpt><trkpt lat="51.9785389770" lon="-2.1779968031"><ele>26.09</ele><time>2015-05-13T09:18:16Z</time></trkpt><trkpt lat="51.9785461854" lon="-2.1780099627"><ele>29.46</ele><time>2015-05-13T09:18:17Z</time></trkpt><trkpt lat="51.9785552379" lon="-2.1780183446"><ele>25.13</ele><time>2015-05-13T09:18:18Z</time></trkpt><trkpt lat="51.9785740972" lon="-2.1780449152"><ele>29.46</ele><time>2015-05-13T09:18:20Z</time></trkpt><trkpt lat="51.9785954710" lon="-2.1780617628"><ele>23.69</ele><time>2015-05-13T09:18:22Z</time></trkpt><trkpt lat="51.9786054455" lon="-2.1780719049"><ele>28.50</ele><time>2015-05-13T09:18:23Z</time></trkpt><trkpt lat="51.9786271546" lon="-2.1780954581"><ele>24.17</ele><time>2015-05-13T09:18:26Z</time></trkpt><trkpt lat="51.9786331058" lon="-2.1781032532"><ele>27.53</ele><time>2015-05-13T09:18:27Z</time></trkpt><trkpt lat="51.9786460977" lon="-2.1781147365"><ele>33.30</ele><time>2015-05-13T09:18:29Z</time></trkpt><trkpt lat="51.9786568265" lon="-2.1781234536"><ele>29.94</ele><time>2015-05-13T09:18:30Z</time></trkpt><trkpt lat="51.9786725007" lon="-2.1781414747"><ele>26.57</ele><time>2015-05-13T09:18:32Z</time></trkpt><trkpt lat="51.9786806311" lon="-2.1781541314"><ele>28.02</ele><time>2015-05-13T09:18:33Z</time></trkpt><trkpt lat="51.9786963891" lon="-2.1781784389"><ele>31.86</ele><time>2015-05-13T09:18:35Z</time></trkpt><trkpt lat="51.9787016697" lon="-2.1781863179"><ele>27.05</ele><time>2015-05-13T09:18:36Z</time></trkpt><trkpt lat="51.9787063636" lon="-2.1781964600"><ele>27.53</ele><time>2015-05-13T09:18:37Z</time></trkpt><trkpt lat="51.9787434954" lon="-2.1782582346"><ele>23.21</ele><time>2015-05-13T09:18:42Z</time></trkpt><trkpt lat="51.9787487760" lon="-2.1782731544"><ele>27.53</ele><time>2015-05-13T09:18:43Z</time></trkpt><trkpt lat="51.9787602592" lon="-2.1783007309"><ele>32.82</ele><time>2015-05-13T09:18:45Z</time></trkpt><trkpt lat="51.9787657913" lon="-2.1783116274"><ele>26.57</ele><time>2015-05-13T09:18:46Z</time></trkpt><trkpt lat="51.9787729159" lon="-2.1783200931"><ele>27.05</ele><time>2015-05-13T09:18:47Z</time></trkpt><trkpt lat="51.9787894282" lon="-2.1783392876"><ele>29.94</ele><time>2015-05-13T09:18:49Z</time></trkpt><trkpt lat="51.9788025878" lon="-2.1783568058"><ele>24.65</ele><time>2015-05-13T09:18:51Z</time></trkpt><trkpt lat="51.9788119756" lon="-2.1783599071"><ele>28.50</ele><time>2015-05-13T09:18:52Z</time></trkpt><trkpt lat="51.9788470957" lon="-2.1783868130"><ele>30.90</ele><time>2015-05-13T09:18:55Z</time></trkpt><trkpt lat="51.9788643625" lon="-2.1784085222"><ele>26.09</ele><time>2015-05-13T09:18:57Z</time></trkpt><trkpt lat="51.9788746722" lon="-2.1784423850"><ele>31.38</ele><time>2015-05-13T09:19:00Z</time></trkpt><trkpt lat="51.9788780250" lon="-2.1784645971"><ele>27.05</ele><time>2015-05-13T09:19:01Z</time></trkpt><trkpt lat="51.9788843952" lon="-2.1784854680"><ele>27.53</ele><time>2015-05-13T09:19:02Z</time></trkpt><trkpt lat="51.9788964652" lon="-2.1785132121"><ele>30.90</ele><time>2015-05-13T09:19:04Z</time></trkpt><trkpt lat="51.9789235387" lon="-2.1785485838"><ele>25.61</ele><time>2015-05-13T09:19:08Z</time></trkpt><trkpt lat="51.9789333455" lon="-2.1785607375"><ele>28.98</ele><time>2015-05-13T09:19:09Z</time></trkpt><trkpt lat="51.9789465051" lon="-2.1785818599"><ele>30.42</ele><time>2015-05-13T09:19:11Z</time></trkpt><trkpt lat="51.9789506961" lon="-2.1785899065"><ele>25.13</ele><time>2015-05-13T09:19:12Z</time></trkpt><trkpt lat="51.9789532945" lon="-2.1786023118"><ele>27.05</ele><time>2015-05-13T09:19:13Z</time></trkpt><trkpt lat="51.9789587427" lon="-2.1786197461"><ele>30.90</ele><time>2015-05-13T09:19:15Z</time></trkpt><trkpt lat="51.9789615925" lon="-2.1786316484"><ele>28.02</ele><time>2015-05-13T09:19:16Z</time></trkpt><trkpt lat="51.9789716508" lon="-2.1786561236"><ele>26.57</ele><time>2015-05-13T09:19:18Z</time></trkpt><trkpt lat="51.9790042564" lon="-2.1786847897"><ele>29.94</ele><time>2015-05-13T09:19:22Z</time></trkpt><trkpt lat="51.9790119678" lon="-2.1786993742"><ele>25.61</ele><time>2015-05-13T09:19:23Z</time></trkpt><trkpt lat="51.9790187571" lon="-2.1787169762"><ele>27.05</ele><time>2015-05-13T09:19:24Z</time></trkpt><trkpt lat="51.9790358562" lon="-2.1787515096"><ele>31.86</ele><time>2015-05-13T09:19:26Z</time></trkpt><trkpt lat="51.9790463336" lon="-2.1787657589"><ele>28.50</ele><time>2015-05-13T09:19:27Z</time></trkpt><trkpt lat="51.9790574815" lon="-2.1788002923"><ele>27.53</ele><time>2015-05-13T09:19:29Z</time></trkpt><trkpt lat="51.9790657796" lon="-2.1788325626"><ele>28.50</ele><time>2015-05-13T09:19:31Z</time></trkpt><trkpt lat="51.9790749159" lon="-2.1788775735"><ele>24.65</ele><time>2015-05-13T09:19:34Z</time></trkpt><trkpt lat="51.9790785201" lon="-2.1788924094"><ele>27.53</ele><time>2015-05-13T09:19:35Z</time></trkpt><trkpt lat="51.9791336730" lon="-2.1790147852"><ele>30.90</ele><time>2015-05-13T09:19:47Z</time></trkpt><trkpt lat="51.9791352656" lon="-2.1790311299"><ele>27.05</ele><time>2015-05-13T09:19:48Z</time></trkpt><trkpt lat="51.9791328348" lon="-2.1790966764"><ele>29.94</ele><time>2015-05-13T09:19:52Z</time></trkpt><trkpt lat="51.9791317452" lon="-2.1791120991"><ele>26.09</ele><time>2015-05-13T09:19:53Z</time></trkpt><trkpt lat="51.9791292306" lon="-2.1791867819"><ele>29.46</ele><time>2015-05-13T09:19:58Z</time></trkpt><trkpt lat="51.9791296497" lon="-2.1792032104"><ele>25.13</ele><time>2015-05-13T09:19:59Z</time></trkpt><trkpt lat="51.9791278895" lon="-2.1792190522"><ele>26.09</ele><time>2015-05-13T09:20:00Z</time></trkpt><trkpt lat="51.9791271351" lon="-2.1792421862"><ele>29.94</ele><time>2015-05-13T09:20:02Z</time></trkpt><trkpt lat="51.9791254587" lon="-2.1792496461"><ele>29.46</ele><time>2015-05-13T09:20:03Z</time></trkpt><trkpt lat="51.9791242853" lon="-2.1792581119"><ele>25.61</ele><time>2015-05-13T09:20:04Z</time></trkpt><trkpt lat="51.9791164901" lon="-2.1792861912"><ele>28.02</ele><time>2015-05-13T09:20:05Z</time></trkpt><trkpt lat="51.9791023247" lon="-2.1793826669"><ele>23.69</ele><time>2015-05-13T09:20:10Z</time></trkpt><trkpt lat="51.9791002292" lon="-2.1794032026"><ele>27.05</ele><time>2015-05-13T09:20:11Z</time></trkpt><trkpt lat="51.9790931884" lon="-2.1794604510"><ele>20.81</ele><time>2015-05-13T09:20:15Z</time></trkpt><trkpt lat="51.9790918473" lon="-2.1794715989"><ele>27.05</ele><time>2015-05-13T09:20:16Z</time></trkpt><trkpt lat="51.9790915959" lon="-2.1794855129"><ele>29.46</ele><time>2015-05-13T09:20:17Z</time></trkpt><trkpt lat="51.9790915959" lon="-2.1795166936"><ele>25.13</ele><time>2015-05-13T09:20:19Z</time></trkpt><trkpt lat="51.9790933561" lon="-2.1795767918"><ele>28.50</ele><time>2015-05-13T09:20:22Z</time></trkpt><trkpt lat="51.9790848065" lon="-2.1796261612"><ele>23.69</ele><time>2015-05-13T09:20:25Z</time></trkpt><trkpt lat="51.9790801127" lon="-2.1796378121"><ele>26.09</ele><time>2015-05-13T09:20:26Z</time></trkpt><trkpt lat="51.9790717307" lon="-2.1796637122"><ele>29.46</ele><time>2015-05-13T09:20:28Z</time></trkpt><trkpt lat="51.9790675398" lon="-2.1796777099"><ele>24.17</ele><time>2015-05-13T09:20:29Z</time></trkpt><trkpt lat="51.9790627621" lon="-2.1796908695"><ele>26.09</ele><time>2015-05-13T09:20:30Z</time></trkpt><trkpt lat="51.9790367782" lon="-2.1797285043"><ele>26.09</ele><time>2015-05-13T09:20:34Z</time></trkpt><trkpt lat="51.9790313300" lon="-2.1797362156"><ele>22.25</ele><time>2015-05-13T09:20:35Z</time></trkpt><trkpt lat="51.9790293183" lon="-2.1797430888"><ele>25.61</ele><time>2015-05-13T09:20:36Z</time></trkpt><trkpt lat="51.9790426455" lon="-2.1797570866"><ele>22.25</ele><time>2015-05-13T09:20:39Z</time></trkpt><trkpt lat="51.9790485129" lon="-2.1797652170"><ele>25.61</ele><time>2015-05-13T09:20:40Z</time></trkpt><trkpt lat="51.9790627621" lon="-2.1797817294"><ele>26.57</ele><time>2015-05-13T09:20:42Z</time></trkpt><trkpt lat="51.9790812023" lon="-2.1798106469"><ele>23.21</ele><time>2015-05-13T09:20:46Z</time></trkpt><trkpt lat="51.9790835492" lon="-2.1798211243"><ele>27.53</ele><time>2015-05-13T09:20:47Z</time></trkpt><trkpt lat="51.9790998101" lon="-2.1798834018"><ele>24.17</ele><time>2015-05-13T09:20:52Z</time></trkpt><trkpt lat="51.9791085273" lon="-2.1798937116"><ele>27.53</ele><time>2015-05-13T09:20:53Z</time></trkpt><trkpt lat="51.9791186694" lon="-2.1799005847"><ele>27.05</ele><time>2015-05-13T09:20:54Z</time></trkpt><trkpt lat="51.9791330863" lon="-2.1799187735"><ele>20.81</ele><time>2015-05-13T09:20:56Z</time></trkpt><trkpt lat="51.9791385345" lon="-2.1799295023"><ele>26.57</ele><time>2015-05-13T09:20:57Z</time></trkpt><trkpt lat="51.9791869819" lon="-2.1799769439"><ele>24.65</ele><time>2015-05-13T09:21:03Z</time></trkpt><trkpt lat="51.9792003930" lon="-2.1799952164"><ele>28.98</ele><time>2015-05-13T09:21:05Z</time></trkpt><trkpt lat="51.9792149775" lon="-2.1800213680"><ele>21.77</ele><time>2015-05-13T09:21:07Z</time></trkpt><trkpt lat="51.9792217668" lon="-2.1800346952"><ele>25.13</ele><time>2015-05-13T09:21:08Z</time></trkpt><trkpt lat="51.9792333338" lon="-2.1800567396"><ele>26.09</ele><time>2015-05-13T09:21:10Z</time></trkpt><trkpt lat="51.9793643430" lon="-2.1802857332"><ele>24.65</ele><time>2015-05-13T09:21:31Z</time></trkpt><trkpt lat="51.9793861359" lon="-2.1803487651"><ele>29.94</ele><time>2015-05-13T09:21:47Z</time></trkpt><trkpt lat="51.9793863036" lon="-2.1803485975"><ele>25.13</ele><time>2015-05-13T09:21:48Z</time></trkpt><trkpt lat="51.9793930091" lon="-2.1803563926"><ele>23.21</ele><time>2015-05-13T09:21:49Z</time></trkpt><trkpt lat="51.9794149697" lon="-2.1803703066"><ele>30.90</ele><time>2015-05-13T09:21:51Z</time></trkpt><trkpt lat="51.9794236869" lon="-2.1803774312"><ele>22.73</ele><time>2015-05-13T09:21:52Z</time></trkpt><trkpt lat="51.9794324879" lon="-2.1803871542"><ele>22.73</ele><time>2015-05-13T09:21:53Z</time></trkpt><trkpt lat="51.9794386066" lon="-2.1804020740"><ele>27.05</ele><time>2015-05-13T09:21:54Z</time></trkpt><trkpt lat="51.9794415403" lon="-2.1804211847"><ele>26.09</ele><time>2015-05-13T09:21:55Z</time></trkpt><trkpt lat="51.9794438034" lon="-2.1804387867"><ele>19.36</ele><time>2015-05-13T09:21:56Z</time></trkpt><trkpt lat="51.9794451445" lon="-2.1804559696"><ele>25.61</ele><time>2015-05-13T09:21:57Z</time></trkpt><trkpt lat="51.9794490840" lon="-2.1804867312"><ele>26.57</ele><time>2015-05-13T09:21:59Z</time></trkpt><trkpt lat="51.9794551190" lon="-2.1805081051"><ele>23.21</ele><time>2015-05-13T09:22:01Z</time></trkpt><trkpt lat="51.9794578850" lon="-2.1805210970"><ele>24.65</ele><time>2015-05-13T09:22:02Z</time></trkpt><trkpt lat="51.9794813544" lon="-2.1806843765"><ele>26.57</ele><time>2015-05-13T09:22:12Z</time></trkpt><trkpt lat="51.9795085955" lon="-2.1808179002"><ele>21.77</ele><time>2015-05-13T09:22:19Z</time></trkpt><trkpt lat="51.9795132056" lon="-2.1808330715"><ele>22.73</ele><time>2015-05-13T09:22:20Z</time></trkpt><trkpt lat="51.9795183185" lon="-2.1808428783"><ele>26.09</ele><time>2015-05-13T09:22:21Z</time></trkpt><trkpt lat="51.9795185700" lon="-2.1808580495"><ele>29.94</ele><time>2015-05-13T09:22:22Z</time></trkpt><trkpt lat="51.9795203302" lon="-2.1808726341"><ele>22.25</ele><time>2015-05-13T09:22:23Z</time></trkpt><trkpt lat="51.9795244373" lon="-2.1808805969"><ele>23.21</ele><time>2015-05-13T09:22:24Z</time></trkpt><trkpt lat="51.9795311429" lon="-2.1809013002"><ele>27.05</ele><time>2015-05-13T09:22:26Z</time></trkpt><trkpt lat="51.9795369264" lon="-2.1809069160"><ele>22.73</ele><time>2015-05-13T09:22:27Z</time></trkpt><trkpt lat="51.9795425422" lon="-2.1809165552"><ele>26.09</ele><time>2015-05-13T09:22:28Z</time></trkpt><trkpt lat="51.9795505889" lon="-2.1809278708"><ele>21.29</ele><time>2015-05-13T09:22:29Z</time></trkpt><trkpt lat="51.9795607310" lon="-2.1809381805"><ele>24.65</ele><time>2015-05-13T09:22:30Z</time></trkpt><trkpt lat="51.9795719627" lon="-2.1809570398"><ele>25.61</ele><time>2015-05-13T09:22:32Z</time></trkpt><trkpt lat="51.9795795064" lon="-2.1809651703"><ele>20.81</ele><time>2015-05-13T09:22:33Z</time></trkpt><trkpt lat="51.9795853738" lon="-2.1809733007"><ele>25.13</ele><time>2015-05-13T09:22:34Z</time></trkpt><trkpt lat="51.9795992877" lon="-2.1809965186"><ele>26.09</ele><time>2015-05-13T09:22:36Z</time></trkpt><trkpt lat="51.9796046522" lon="-2.1810059063"><ele>18.88</ele><time>2015-05-13T09:22:37Z</time></trkpt><trkpt lat="51.9796077535" lon="-2.1810196526"><ele>24.65</ele><time>2015-05-13T09:22:38Z</time></trkpt><trkpt lat="51.9796176441" lon="-2.1810513362"><ele>25.61</ele><time>2015-05-13T09:22:40Z</time></trkpt><trkpt lat="51.9796286244" lon="-2.1811054833"><ele>20.32</ele><time>2015-05-13T09:22:43Z</time></trkpt><trkpt lat="51.9796307199" lon="-2.1811205707"><ele>24.17</ele><time>2015-05-13T09:22:44Z</time></trkpt><trkpt lat="51.9796375930" lon="-2.1811589599"><ele>28.98</ele><time>2015-05-13T09:22:46Z</time></trkpt><trkpt lat="51.9796408620" lon="-2.1811815910"><ele>23.69</ele><time>2015-05-13T09:22:47Z</time></trkpt><trkpt lat="51.9796438795" lon="-2.1812546812"><ele>25.61</ele><time>2015-05-13T09:22:51Z</time></trkpt><trkpt lat="51.9796440471" lon="-2.1812668350"><ele>19.36</ele><time>2015-05-13T09:22:52Z</time></trkpt><trkpt lat="51.9796456397" lon="-2.1812815871"><ele>24.65</ele><time>2015-05-13T09:22:53Z</time></trkpt><trkpt lat="51.9796483219" lon="-2.1813010331"><ele>20.32</ele><time>2015-05-13T09:22:54Z</time></trkpt><trkpt lat="51.9796527643" lon="-2.1813300345"><ele>25.13</ele><time>2015-05-13T09:22:56Z</time></trkpt><trkpt lat="51.9796590507" lon="-2.1813804097"><ele>21.29</ele><time>2015-05-13T09:22:59Z</time></trkpt><trkpt lat="51.9796624035" lon="-2.1814208943"><ele>26.09</ele><time>2015-05-13T09:23:01Z</time></trkpt><trkpt lat="51.9796653371" lon="-2.1814637259"><ele>20.81</ele><time>2015-05-13T09:23:03Z</time></trkpt><trkpt lat="51.9796511717" lon="-2.1815244108"><ele>25.13</ele><time>2015-05-13T09:23:07Z</time></trkpt><trkpt lat="51.9796510041" lon="-2.1815340500"><ele>19.84</ele><time>2015-05-13T09:23:08Z</time></trkpt><trkpt lat="51.9796499982" lon="-2.1815417614"><ele>23.69</ele><time>2015-05-13T09:23:09Z</time></trkpt><trkpt lat="51.9796284568" lon="-2.1815610398"><ele>18.88</ele><time>2015-05-13T09:23:15Z</time></trkpt><trkpt lat="51.9796262775" lon="-2.1815631352"><ele>26.57</ele><time>2015-05-13T09:23:16Z</time></trkpt><trkpt lat="51.9796047360" lon="-2.1815809887"><ele>20.32</ele><time>2015-05-13T09:23:19Z</time></trkpt><trkpt lat="51.9795984495" lon="-2.1815851796"><ele>23.69</ele><time>2015-05-13T09:23:20Z</time></trkpt><trkpt lat="51.9795769081" lon="-2.1816104092"><ele>18.88</ele><time>2015-05-13T09:23:23Z</time></trkpt><trkpt lat="51.9795688614" lon="-2.1816195454"><ele>24.17</ele><time>2015-05-13T09:23:24Z</time></trkpt><trkpt lat="51.9795562886" lon="-2.1816311963"><ele>20.32</ele><time>2015-05-13T09:23:26Z</time></trkpt><trkpt lat="51.9795555342" lon="-2.1816648077"><ele>18.88</ele><time>2015-05-13T09:23:29Z</time></trkpt><trkpt lat="51.9795400277" lon="-2.1816558391"><ele>24.65</ele><time>2015-05-13T09:23:30Z</time></trkpt><trkpt lat="51.9795251917" lon="-2.1816399973"><ele>27.53</ele><time>2015-05-13T09:23:31Z</time></trkpt><trkpt lat="51.9794865511" lon="-2.1817044541"><ele>27.53</ele><time>2015-05-13T09:23:39Z</time></trkpt><trkpt lat="51.9794815220" lon="-2.1817109920"><ele>20.81</ele><time>2015-05-13T09:23:40Z</time></trkpt><trkpt lat="51.9794723857" lon="-2.1817145962"><ele>22.25</ele><time>2015-05-13T09:23:41Z</time></trkpt><trkpt lat="51.9794609863" lon="-2.1817258280"><ele>28.50</ele><time>2015-05-13T09:23:43Z</time></trkpt><trkpt lat="51.9794552028" lon="-2.1817288455"><ele>17.92</ele><time>2015-05-13T09:23:44Z</time></trkpt><trkpt lat="51.9794484135" lon="-2.1817341261"><ele>24.65</ele><time>2015-05-13T09:23:45Z</time></trkpt><trkpt lat="51.9794382714" lon="-2.1817419212"><ele>29.46</ele><time>2015-05-13T09:23:46Z</time></trkpt><trkpt lat="51.9794299733" lon="-2.1817475371"><ele>18.40</ele><time>2015-05-13T09:23:47Z</time></trkpt><trkpt lat="51.9794184063" lon="-2.1817469504"><ele>24.17</ele><time>2015-05-13T09:23:48Z</time></trkpt><trkpt lat="51.9794000499" lon="-2.1817544103"><ele>25.61</ele><time>2015-05-13T09:23:50Z</time></trkpt><trkpt lat="51.9793926738" lon="-2.1817593556"><ele>21.29</ele><time>2015-05-13T09:23:51Z</time></trkpt><trkpt lat="51.9793861359" lon="-2.1817634627"><ele>25.13</ele><time>2015-05-13T09:23:52Z</time></trkpt><trkpt lat="51.9793710485" lon="-2.1818119101"><ele>20.81</ele><time>2015-05-13T09:23:56Z</time></trkpt><trkpt lat="51.9793666061" lon="-2.1818210464"><ele>24.65</ele><time>2015-05-13T09:23:57Z</time></trkpt><trkpt lat="51.9793405384" lon="-2.1818330325"><ele>21.29</ele><time>2015-05-13T09:24:00Z</time></trkpt><trkpt lat="51.9793293905" lon="-2.1818310209"><ele>25.61</ele><time>2015-05-13T09:24:01Z</time></trkpt><trkpt lat="51.9793174881" lon="-2.1818321943"><ele>29.46</ele><time>2015-05-13T09:24:02Z</time></trkpt><trkpt lat="51.9793077651" lon="-2.1818348765"><ele>19.84</ele><time>2015-05-13T09:24:03Z</time></trkpt><trkpt lat="51.9792996347" lon="-2.1818399057"><ele>24.65</ele><time>2015-05-13T09:24:04Z</time></trkpt><trkpt lat="51.9792930968" lon="-2.1818483714"><ele>21.29</ele><time>2015-05-13T09:24:05Z</time></trkpt><trkpt lat="51.9792825356" lon="-2.1818545740"><ele>26.09</ele><time>2015-05-13T09:24:06Z</time></trkpt><trkpt lat="51.9792728964" lon="-2.1818587650"><ele>30.42</ele><time>2015-05-13T09:24:07Z</time></trkpt><trkpt lat="51.9792649336" lon="-2.1818633750"><ele>19.84</ele><time>2015-05-13T09:24:08Z</time></trkpt><trkpt lat="51.9792596530" lon="-2.1818747744"><ele>25.61</ele><time>2015-05-13T09:24:09Z</time></trkpt><trkpt lat="51.9792417157" lon="-2.1819064580"><ele>23.69</ele><time>2015-05-13T09:24:12Z</time></trkpt><trkpt lat="51.9792374410" lon="-2.1819140855"><ele>27.05</ele><time>2015-05-13T09:24:13Z</time></trkpt><trkpt lat="51.9792315736" lon="-2.1819156781"><ele>25.13</ele><time>2015-05-13T09:24:14Z</time></trkpt><trkpt lat="51.9791857246" lon="-2.1819034405"><ele>28.50</ele><time>2015-05-13T09:24:18Z</time></trkpt><trkpt lat="51.9791748282" lon="-2.1818998363"><ele>22.73</ele><time>2015-05-13T09:24:19Z</time></trkpt><trkpt lat="51.9791577291" lon="-2.1819077991"><ele>26.57</ele><time>2015-05-13T09:24:22Z</time></trkpt><trkpt lat="51.9791423902" lon="-2.1819193661"><ele>21.29</ele><time>2015-05-13T09:24:24Z</time></trkpt><trkpt lat="51.9791340921" lon="-2.1819274127"><ele>24.17</ele><time>2015-05-13T09:24:25Z</time></trkpt><trkpt lat="51.9791247044" lon="-2.1819354594"><ele>27.05</ele><time>2015-05-13T09:24:26Z</time></trkpt><trkpt lat="51.9791097846" lon="-2.1819552407"><ele>21.29</ele><time>2015-05-13T09:24:28Z</time></trkpt><trkpt lat="51.9791030791" lon="-2.1819687355"><ele>25.13</ele><time>2015-05-13T09:24:29Z</time></trkpt><trkpt lat="51.9790944457" lon="-2.1820000838"><ele>28.50</ele><time>2015-05-13T09:24:31Z</time></trkpt><trkpt lat="51.9790896680" lon="-2.1820131596"><ele>21.29</ele><time>2015-05-13T09:24:32Z</time></trkpt><trkpt lat="51.9790818729" lon="-2.1820245590"><ele>25.13</ele><time>2015-05-13T09:24:33Z</time></trkpt><trkpt lat="51.9790737424" lon="-2.1820362099"><ele>21.77</ele><time>2015-05-13T09:24:34Z</time></trkpt><trkpt lat="51.9790641032" lon="-2.1820431668"><ele>25.13</ele><time>2015-05-13T09:24:35Z</time></trkpt><trkpt lat="51.9790464174" lon="-2.1820589248"><ele>30.90</ele><time>2015-05-13T09:24:37Z</time></trkpt><trkpt lat="51.9790371135" lon="-2.1820647921"><ele>23.21</ele><time>2015-05-13T09:24:38Z</time></trkpt><trkpt lat="51.9790000655" lon="-2.1820790414"><ele>27.05</ele><time>2015-05-13T09:24:41Z</time></trkpt><trkpt lat="51.9789770152" lon="-2.1820968110"><ele>20.32</ele><time>2015-05-13T09:24:43Z</time></trkpt><trkpt lat="51.9789647777" lon="-2.1820995770"><ele>26.09</ele><time>2015-05-13T09:24:44Z</time></trkpt><trkpt lat="51.9789382908" lon="-2.1820922010"><ele>27.05</ele><time>2015-05-13T09:24:46Z</time></trkpt><trkpt lat="51.9789240416" lon="-2.1820819750"><ele>30.90</ele><time>2015-05-13T09:24:47Z</time></trkpt><trkpt lat="51.9789142348" lon="-2.1820783708"><ele>25.61</ele><time>2015-05-13T09:24:48Z</time></trkpt><trkpt lat="51.9788806234" lon="-2.1820692345"><ele>30.90</ele><time>2015-05-13T09:24:51Z</time></trkpt><trkpt lat="51.9788708165" lon="-2.1820697375"><ele>21.77</ele><time>2015-05-13T09:24:52Z</time></trkpt><trkpt lat="51.9788634405" lon="-2.1820725873"><ele>25.13</ele><time>2015-05-13T09:24:53Z</time></trkpt><trkpt lat="51.9788491912" lon="-2.1820784546"><ele>28.98</ele><time>2015-05-13T09:24:55Z</time></trkpt><trkpt lat="51.9788417313" lon="-2.1820817236"><ele>25.13</ele><time>2015-05-13T09:24:56Z</time></trkpt><trkpt lat="51.9788078684" lon="-2.1820875909"><ele>28.50</ele><time>2015-05-13T09:24:59Z</time></trkpt><trkpt lat="51.9787638634" lon="-2.1820815559"><ele>23.69</ele><time>2015-05-13T09:25:02Z</time></trkpt><trkpt lat="51.9787511230" lon="-2.1820748504"><ele>27.05</ele><time>2015-05-13T09:25:03Z</time></trkpt><trkpt lat="51.9787150808" lon="-2.1820847411"><ele>27.53</ele><time>2015-05-13T09:25:07Z</time></trkpt><trkpt lat="51.9786696509" lon="-2.1820787899"><ele>22.25</ele><time>2015-05-13T09:25:11Z</time></trkpt><trkpt lat="51.9786618557" lon="-2.1820844058"><ele>26.09</ele><time>2015-05-13T09:25:12Z</time></trkpt><trkpt lat="51.9786473550" lon="-2.1821049415"><ele>29.46</ele><time>2015-05-13T09:25:14Z</time></trkpt><trkpt lat="51.9786398951" lon="-2.1821077075"><ele>22.73</ele><time>2015-05-13T09:25:15Z</time></trkpt><trkpt lat="51.9786329381" lon="-2.1821138263"><ele>27.53</ele><time>2015-05-13T09:25:16Z</time></trkpt><trkpt lat="51.9786114804" lon="-2.1821326017"><ele>23.21</ele><time>2015-05-13T09:25:19Z</time></trkpt><trkpt lat="51.9786014222" lon="-2.1821341105"><ele>27.05</ele><time>2015-05-13T09:25:20Z</time></trkpt><trkpt lat="51.9785572495" lon="-2.1821532212"><ele>24.17</ele><time>2015-05-13T09:25:25Z</time></trkpt><trkpt lat="51.9785469398" lon="-2.1821567416"><ele>27.53</ele><time>2015-05-13T09:25:26Z</time></trkpt><trkpt lat="51.9785345346" lon="-2.1821790375"><ele>28.50</ele><time>2015-05-13T09:25:28Z</time></trkpt><trkpt lat="51.9785247277" lon="-2.1821838990"><ele>21.77</ele><time>2015-05-13T09:25:29Z</time></trkpt><trkpt lat="51.9785177708" lon="-2.1821894310"><ele>27.53</ele><time>2015-05-13T09:25:30Z</time></trkpt><trkpt lat="51.9784965646" lon="-2.1821968071"><ele>30.42</ele><time>2015-05-13T09:25:32Z</time></trkpt><trkpt lat="51.9784858357" lon="-2.1822001599"><ele>24.65</ele><time>2015-05-13T09:25:33Z</time></trkpt><trkpt lat="51.9784502964" lon="-2.1822308376"><ele>29.46</ele><time>2015-05-13T09:25:37Z</time></trkpt><trkpt lat="51.9784419984" lon="-2.1822388005"><ele>29.46</ele><time>2015-05-13T09:25:38Z</time></trkpt><trkpt lat="51.9784233905" lon="-2.1822283231"><ele>25.61</ele><time>2015-05-13T09:25:39Z</time></trkpt><trkpt lat="51.9784099795" lon="-2.1822288260"><ele>27.05</ele><time>2015-05-13T09:25:40Z</time></trkpt><trkpt lat="51.9783884380" lon="-2.1822408121"><ele>32.34</ele><time>2015-05-13T09:25:42Z</time></trkpt><trkpt lat="51.9783811457" lon="-2.1822477691"><ele>26.09</ele><time>2015-05-13T09:25:43Z</time></trkpt><trkpt lat="51.9783748593" lon="-2.1822513733"><ele>26.09</ele><time>2015-05-13T09:25:44Z</time></trkpt><trkpt lat="51.9783534855" lon="-2.1822476853"><ele>30.90</ele><time>2015-05-13T09:25:46Z</time></trkpt><trkpt lat="51.9783308543" lon="-2.1822357830"><ele>27.05</ele><time>2015-05-13T09:25:48Z</time></trkpt><trkpt lat="51.9783229753" lon="-2.1822312567"><ele>23.21</ele><time>2015-05-13T09:25:49Z</time></trkpt><trkpt lat="51.9783144258" lon="-2.1822295804"><ele>28.50</ele><time>2015-05-13T09:25:50Z</time></trkpt><trkpt lat="51.9782831613" lon="-2.1822396386"><ele>22.25</ele><time>2015-05-13T09:25:53Z</time></trkpt><trkpt lat="51.9782725163" lon="-2.1822396386"><ele>27.53</ele><time>2015-05-13T09:25:54Z</time></trkpt><trkpt lat="51.9782332890" lon="-2.1822453383"><ele>25.61</ele><time>2015-05-13T09:25:58Z</time></trkpt><trkpt lat="51.9782251585" lon="-2.1822450031"><ele>29.46</ele><time>2015-05-13T09:25:59Z</time></trkpt><trkpt lat="51.9782165252" lon="-2.1822503675"><ele>28.02</ele><time>2015-05-13T09:26:00Z</time></trkpt><trkpt lat="51.9782080594" lon="-2.1822538879"><ele>31.38</ele><time>2015-05-13T09:26:01Z</time></trkpt><trkpt lat="51.9782008510" lon="-2.1822527982"><ele>27.53</ele><time>2015-05-13T09:26:02Z</time></trkpt><trkpt lat="51.9781771302" lon="-2.1822628565"><ele>32.34</ele><time>2015-05-13T09:26:05Z</time></trkpt><trkpt lat="51.9781657308" lon="-2.1822631080"><ele>25.13</ele><time>2015-05-13T09:26:06Z</time></trkpt><trkpt lat="51.9781533256" lon="-2.1822641976"><ele>25.61</ele><time>2015-05-13T09:26:07Z</time></trkpt><trkpt lat="51.9781405851" lon="-2.1822679695"><ele>28.98</ele><time>2015-05-13T09:26:08Z</time></trkpt><trkpt lat="51.9781011902" lon="-2.1822883375"><ele>25.13</ele><time>2015-05-13T09:26:12Z</time></trkpt><trkpt lat="51.9780907128" lon="-2.1822975576"><ele>28.50</ele><time>2015-05-13T09:26:13Z</time></trkpt><trkpt lat="51.9780823309" lon="-2.1823014971"><ele>23.69</ele><time>2015-05-13T09:26:14Z</time></trkpt><trkpt lat="51.9780752901" lon="-2.1823073644"><ele>30.42</ele><time>2015-05-13T09:26:15Z</time></trkpt><trkpt lat="51.9780675787" lon="-2.1823135670"><ele>25.13</ele><time>2015-05-13T09:26:16Z</time></trkpt><trkpt lat="51.9780532457" lon="-2.1823196020"><ele>30.90</ele><time>2015-05-13T09:26:18Z</time></trkpt><trkpt lat="51.9780457020" lon="-2.1823180933"><ele>26.57</ele><time>2015-05-13T09:26:19Z</time></trkpt><trkpt lat="51.9780354761" lon="-2.1823242120"><ele>29.46</ele><time>2015-05-13T09:26:21Z</time></trkpt><trkpt lat="51.9780264236" lon="-2.1823335998"><ele>24.65</ele><time>2015-05-13T09:26:31Z</time></trkpt><trkpt lat="51.9780213945" lon="-2.1823362820"><ele>28.02</ele><time>2015-05-13T09:26:32Z</time></trkpt><trkpt lat="51.9780177902" lon="-2.1823461726"><ele>31.38</ele><time>2015-05-13T09:26:43Z</time></trkpt><trkpt lat="51.9780134317" lon="-2.1823471785"><ele>27.05</ele><time>2015-05-13T09:26:44Z</time></trkpt><trkpt lat="51.9780079834" lon="-2.1823479328"><ele>30.42</ele><time>2015-05-13T09:26:45Z</time></trkpt><trkpt lat="51.9780012779" lon="-2.1823470946"><ele>23.69</ele><time>2015-05-13T09:26:46Z</time></trkpt><trkpt lat="51.9779922254" lon="-2.1823451668"><ele>29.46</ele><time>2015-05-13T09:26:47Z</time></trkpt><trkpt lat="51.9779740367" lon="-2.1823491063"><ele>22.25</ele><time>2015-05-13T09:26:49Z</time></trkpt><trkpt lat="51.9779650681" lon="-2.1823452506"><ele>28.02</ele><time>2015-05-13T09:26:50Z</time></trkpt><trkpt lat="51.9779559318" lon="-2.1823465079"><ele>33.30</ele><time>2015-05-13T09:26:51Z</time></trkpt><trkpt lat="51.9779485557" lon="-2.1823470946"><ele>29.46</ele><time>2015-05-13T09:26:52Z</time></trkpt><trkpt lat="51.9779325463" lon="-2.1823558956"><ele>23.69</ele><time>2015-05-13T09:26:54Z</time></trkpt><trkpt lat="51.9779219851" lon="-2.1823605057"><ele>27.53</ele><time>2015-05-13T09:26:55Z</time></trkpt><trkpt lat="51.9778861105" lon="-2.1823683009"><ele>21.29</ele><time>2015-05-13T09:26:58Z</time></trkpt><trkpt lat="51.9778772257" lon="-2.1823755093"><ele>28.50</ele><time>2015-05-13T09:26:59Z</time></trkpt><trkpt lat="51.9778652396" lon="-2.1823785268"><ele>31.86</ele><time>2015-05-13T09:27:00Z</time></trkpt><trkpt lat="51.9778535888" lon="-2.1823813766"><ele>26.57</ele><time>2015-05-13T09:27:01Z</time></trkpt><trkpt lat="51.9778219052" lon="-2.1823927760"><ele>35.71</ele><time>2015-05-13T09:27:05Z</time></trkpt><trkpt lat="51.9778133556" lon="-2.1823965479"><ele>20.32</ele><time>2015-05-13T09:27:06Z</time></trkpt><trkpt lat="51.9778052252" lon="-2.1824019123"><ele>27.05</ele><time>2015-05-13T09:27:07Z</time></trkpt><trkpt lat="51.9777960889" lon="-2.1824061032"><ele>30.42</ele><time>2015-05-13T09:27:08Z</time></trkpt><trkpt lat="51.9777960889" lon="-2.1824077796"><ele>28.02</ele><time>2015-05-13T09:27:09Z</time></trkpt><trkpt lat="51.9778084103" lon="-2.1824377868"><ele>23.69</ele><time>2015-05-13T09:27:31Z</time></trkpt><trkpt lat="51.9778083265" lon="-2.1824375354"><ele>28.98</ele><time>2015-05-13T09:27:32Z</time></trkpt><trkpt lat="51.9778022077" lon="-2.1824444085"><ele>33.30</ele><time>2015-05-13T09:27:33Z</time></trkpt><trkpt lat="51.9777946640" lon="-2.1824502759"><ele>23.69</ele><time>2015-05-13T09:27:34Z</time></trkpt><trkpt lat="51.9777882099" lon="-2.1824557241"><ele>27.53</ele><time>2015-05-13T09:27:35Z</time></trkpt><trkpt lat="51.9777778164" lon="-2.1824737452"><ele>32.82</ele><time>2015-05-13T09:27:37Z</time></trkpt><trkpt lat="51.9777753856" lon="-2.1824842226"><ele>24.17</ele><time>2015-05-13T09:27:38Z</time></trkpt><trkpt lat="51.9777495693" lon="-2.1825309098"><ele>33.78</ele><time>2015-05-13T09:27:42Z</time></trkpt><trkpt lat="51.9777405169" lon="-2.1825392079"><ele>22.25</ele><time>2015-05-13T09:27:43Z</time></trkpt><trkpt lat="51.9777330570" lon="-2.1825470030"><ele>27.05</ele><time>2015-05-13T09:27:44Z</time></trkpt><trkpt lat="51.9777255971" lon="-2.1825515293"><ele>30.90</ele><time>2015-05-13T09:27:45Z</time></trkpt><trkpt lat="51.9777198974" lon="-2.1825584862"><ele>30.42</ele><time>2015-05-13T09:27:46Z</time></trkpt><trkpt lat="51.9777134433" lon="-2.1825625934"><ele>25.13</ele><time>2015-05-13T09:27:47Z</time></trkpt><trkpt lat="51.9777049776" lon="-2.1825665329"><ele>27.53</ele><time>2015-05-13T09:27:48Z</time></trkpt><trkpt lat="51.9776960928" lon="-2.1825693827"><ele>31.38</ele><time>2015-05-13T09:27:49Z</time></trkpt><trkpt lat="51.9776877109" lon="-2.1825745795"><ele>29.94</ele><time>2015-05-13T09:27:50Z</time></trkpt><trkpt lat="51.9776779041" lon="-2.1825793572"><ele>24.65</ele><time>2015-05-13T09:27:51Z</time></trkpt><trkpt lat="51.9776686840" lon="-2.1825856436"><ele>29.46</ele><time>2015-05-13T09:27:52Z</time></trkpt><trkpt lat="51.9776599668" lon="-2.1825953666"><ele>24.65</ele><time>2015-05-13T09:27:53Z</time></trkpt><trkpt lat="51.9776292890" lon="-2.1826092806"><ele>24.65</ele><time>2015-05-13T09:27:57Z</time></trkpt><trkpt lat="51.9776199013" lon="-2.1826101188"><ele>28.02</ele><time>2015-05-13T09:27:58Z</time></trkpt><trkpt lat="51.9775991980" lon="-2.1826198418"><ele>30.90</ele><time>2015-05-13T09:28:00Z</time></trkpt><trkpt lat="51.9775870442" lon="-2.1826153994"><ele>21.29</ele><time>2015-05-13T09:28:01Z</time></trkpt><trkpt lat="51.9775740523" lon="-2.1826094482"><ele>27.05</ele><time>2015-05-13T09:28:02Z</time></trkpt><trkpt lat="51.9775536004" lon="-2.1826153155"><ele>32.34</ele><time>2015-05-13T09:28:04Z</time></trkpt><trkpt lat="51.9775442127" lon="-2.1826254576"><ele>27.05</ele><time>2015-05-13T09:28:06Z</time></trkpt><trkpt lat="51.9775430392" lon="-2.1826273855"><ele>31.38</ele><time>2015-05-13T09:28:07Z</time></trkpt><trkpt lat="51.9775428716" lon="-2.1826278046"><ele>27.53</ele><time>2015-05-13T09:28:08Z</time></trkpt><trkpt lat="51.9775307178" lon="-2.1826084424"><ele>31.86</ele><time>2015-05-13T09:28:15Z</time></trkpt><trkpt lat="51.9775251020" lon="-2.1825918462"><ele>27.05</ele><time>2015-05-13T09:28:16Z</time></trkpt><trkpt lat="51.9774629083" lon="-2.1824908443"><ele>28.02</ele><time>2015-05-13T09:28:22Z</time></trkpt><trkpt lat="51.9774244353" lon="-2.1824377868"><ele>29.46</ele><time>2015-05-13T09:28:26Z</time></trkpt><trkpt lat="51.9773785863" lon="-2.1824422292"><ele>25.61</ele><time>2015-05-13T09:28:29Z</time></trkpt><trkpt lat="51.9773609005" lon="-2.1824577358"><ele>29.94</ele><time>2015-05-13T09:28:31Z</time></trkpt><trkpt lat="51.9773391075" lon="-2.1824907605"><ele>30.42</ele><time>2015-05-13T09:28:33Z</time></trkpt><trkpt lat="51.9773304742" lon="-2.1825207677"><ele>25.13</ele><time>2015-05-13T09:28:35Z</time></trkpt><trkpt lat="51.9773192424" lon="-2.1825210191"><ele>27.53</ele><time>2015-05-13T09:28:36Z</time></trkpt><trkpt lat="51.9773127045" lon="-2.1825522836"><ele>31.38</ele><time>2015-05-13T09:28:38Z</time></trkpt><trkpt lat="51.9773351680" lon="-2.1826366894"><ele>27.53</ele><time>2015-05-13T09:28:40Z</time></trkpt><trkpt lat="51.9773507584" lon="-2.1826873161"><ele>21.77</ele><time>2015-05-13T09:28:50Z</time></trkpt><trkpt lat="51.9773464836" lon="-2.1826943569"><ele>28.02</ele><time>2015-05-13T09:28:51Z</time></trkpt><trkpt lat="51.9773313962" lon="-2.1827210952"><ele>30.90</ele><time>2015-05-13T09:28:53Z</time></trkpt><trkpt lat="51.9773273729" lon="-2.1827336680"><ele>22.73</ele><time>2015-05-13T09:28:54Z</time></trkpt><trkpt lat="51.9773210865" lon="-2.1827493422"><ele>28.02</ele><time>2015-05-13T09:28:55Z</time></trkpt><trkpt lat="51.9772974495" lon="-2.1828090213"><ele>33.30</ele><time>2015-05-13T09:28:59Z</time></trkpt><trkpt lat="51.9772930071" lon="-2.1828218456"><ele>27.53</ele><time>2015-05-13T09:29:00Z</time></trkpt><trkpt lat="51.9772732258" lon="-2.1828684490"><ele>32.82</ele><time>2015-05-13T09:29:03Z</time></trkpt><trkpt lat="51.9772666041" lon="-2.1828824468"><ele>26.57</ele><time>2015-05-13T09:29:04Z</time></trkpt><trkpt lat="51.9772339147" lon="-2.1829012223"><ele>33.30</ele><time>2015-05-13T09:29:07Z</time></trkpt><trkpt lat="51.9772217609" lon="-2.1828992944"><ele>27.05</ele><time>2015-05-13T09:29:08Z</time></trkpt><trkpt lat="51.9772186596" lon="-2.1829068381"><ele>27.05</ele><time>2015-05-13T09:29:09Z</time></trkpt><trkpt lat="51.9772154745" lon="-2.1829437185"><ele>16.48</ele><time>2015-05-13T09:29:12Z</time></trkpt><trkpt lat="51.9772143010" lon="-2.1829519328"><ele>29.94</ele><time>2015-05-13T09:29:13Z</time></trkpt><trkpt lat="51.9772080984" lon="-2.1829650924"><ele>30.42</ele><time>2015-05-13T09:29:15Z</time></trkpt><trkpt lat="51.9772065058" lon="-2.1829735581"><ele>25.13</ele><time>2015-05-13T09:29:16Z</time></trkpt><trkpt lat="51.9772005547" lon="-2.1829800121"><ele>28.50</ele><time>2015-05-13T09:29:17Z</time></trkpt><trkpt lat="51.9771955255" lon="-2.1829847060"><ele>31.86</ele><time>2015-05-13T09:29:18Z</time></trkpt><trkpt lat="51.9771890715" lon="-2.1829935070"><ele>24.65</ele><time>2015-05-13T09:29:19Z</time></trkpt><trkpt lat="51.9771830365" lon="-2.1830042358"><ele>27.05</ele><time>2015-05-13T09:29:20Z</time></trkpt><trkpt lat="51.9771692902" lon="-2.1830234304"><ele>29.94</ele><time>2015-05-13T09:29:22Z</time></trkpt><trkpt lat="51.9771647640" lon="-2.1830372605"><ele>32.82</ele><time>2015-05-13T09:29:23Z</time></trkpt><trkpt lat="51.9771592319" lon="-2.1830507554"><ele>20.32</ele><time>2015-05-13T09:29:24Z</time></trkpt><trkpt lat="51.9771532807" lon="-2.1830627415"><ele>28.98</ele><time>2015-05-13T09:29:25Z</time></trkpt><trkpt lat="51.9771158136" lon="-2.1831226721"><ele>33.30</ele><time>2015-05-13T09:29:30Z</time></trkpt><trkpt lat="51.9771100301" lon="-2.1831330657"><ele>25.13</ele><time>2015-05-13T09:29:31Z</time></trkpt><trkpt lat="51.9771054201" lon="-2.1831436269"><ele>27.05</ele><time>2015-05-13T09:29:32Z</time></trkpt><trkpt lat="51.9771002233" lon="-2.1831549425"><ele>21.77</ele><time>2015-05-13T09:29:33Z</time></trkpt><trkpt lat="51.9770964514" lon="-2.1831665933"><ele>27.53</ele><time>2015-05-13T09:29:34Z</time></trkpt><trkpt lat="51.9770913385" lon="-2.1831972711"><ele>31.38</ele><time>2015-05-13T09:29:36Z</time></trkpt><trkpt lat="51.9770858064" lon="-2.1832105983"><ele>22.25</ele><time>2015-05-13T09:29:37Z</time></trkpt><trkpt lat="51.9770803582" lon="-2.1832214948"><ele>27.05</ele><time>2015-05-13T09:29:38Z</time></trkpt><trkpt lat="51.9770714734" lon="-2.1832444612"><ele>30.90</ele><time>2015-05-13T09:29:40Z</time></trkpt><trkpt lat="51.9770671148" lon="-2.1832613926"><ele>22.73</ele><time>2015-05-13T09:29:41Z</time></trkpt><trkpt lat="51.9770634267" lon="-2.1832797490"><ele>27.05</ele><time>2015-05-13T09:29:42Z</time></trkpt><trkpt lat="51.9770547934" lon="-2.1833108459"><ele>31.38</ele><time>2015-05-13T09:29:44Z</time></trkpt><trkpt lat="51.9770503510" lon="-2.1833194792"><ele>24.17</ele><time>2015-05-13T09:29:45Z</time></trkpt><trkpt lat="51.9770451542" lon="-2.1833317168"><ele>24.17</ele><time>2015-05-13T09:29:46Z</time></trkpt><trkpt lat="51.9770409632" lon="-2.1833530907"><ele>29.46</ele><time>2015-05-13T09:29:48Z</time></trkpt><trkpt lat="51.9770376105" lon="-2.1833592094"><ele>32.34</ele><time>2015-05-13T09:29:49Z</time></trkpt><trkpt lat="51.9770335872" lon="-2.1833727881"><ele>25.61</ele><time>2015-05-13T09:29:50Z</time></trkpt><trkpt lat="51.9770293962" lon="-2.1833861154"><ele>26.09</ele><time>2015-05-13T09:29:51Z</time></trkpt><trkpt lat="51.9770252891" lon="-2.1834012866"><ele>28.98</ele><time>2015-05-13T09:29:52Z</time></trkpt><trkpt lat="51.9770231098" lon="-2.1834137756"><ele>34.26</ele><time>2015-05-13T09:29:53Z</time></trkpt><trkpt lat="51.9770199247" lon="-2.1834250074"><ele>25.13</ele><time>2015-05-13T09:29:54Z</time></trkpt><trkpt lat="51.9770164043" lon="-2.1834352333"><ele>26.09</ele><time>2015-05-13T09:29:55Z</time></trkpt><trkpt lat="51.9770124648" lon="-2.1834457945"><ele>29.46</ele><time>2015-05-13T09:29:56Z</time></trkpt><trkpt lat="51.9770076033" lon="-2.1834599599"><ele>32.82</ele><time>2015-05-13T09:29:57Z</time></trkpt><trkpt lat="51.9769919291" lon="-2.1834862791"><ele>28.50</ele><time>2015-05-13T09:29:59Z</time></trkpt><trkpt lat="51.9769853912" lon="-2.1834982652"><ele>24.65</ele><time>2015-05-13T09:30:00Z</time></trkpt><trkpt lat="51.9769807812" lon="-2.1835151128"><ele>29.46</ele><time>2015-05-13T09:30:01Z</time></trkpt><trkpt lat="51.9769599102" lon="-2.1835403424"><ele>26.57</ele><time>2015-05-13T09:30:04Z</time></trkpt><trkpt lat="51.9769414701" lon="-2.1835535858"><ele>31.86</ele><time>2015-05-13T09:30:06Z</time></trkpt><trkpt lat="51.9769371115" lon="-2.1835597046"><ele>25.61</ele><time>2015-05-13T09:30:07Z</time></trkpt><trkpt lat="51.9769339263" lon="-2.1835678350"><ele>26.57</ele><time>2015-05-13T09:30:08Z</time></trkpt><trkpt lat="51.9769313280" lon="-2.1835799050"><ele>29.94</ele><time>2015-05-13T09:30:10Z</time></trkpt><trkpt lat="51.9769173302" lon="-2.1836106665"><ele>23.21</ele><time>2015-05-13T09:30:13Z</time></trkpt><trkpt lat="51.9769097865" lon="-2.1836260892"><ele>27.53</ele><time>2015-05-13T09:30:14Z</time></trkpt><trkpt lat="51.9768939447" lon="-2.1836509835"><ele>31.86</ele><time>2015-05-13T09:30:16Z</time></trkpt><trkpt lat="51.9768863171" lon="-2.1836637240"><ele>23.69</ele><time>2015-05-13T09:30:17Z</time></trkpt><trkpt lat="51.9768781029" lon="-2.1836833376"><ele>26.57</ele><time>2015-05-13T09:30:18Z</time></trkpt><trkpt lat="51.9768676255" lon="-2.1837155242"><ele>30.42</ele><time>2015-05-13T09:30:20Z</time></trkpt><trkpt lat="51.9768648595" lon="-2.1837293543"><ele>23.69</ele><time>2015-05-13T09:30:21Z</time></trkpt><trkpt lat="51.9768611714" lon="-2.1837460343"><ele>28.02</ele><time>2015-05-13T09:30:22Z</time></trkpt><trkpt lat="51.9768418092" lon="-2.1837946493"><ele>23.69</ele><time>2015-05-13T09:30:25Z</time></trkpt><trkpt lat="51.9768340141" lon="-2.1838099882"><ele>28.50</ele><time>2015-05-13T09:30:26Z</time></trkpt><trkpt lat="51.9768259674" lon="-2.1838208009"><ele>24.65</ele><time>2015-05-13T09:30:27Z</time></trkpt><trkpt lat="51.9768123049" lon="-2.1838436835"><ele>28.02</ele><time>2015-05-13T09:30:29Z</time></trkpt><trkpt lat="51.9768057670" lon="-2.1838564239"><ele>32.34</ele><time>2015-05-13T09:30:30Z</time></trkpt><trkpt lat="51.9767981395" lon="-2.1838644706"><ele>24.17</ele><time>2015-05-13T09:30:31Z</time></trkpt><trkpt lat="51.9767883327" lon="-2.1838724334"><ele>27.53</ele><time>2015-05-13T09:30:32Z</time></trkpt><trkpt lat="51.9767669588" lon="-2.1838857606"><ele>28.50</ele><time>2015-05-13T09:30:34Z</time></trkpt><trkpt lat="51.9767593313" lon="-2.1838903707"><ele>24.17</ele><time>2015-05-13T09:30:35Z</time></trkpt><trkpt lat="51.9767517876" lon="-2.1839004289"><ele>26.57</ele><time>2015-05-13T09:30:36Z</time></trkpt><trkpt lat="51.9767351076" lon="-2.1839241497"><ele>30.42</ele><time>2015-05-13T09:30:38Z</time></trkpt><trkpt lat="51.9767080341" lon="-2.1839382313"><ele>19.84</ele><time>2015-05-13T09:30:41Z</time></trkpt><trkpt lat="51.9766973890" lon="-2.1839415003"><ele>27.53</ele><time>2015-05-13T09:30:42Z</time></trkpt><trkpt lat="51.9766786136" lon="-2.1839517262"><ele>28.98</ele><time>2015-05-13T09:30:44Z</time></trkpt><trkpt lat="51.9766720757" lon="-2.1839611139"><ele>24.17</ele><time>2015-05-13T09:30:45Z</time></trkpt><trkpt lat="51.9766647834" lon="-2.1839700826"><ele>25.61</ele><time>2015-05-13T09:30:46Z</time></trkpt><trkpt lat="51.9766553957" lon="-2.1839801408"><ele>32.34</ele><time>2015-05-13T09:30:47Z</time></trkpt><trkpt lat="51.9766501989" lon="-2.1839938033"><ele>28.50</ele><time>2015-05-13T09:30:48Z</time></trkpt><trkpt lat="51.9766463432" lon="-2.1840057895"><ele>22.73</ele><time>2015-05-13T09:30:49Z</time></trkpt><trkpt lat="51.9766415656" lon="-2.1840210445"><ele>27.05</ele><time>2015-05-13T09:30:50Z</time></trkpt><trkpt lat="51.9766253885" lon="-2.1840616129"><ele>30.90</ele><time>2015-05-13T09:30:53Z</time></trkpt><trkpt lat="51.9766188506" lon="-2.1840709168"><ele>26.09</ele><time>2015-05-13T09:30:54Z</time></trkpt><trkpt lat="51.9765869156" lon="-2.1840876807"><ele>31.38</ele><time>2015-05-13T09:30:57Z</time></trkpt><trkpt lat="51.9765766058" lon="-2.1840880997"><ele>25.13</ele><time>2015-05-13T09:30:58Z</time></trkpt><trkpt lat="51.9765674695" lon="-2.1840901952"><ele>26.57</ele><time>2015-05-13T09:30:59Z</time></trkpt><trkpt lat="51.9765455928" lon="-2.1840884350"><ele>29.94</ele><time>2015-05-13T09:31:01Z</time></trkpt><trkpt lat="51.9765367080" lon="-2.1840932127"><ele>24.17</ele><time>2015-05-13T09:31:02Z</time></trkpt><trkpt lat="51.9765333552" lon="-2.1841145027"><ele>27.05</ele><time>2015-05-13T09:31:03Z</time></trkpt><trkpt lat="51.9765274879" lon="-2.1841312665"><ele>21.29</ele><time>2015-05-13T09:31:04Z</time></trkpt><trkpt lat="51.9765206147" lon="-2.1841482818"><ele>27.05</ele><time>2015-05-13T09:31:05Z</time></trkpt><trkpt lat="51.9765003305" lon="-2.1841895208"><ele>24.65</ele><time>2015-05-13T09:31:08Z</time></trkpt><trkpt lat="51.9764770288" lon="-2.1842243057"><ele>28.50</ele><time>2015-05-13T09:31:11Z</time></trkpt><trkpt lat="51.9764508773" lon="-2.1842450928"><ele>25.13</ele><time>2015-05-13T09:31:13Z</time></trkpt><trkpt lat="51.9764383044" lon="-2.1842483617"><ele>25.61</ele><time>2015-05-13T09:31:14Z</time></trkpt><trkpt lat="51.9763895217" lon="-2.1842481941"><ele>31.38</ele><time>2015-05-13T09:31:18Z</time></trkpt><trkpt lat="51.9763797987" lon="-2.1842463501"><ele>29.46</ele><time>2015-05-13T09:31:19Z</time></trkpt><trkpt lat="51.9763719197" lon="-2.1842465177"><ele>23.69</ele><time>2015-05-13T09:31:20Z</time></trkpt><trkpt lat="51.9763491210" lon="-2.1842551511"><ele>28.50</ele><time>2015-05-13T09:31:22Z</time></trkpt><trkpt lat="51.9763093907" lon="-2.1842661314"><ele>22.73</ele><time>2015-05-13T09:31:25Z</time></trkpt><trkpt lat="51.9763034396" lon="-2.1842737589"><ele>26.57</ele><time>2015-05-13T09:31:26Z</time></trkpt><trkpt lat="51.9762961473" lon="-2.1842817217"><ele>22.73</ele><time>2015-05-13T09:31:27Z</time></trkpt><trkpt lat="51.9762883522" lon="-2.1842906065"><ele>27.05</ele><time>2015-05-13T09:31:28Z</time></trkpt><trkpt lat="51.9762749411" lon="-2.1843086276"><ele>31.38</ele><time>2015-05-13T09:31:30Z</time></trkpt><trkpt lat="51.9762663078" lon="-2.1843155008"><ele>27.53</ele><time>2015-05-13T09:31:31Z</time></trkpt><trkpt lat="51.9762433413" lon="-2.1843206137"><ele>27.53</ele><time>2015-05-13T09:31:33Z</time></trkpt><trkpt lat="51.9761764538" lon="-2.1843016706"><ele>24.65</ele><time>2015-05-13T09:31:37Z</time></trkpt><trkpt lat="51.9761336222" lon="-2.1843122318"><ele>28.98</ele><time>2015-05-13T09:31:41Z</time></trkpt><trkpt lat="51.9761264138" lon="-2.1843389701"><ele>22.25</ele><time>2015-05-13T09:31:43Z</time></trkpt><trkpt lat="51.9761213847" lon="-2.1843512077"><ele>27.05</ele><time>2015-05-13T09:31:44Z</time></trkpt><trkpt lat="51.9760996755" lon="-2.1844105516"><ele>24.17</ele><time>2015-05-13T09:31:48Z</time></trkpt><trkpt lat="51.9760947302" lon="-2.1844232921"><ele>28.50</ele><time>2015-05-13T09:31:49Z</time></trkpt><trkpt lat="51.9760575984" lon="-2.1844591666"><ele>23.21</ele><time>2015-05-13T09:31:54Z</time></trkpt><trkpt lat="51.9760180358" lon="-2.1844717395"><ele>30.90</ele><time>2015-05-13T09:31:57Z</time></trkpt><trkpt lat="51.9760059658" lon="-2.1844732482"><ele>27.05</ele><time>2015-05-13T09:31:58Z</time></trkpt><trkpt lat="51.9759354740" lon="-2.1844915207"><ele>21.29</ele><time>2015-05-13T09:32:03Z</time></trkpt><trkpt lat="51.9759229012" lon="-2.1844947059"><ele>28.50</ele><time>2015-05-13T09:32:04Z</time></trkpt><trkpt lat="51.9758887030" lon="-2.1844854858"><ele>23.21</ele><time>2015-05-13T09:32:06Z</time></trkpt><trkpt lat="51.9758754596" lon="-2.1844877489"><ele>26.57</ele><time>2015-05-13T09:32:07Z</time></trkpt><trkpt lat="51.9758556783" lon="-2.1845095418"><ele>30.42</ele><time>2015-05-13T09:32:09Z</time></trkpt><trkpt lat="51.9758522417" lon="-2.1845223662"><ele>26.57</ele><time>2015-05-13T09:32:10Z</time></trkpt><trkpt lat="51.9758510683" lon="-2.1845358610"><ele>20.81</ele><time>2015-05-13T09:32:11Z</time></trkpt><trkpt lat="51.9758448657" lon="-2.1845451649"><ele>26.09</ele><time>2015-05-13T09:32:12Z</time></trkpt><trkpt lat="51.9758257549" lon="-2.1845536307"><ele>28.50</ele><time>2015-05-13T09:32:14Z</time></trkpt><trkpt lat="51.9757953286" lon="-2.1845572349"><ele>23.21</ele><time>2015-05-13T09:32:16Z</time></trkpt><trkpt lat="51.9757836778" lon="-2.1845661197"><ele>26.57</ele><time>2015-05-13T09:32:17Z</time></trkpt><trkpt lat="51.9757627230" lon="-2.1845851466"><ele>29.94</ele><time>2015-05-13T09:32:19Z</time></trkpt><trkpt lat="51.9757326320" lon="-2.1845983900"><ele>27.05</ele><time>2015-05-13T09:32:22Z</time></trkpt><trkpt lat="51.9757228252" lon="-2.1846024133"><ele>23.69</ele><time>2015-05-13T09:32:23Z</time></trkpt><trkpt lat="51.9757126831" lon="-2.1846074425"><ele>26.09</ele><time>2015-05-13T09:32:24Z</time></trkpt><trkpt lat="51.9756895490" lon="-2.1846143994"><ele>29.46</ele><time>2015-05-13T09:32:26Z</time></trkpt><trkpt lat="51.9756777305" lon="-2.1846166626"><ele>26.57</ele><time>2015-05-13T09:32:27Z</time></trkpt><trkpt lat="51.9755918160" lon="-2.1847154014"><ele>27.53</ele><time>2015-05-13T09:32:38Z</time></trkpt><trkpt lat="51.9755797461" lon="-2.1847150661"><ele>24.17</ele><time>2015-05-13T09:32:39Z</time></trkpt><trkpt lat="51.9755669218" lon="-2.1847142279"><ele>24.17</ele><time>2015-05-13T09:32:40Z</time></trkpt><trkpt lat="51.9755479787" lon="-2.1847262140"><ele>28.98</ele><time>2015-05-13T09:32:42Z</time></trkpt><trkpt lat="51.9755255990" lon="-2.1847521979"><ele>25.13</ele><time>2015-05-13T09:32:45Z</time></trkpt><trkpt lat="51.9754889701" lon="-2.1847666148"><ele>28.50</ele><time>2015-05-13T09:32:48Z</time></trkpt><trkpt lat="51.9754758943" lon="-2.1847678721"><ele>27.53</ele><time>2015-05-13T09:32:49Z</time></trkpt><trkpt lat="51.9754644949" lon="-2.1847663634"><ele>22.73</ele><time>2015-05-13T09:32:50Z</time></trkpt><trkpt lat="51.9754518382" lon="-2.1847675368"><ele>25.13</ele><time>2015-05-13T09:32:51Z</time></trkpt><trkpt lat="51.9754307996" lon="-2.1847665310"><ele>28.98</ele><time>2015-05-13T09:32:53Z</time></trkpt><trkpt lat="51.9754207414" lon="-2.1847635135"><ele>24.17</ele><time>2015-05-13T09:32:54Z</time></trkpt><trkpt lat="51.9754054025" lon="-2.1847576462"><ele>25.13</ele><time>2015-05-13T09:32:55Z</time></trkpt><trkpt lat="51.9753552787" lon="-2.1847444866"><ele>28.98</ele><time>2015-05-13T09:32:59Z</time></trkpt><trkpt lat="51.9753485732" lon="-2.1847442351"><ele>23.69</ele><time>2015-05-13T09:33:00Z</time></trkpt><trkpt lat="51.9753436279" lon="-2.1847383678"><ele>24.65</ele><time>2015-05-13T09:33:01Z</time></trkpt><trkpt lat="51.9753277022" lon="-2.1847259626"><ele>28.50</ele><time>2015-05-13T09:33:03Z</time></trkpt><trkpt lat="51.9753175601" lon="-2.1847182512"><ele>24.65</ele><time>2015-05-13T09:33:04Z</time></trkpt><trkpt lat="51.9752900675" lon="-2.1846999787"><ele>28.98</ele><time>2015-05-13T09:33:07Z</time></trkpt><trkpt lat="51.9752800092" lon="-2.1846938599"><ele>28.02</ele><time>2015-05-13T09:33:08Z</time></trkpt><trkpt lat="51.9752687775" lon="-2.1846848074"><ele>25.13</ele><time>2015-05-13T09:33:10Z</time></trkpt><trkpt lat="51.9752384350" lon="-2.1846763417"><ele>29.94</ele><time>2015-05-13T09:33:17Z</time></trkpt><trkpt lat="51.9752344955" lon="-2.1846767608"><ele>23.21</ele><time>2015-05-13T09:33:18Z</time></trkpt><trkpt lat="51.9752292149" lon="-2.1846697200"><ele>27.05</ele><time>2015-05-13T09:33:19Z</time></trkpt><trkpt lat="51.9752088469" lon="-2.1846564766"><ele>27.53</ele><time>2015-05-13T09:33:21Z</time></trkpt><trkpt lat="51.9752028119" lon="-2.1846664511"><ele>26.09</ele><time>2015-05-13T09:33:26Z</time></trkpt><trkpt lat="51.9751966931" lon="-2.1846657805"><ele>27.53</ele><time>2015-05-13T09:33:42Z</time></trkpt><trkpt lat="51.9752423745" lon="-2.1846926864"><ele>26.57</ele><time>2015-05-13T09:34:01Z</time></trkpt><trkpt lat="51.9752430450" lon="-2.1846894175"><ele>22.73</ele><time>2015-05-13T09:34:04Z</time></trkpt><trkpt lat="51.9752406143" lon="-2.1846796945"><ele>29.46</ele><time>2015-05-13T09:34:05Z</time></trkpt><trkpt lat="51.9752375968" lon="-2.1846744139"><ele>23.21</ele><time>2015-05-13T09:34:06Z</time></trkpt><trkpt lat="51.9752377644" lon="-2.1846732404"><ele>27.53</ele><time>2015-05-13T09:34:07Z</time></trkpt><trkpt lat="51.9752355013" lon="-2.1846583206"><ele>25.13</ele><time>2015-05-13T09:34:26Z</time></trkpt><trkpt lat="51.9752356689" lon="-2.1846566442"><ele>15.04</ele><time>2015-05-13T09:34:28Z</time></trkpt><trkpt lat="51.9752356689" lon="-2.1846556384"><ele>26.57</ele><time>2015-05-13T09:34:29Z</time></trkpt><trkpt lat="51.9752358366" lon="-2.1846499387"><ele>37.15</ele><time>2015-05-13T09:34:35Z</time></trkpt><trkpt lat="51.9752357528" lon="-2.1846488491"><ele>27.05</ele><time>2015-05-13T09:34:36Z</time></trkpt><trkpt lat="51.9752359204" lon="-2.1846462507"><ele>16.96</ele><time>2015-05-13T09:34:40Z</time></trkpt><trkpt lat="51.9752360880" lon="-2.1846451610"><ele>30.90</ele><time>2015-05-13T09:34:41Z</time></trkpt><trkpt lat="51.9752363395" lon="-2.1846446581"><ele>27.05</ele><time>2015-05-13T09:34:42Z</time></trkpt><trkpt lat="51.9752365071" lon="-2.1846444067"><ele>30.90</ele><time>2015-05-13T09:34:43Z</time></trkpt><trkpt lat="51.9752368424" lon="-2.1846432332"><ele>22.73</ele><time>2015-05-13T09:34:45Z</time></trkpt><trkpt lat="51.9752369262" lon="-2.1846427303"><ele>27.53</ele><time>2015-05-13T09:34:46Z</time></trkpt><trkpt lat="51.9752374291" lon="-2.1846415568"><ele>31.38</ele><time>2015-05-13T09:34:48Z</time></trkpt><trkpt lat="51.9752375968" lon="-2.1846407186"><ele>26.57</ele><time>2015-05-13T09:34:49Z</time></trkpt><trkpt lat="51.9752377644" lon="-2.1846398804"><ele>26.57</ele><time>2015-05-13T09:34:50Z</time></trkpt><trkpt lat="51.9752343278" lon="-2.1845841408"><ele>26.57</ele><time>2015-05-13T09:35:14Z</time></trkpt><trkpt lat="51.9752338249" lon="-2.1845823806"><ele>27.05</ele><time>2015-05-13T09:35:39Z</time></trkpt><trkpt lat="51.9752297178" lon="-2.1845926903"><ele>23.21</ele><time>2015-05-13T09:35:43Z</time></trkpt><trkpt lat="51.9752298016" lon="-2.1845916007"><ele>27.05</ele><time>2015-05-13T09:35:46Z</time></trkpt><trkpt lat="51.9752301369" lon="-2.1845925227"><ele>23.69</ele><time>2015-05-13T09:35:49Z</time></trkpt><trkpt lat="51.9752303883" lon="-2.1845931094"><ele>27.05</ele><time>2015-05-13T09:35:50Z</time></trkpt><trkpt lat="51.9752310589" lon="-2.1845942829"><ele>26.57</ele><time>2015-05-13T09:35:51Z</time></trkpt><trkpt lat="51.9752313942" lon="-2.1845948696"><ele>32.34</ele><time>2015-05-13T09:35:52Z</time></trkpt><trkpt lat="51.9752332382" lon="-2.1845954563"><ele>26.09</ele><time>2015-05-13T09:35:53Z</time></trkpt><trkpt lat="51.9752326515" lon="-2.1845950373"><ele>35.23</ele><time>2015-05-13T09:35:54Z</time></trkpt><trkpt lat="51.9752319809" lon="-2.1845947020"><ele>28.02</ele><time>2015-05-13T09:35:55Z</time></trkpt><trkpt lat="51.9752318971" lon="-2.1845948696"><ele>27.05</ele><time>2015-05-13T09:35:57Z</time></trkpt><trkpt lat="51.9752099365" lon="-2.1845714003"><ele>21.77</ele><time>2015-05-13T09:36:04Z</time></trkpt><trkpt lat="51.9752101041" lon="-2.1845708974"><ele>31.38</ele><time>2015-05-13T09:36:05Z</time></trkpt><trkpt lat="51.9752102718" lon="-2.1845704783"><ele>25.61</ele><time>2015-05-13T09:36:06Z</time></trkpt><trkpt lat="51.9752146304" lon="-2.1845781058"><ele>27.53</ele><time>2015-05-13T09:36:09Z</time></trkpt><trkpt lat="51.9752171449" lon="-2.1845784411"><ele>23.69</ele><time>2015-05-13T09:36:24Z</time></trkpt><trkpt lat="51.9752132054" lon="-2.1845875774"><ele>27.53</ele><time>2015-05-13T09:36:25Z</time></trkpt><trkpt lat="51.9752070028" lon="-2.1845924389"><ele>27.05</ele><time>2015-05-13T09:36:44Z</time></trkpt><trkpt lat="51.9752037339" lon="-2.1845942829"><ele>21.29</ele><time>2015-05-13T09:36:53Z</time></trkpt><trkpt lat="51.9752035663" lon="-2.1845954563"><ele>31.86</ele><time>2015-05-13T09:36:54Z</time></trkpt><trkpt lat="51.9752059132" lon="-2.1846009884"><ele>22.25</ele><time>2015-05-13T09:36:55Z</time></trkpt><trkpt lat="51.9752050750" lon="-2.1846145671"><ele>28.50</ele><time>2015-05-13T09:36:56Z</time></trkpt><trkpt lat="51.9752022251" lon="-2.1846352704"><ele>22.73</ele><time>2015-05-13T09:36:58Z</time></trkpt><trkpt lat="51.9752030633" lon="-2.1846459154"><ele>28.02</ele><time>2015-05-13T09:36:59Z</time></trkpt><trkpt lat="51.9752100203" lon="-2.1846816223"><ele>24.65</ele><time>2015-05-13T09:37:09Z</time></trkpt><trkpt lat="51.9752024766" lon="-2.1846905071"><ele>30.42</ele><time>2015-05-13T09:37:11Z</time></trkpt><trkpt lat="51.9751943462" lon="-2.1847026609"><ele>26.09</ele><time>2015-05-13T09:37:12Z</time></trkpt><trkpt lat="51.9751888979" lon="-2.1847086959"><ele>29.94</ele><time>2015-05-13T09:37:16Z</time></trkpt><trkpt lat="51.9751459826" lon="-2.1847314946"><ele>24.17</ele><time>2015-05-13T09:37:20Z</time></trkpt><trkpt lat="51.9751353376" lon="-2.1847449057"><ele>24.17</ele><time>2015-05-13T09:37:21Z</time></trkpt><trkpt lat="51.9751146343" lon="-2.1847703028"><ele>25.61</ele><time>2015-05-13T09:37:23Z</time></trkpt><trkpt lat="51.9750777539" lon="-2.1848051716"><ele>29.46</ele><time>2015-05-13T09:37:27Z</time></trkpt><trkpt lat="51.9750690367" lon="-2.1848117933"><ele>24.65</ele><time>2015-05-13T09:37:28Z</time></trkpt><trkpt lat="51.9750617445" lon="-2.1848207619"><ele>25.61</ele><time>2015-05-13T09:37:29Z</time></trkpt><trkpt lat="51.9750485010" lon="-2.1848386154"><ele>29.94</ele><time>2015-05-13T09:37:31Z</time></trkpt><trkpt lat="51.9750413764" lon="-2.1848422196"><ele>21.77</ele><time>2015-05-13T09:37:32Z</time></trkpt><trkpt lat="51.9750319887" lon="-2.1848424710"><ele>26.09</ele><time>2015-05-13T09:37:33Z</time></trkpt><trkpt lat="51.9749821164" lon="-2.1848825365"><ele>28.98</ele><time>2015-05-13T09:37:39Z</time></trkpt><trkpt lat="51.9749640115" lon="-2.1848967019"><ele>21.77</ele><time>2015-05-13T09:37:41Z</time></trkpt><trkpt lat="51.9749521930" lon="-2.1849068440"><ele>26.57</ele><time>2015-05-13T09:37:42Z</time></trkpt><trkpt lat="51.9749152288" lon="-2.1849277150"><ele>20.32</ele><time>2015-05-13T09:37:45Z</time></trkpt><trkpt lat="51.9749044161" lon="-2.1849264577"><ele>25.61</ele><time>2015-05-13T09:37:46Z</time></trkpt><trkpt lat="51.9748627581" lon="-2.1849477477"><ele>21.77</ele><time>2015-05-13T09:37:51Z</time></trkpt><trkpt lat="51.9748564716" lon="-2.1849610750"><ele>27.53</ele><time>2015-05-13T09:37:52Z</time></trkpt><trkpt lat="51.9747721497" lon="-2.1849809401"><ele>24.17</ele><time>2015-05-13T09:38:00Z</time></trkpt><trkpt lat="51.9747543801" lon="-2.1849744860"><ele>28.50</ele><time>2015-05-13T09:38:02Z</time></trkpt><trkpt lat="51.9747462496" lon="-2.1849703789"><ele>22.25</ele><time>2015-05-13T09:38:03Z</time></trkpt><trkpt lat="51.9747357722" lon="-2.1849684510"><ele>26.57</ele><time>2015-05-13T09:38:04Z</time></trkpt><trkpt lat="51.9746871572" lon="-2.1849641763"><ele>27.05</ele><time>2015-05-13T09:38:09Z</time></trkpt><trkpt lat="51.9746667892" lon="-2.1849609911"><ele>23.69</ele><time>2015-05-13T09:38:11Z</time></trkpt><trkpt lat="51.9746567309" lon="-2.1849627513"><ele>23.69</ele><time>2015-05-13T09:38:12Z</time></trkpt><trkpt lat="51.9746460859" lon="-2.1849671938"><ele>27.05</ele><time>2015-05-13T09:38:13Z</time></trkpt><trkpt lat="51.9746267237" lon="-2.1849764977"><ele>22.73</ele><time>2015-05-13T09:38:15Z</time></trkpt><trkpt lat="51.9746172521" lon="-2.1849801019"><ele>25.61</ele><time>2015-05-13T09:38:16Z</time></trkpt><trkpt lat="51.9745762646" lon="-2.1849940997"><ele>28.50</ele><time>2015-05-13T09:38:21Z</time></trkpt><trkpt lat="51.9745686371" lon="-2.1849968657"><ele>24.17</ele><time>2015-05-13T09:38:22Z</time></trkpt><trkpt lat="51.9745606743" lon="-2.1849988773"><ele>24.65</ele><time>2015-05-13T09:38:23Z</time></trkpt><trkpt lat="51.9745444972" lon="-2.1850027330"><ele>28.02</ele><time>2015-05-13T09:38:25Z</time></trkpt><trkpt lat="51.9745685533" lon="-2.1850635018"><ele>24.17</ele><time>2015-05-13T09:38:35Z</time></trkpt><trkpt lat="51.9745624345" lon="-2.1850709617"><ele>28.98</ele><time>2015-05-13T09:38:40Z</time></trkpt><trkpt lat="51.9745400548" lon="-2.1850969456"><ele>23.69</ele><time>2015-05-13T09:38:44Z</time></trkpt><trkpt lat="51.9745112211" lon="-2.1851348318"><ele>25.61</ele><time>2015-05-13T09:38:48Z</time></trkpt><trkpt lat="51.9744645339" lon="-2.1851790883"><ele>22.73</ele><time>2015-05-13T09:38:53Z</time></trkpt><trkpt lat="51.9744533859" lon="-2.1851912420"><ele>26.57</ele><time>2015-05-13T09:38:54Z</time></trkpt><trkpt lat="51.9744271506" lon="-2.1852261107"><ele>22.73</ele><time>2015-05-13T09:38:57Z</time></trkpt><trkpt lat="51.9744189363" lon="-2.1852376778"><ele>26.57</ele><time>2015-05-13T09:38:58Z</time></trkpt><trkpt lat="51.9743940420" lon="-2.1852727979"><ele>23.69</ele><time>2015-05-13T09:39:01Z</time></trkpt><trkpt lat="51.9743862469" lon="-2.1852852870"><ele>27.05</ele><time>2015-05-13T09:39:02Z</time></trkpt><trkpt lat="51.9743781164" lon="-2.1852986980"><ele>30.42</ele><time>2015-05-13T09:39:03Z</time></trkpt><trkpt lat="51.9743511267" lon="-2.1853288729"><ele>19.84</ele><time>2015-05-13T09:39:06Z</time></trkpt><trkpt lat="51.9743418228" lon="-2.1853353269"><ele>26.57</ele><time>2015-05-13T09:39:07Z</time></trkpt><trkpt lat="51.9743176829" lon="-2.1853477322"><ele>23.21</ele><time>2015-05-13T09:39:10Z</time></trkpt><trkpt lat="51.9743078761" lon="-2.1853509173"><ele>27.05</ele><time>2015-05-13T09:39:11Z</time></trkpt><trkpt lat="51.9742974825" lon="-2.1853489056"><ele>30.90</ele><time>2015-05-13T09:39:12Z</time></trkpt><trkpt lat="51.9742884301" lon="-2.1853471454"><ele>23.21</ele><time>2015-05-13T09:39:13Z</time></trkpt><trkpt lat="51.9742792938" lon="-2.1853456367"><ele>25.13</ele><time>2015-05-13T09:39:14Z</time></trkpt><trkpt lat="51.9742674753" lon="-2.1853460558"><ele>27.05</ele><time>2015-05-13T09:39:15Z</time></trkpt><trkpt lat="51.9742390607" lon="-2.1853543539"><ele>28.02</ele><time>2015-05-13T09:39:17Z</time></trkpt><trkpt lat="51.9742164295" lon="-2.1853526775"><ele>19.36</ele><time>2015-05-13T09:39:19Z</time></trkpt><trkpt lat="51.9742072932" lon="-2.1853577904"><ele>26.09</ele><time>2015-05-13T09:39:20Z</time></trkpt><trkpt lat="51.9741895236" lon="-2.1853714529"><ele>27.05</ele><time>2015-05-13T09:39:22Z</time></trkpt><trkpt lat="51.9741813093" lon="-2.1853778232"><ele>18.40</ele><time>2015-05-13T09:39:23Z</time></trkpt><trkpt lat="51.9741728436" lon="-2.1853846125"><ele>25.61</ele><time>2015-05-13T09:39:24Z</time></trkpt><trkpt lat="51.9741468597" lon="-2.1854125243"><ele>21.77</ele><time>2015-05-13T09:39:27Z</time></trkpt><trkpt lat="51.9741384778" lon="-2.1854206547"><ele>23.69</ele><time>2015-05-13T09:39:28Z</time></trkpt><trkpt lat="51.9741186127" lon="-2.1854364127"><ele>27.05</ele><time>2015-05-13T09:39:30Z</time></trkpt><trkpt lat="51.9740905333" lon="-2.1854448784"><ele>23.69</ele><time>2015-05-13T09:39:33Z</time></trkpt><trkpt lat="51.9740801398" lon="-2.1854463033"><ele>26.57</ele><time>2015-05-13T09:39:34Z</time></trkpt><trkpt lat="51.9740504678" lon="-2.1854557749"><ele>23.21</ele><time>2015-05-13T09:39:37Z</time></trkpt><trkpt lat="51.9740404096" lon="-2.1854620613"><ele>26.57</ele><time>2015-05-13T09:39:38Z</time></trkpt><trkpt lat="51.9740296807" lon="-2.1854693536"><ele>29.46</ele><time>2015-05-13T09:39:39Z</time></trkpt><trkpt lat="51.9740184490" lon="-2.1854729578"><ele>26.57</ele><time>2015-05-13T09:39:40Z</time></trkpt><trkpt lat="51.9739983324" lon="-2.1854806691"><ele>22.73</ele><time>2015-05-13T09:39:42Z</time></trkpt><trkpt lat="51.9739871845" lon="-2.1854862012"><ele>25.13</ele><time>2015-05-13T09:39:43Z</time></trkpt><trkpt lat="51.9739636313" lon="-2.1854930744"><ele>28.50</ele><time>2015-05-13T09:39:45Z</time></trkpt><trkpt lat="51.9739398267" lon="-2.1854890510"><ele>20.81</ele><time>2015-05-13T09:39:47Z</time></trkpt><trkpt lat="51.9739278406" lon="-2.1854924038"><ele>26.57</ele><time>2015-05-13T09:39:48Z</time></trkpt><trkpt lat="51.9738894515" lon="-2.1855093352"><ele>21.29</ele><time>2015-05-13T09:39:52Z</time></trkpt><trkpt lat="51.9738789741" lon="-2.1855122689"><ele>25.13</ele><time>2015-05-13T09:39:53Z</time></trkpt><trkpt lat="51.9738570135" lon="-2.1855166275"><ele>29.94</ele><time>2015-05-13T09:39:55Z</time></trkpt><trkpt lat="51.9738480449" lon="-2.1855185553"><ele>23.69</ele><time>2015-05-13T09:39:56Z</time></trkpt><trkpt lat="51.9738389086" lon="-2.1855209023"><ele>23.69</ele><time>2015-05-13T09:39:57Z</time></trkpt><trkpt lat="51.9738185406" lon="-2.1855320502"><ele>28.98</ele><time>2015-05-13T09:39:59Z</time></trkpt><trkpt lat="51.9738012739" lon="-2.1855395101"><ele>20.81</ele><time>2015-05-13T09:40:01Z</time></trkpt><trkpt lat="51.9737923890" lon="-2.1855428629"><ele>26.57</ele><time>2015-05-13T09:40:02Z</time></trkpt><trkpt lat="51.9737632200" lon="-2.1855503228"><ele>29.46</ele><time>2015-05-13T09:40:05Z</time></trkpt><trkpt lat="51.9737550896" lon="-2.1855525021"><ele>25.13</ele><time>2015-05-13T09:40:06Z</time></trkpt><trkpt lat="51.9737248309" lon="-2.1855679248"><ele>28.02</ele><time>2015-05-13T09:40:09Z</time></trkpt><trkpt lat="51.9737054687" lon="-2.1855737921"><ele>23.69</ele><time>2015-05-13T09:40:11Z</time></trkpt><trkpt lat="51.9736952428" lon="-2.1855812520"><ele>25.13</ele><time>2015-05-13T09:40:12Z</time></trkpt><trkpt lat="51.9736693427" lon="-2.1855993569"><ele>30.90</ele><time>2015-05-13T09:40:14Z</time></trkpt><trkpt lat="51.9736587815" lon="-2.1856078226"><ele>25.61</ele><time>2015-05-13T09:40:15Z</time></trkpt><trkpt lat="51.9736498967" lon="-2.1856172942"><ele>22.25</ele><time>2015-05-13T09:40:16Z</time></trkpt><trkpt lat="51.9736327976" lon="-2.1856228262"><ele>26.57</ele><time>2015-05-13T09:40:18Z</time></trkpt><trkpt lat="51.9736225717" lon="-2.1856247541"><ele>30.42</ele><time>2015-05-13T09:40:19Z</time></trkpt><trkpt lat="51.9736114237" lon="-2.1856261790"><ele>24.65</ele><time>2015-05-13T09:40:20Z</time></trkpt><trkpt lat="51.9736039639" lon="-2.1856278554"><ele>28.50</ele><time>2015-05-13T09:40:21Z</time></trkpt><trkpt lat="51.9735943247" lon="-2.1856328845"><ele>23.21</ele><time>2015-05-13T09:40:22Z</time></trkpt><trkpt lat="51.9735712744" lon="-2.1856392547"><ele>27.05</ele><time>2015-05-13T09:40:24Z</time></trkpt><trkpt lat="51.9735405967" lon="-2.1856447868"><ele>24.17</ele><time>2015-05-13T09:40:27Z</time></trkpt><trkpt lat="51.9735190552" lon="-2.1856486425"><ele>29.94</ele><time>2015-05-13T09:40:29Z</time></trkpt><trkpt lat="51.9735098351" lon="-2.1856506541"><ele>25.61</ele><time>2015-05-13T09:40:30Z</time></trkpt><trkpt lat="51.9735011179" lon="-2.1856535040"><ele>20.32</ele><time>2015-05-13T09:40:31Z</time></trkpt><trkpt lat="51.9734934065" lon="-2.1856556833"><ele>26.57</ele><time>2015-05-13T09:40:32Z</time></trkpt><trkpt lat="51.9734452106" lon="-2.1856781468"><ele>21.77</ele><time>2015-05-13T09:40:37Z</time></trkpt><trkpt lat="51.9734352361" lon="-2.1856794879"><ele>26.09</ele><time>2015-05-13T09:40:38Z</time></trkpt><trkpt lat="51.9734155387" lon="-2.1856868640"><ele>27.05</ele><time>2015-05-13T09:40:40Z</time></trkpt><trkpt lat="51.9734069891" lon="-2.1856907196"><ele>21.77</ele><time>2015-05-13T09:40:41Z</time></trkpt><trkpt lat="51.9733996131" lon="-2.1856943239"><ele>25.61</ele><time>2015-05-13T09:40:42Z</time></trkpt><trkpt lat="51.9733791612" lon="-2.1857036278"><ele>26.57</ele><time>2015-05-13T09:40:44Z</time></trkpt><trkpt lat="51.9733173866" lon="-2.1857249178"><ele>22.73</ele><time>2015-05-13T09:40:51Z</time></trkpt><trkpt lat="51.9733075798" lon="-2.1857307851"><ele>26.57</ele><time>2015-05-13T09:40:52Z</time></trkpt><trkpt lat="51.9732794166" lon="-2.1857506502"><ele>22.73</ele><time>2015-05-13T09:40:55Z</time></trkpt><trkpt lat="51.9732700288" lon="-2.1857551765"><ele>26.57</ele><time>2015-05-13T09:40:56Z</time></trkpt><trkpt lat="51.9732631557" lon="-2.1857619658"><ele>26.57</ele><time>2015-05-13T09:40:57Z</time></trkpt><trkpt lat="51.9732499123" lon="-2.1857873630"><ele>22.73</ele><time>2015-05-13T09:41:04Z</time></trkpt><trkpt lat="51.9732337352" lon="-2.1857969183"><ele>26.57</ele><time>2015-05-13T09:41:06Z</time></trkpt><trkpt lat="51.9732261915" lon="-2.1858069766"><ele>22.73</ele><time>2015-05-13T09:41:18Z</time></trkpt><trkpt lat="51.9732260238" lon="-2.1858074795"><ele>26.09</ele><time>2015-05-13T09:41:19Z</time></trkpt><trkpt lat="51.9732074998" lon="-2.1858161129"><ele>27.05</ele><time>2015-05-13T09:41:21Z</time></trkpt><trkpt lat="51.9731831923" lon="-2.1858317032"><ele>22.25</ele><time>2015-05-13T09:41:24Z</time></trkpt><trkpt lat="51.9731733017" lon="-2.1858347207"><ele>25.13</ele><time>2015-05-13T09:41:25Z</time></trkpt><trkpt lat="51.9731016364" lon="-2.1858769655"><ele>20.81</ele><time>2015-05-13T09:41:34Z</time></trkpt><trkpt lat="51.9730940089" lon="-2.1858803183"><ele>25.13</ele><time>2015-05-13T09:41:35Z</time></trkpt><trkpt lat="51.9730771612" lon="-2.1858866885"><ele>27.53</ele><time>2015-05-13T09:41:37Z</time></trkpt><trkpt lat="51.9730707072" lon="-2.1858884487"><ele>22.73</ele><time>2015-05-13T09:41:38Z</time></trkpt><trkpt lat="51.9730621576" lon="-2.1858887002"><ele>23.69</ele><time>2015-05-13T09:41:39Z</time></trkpt><trkpt lat="51.9730403647" lon="-2.1858936455"><ele>27.53</ele><time>2015-05-13T09:41:41Z</time></trkpt><trkpt lat="51.9730308093" lon="-2.1858963277"><ele>21.77</ele><time>2015-05-13T09:41:42Z</time></trkpt><trkpt lat="51.9730213378" lon="-2.1858984232"><ele>25.61</ele><time>2015-05-13T09:41:43Z</time></trkpt><trkpt lat="51.9729695376" lon="-2.1859150194"><ele>20.32</ele><time>2015-05-13T09:41:48Z</time></trkpt><trkpt lat="51.9729587249" lon="-2.1859179530"><ele>25.13</ele><time>2015-05-13T09:41:49Z</time></trkpt><trkpt lat="51.9729334954" lon="-2.1859275922"><ele>27.05</ele><time>2015-05-13T09:41:51Z</time></trkpt><trkpt lat="51.9729224313" lon="-2.1859285980"><ele>21.77</ele><time>2015-05-13T09:41:52Z</time></trkpt><trkpt lat="51.9729120377" lon="-2.1859276760"><ele>24.65</ele><time>2015-05-13T09:41:53Z</time></trkpt><trkpt lat="51.9729018956" lon="-2.1859237365"><ele>26.09</ele><time>2015-05-13T09:41:54Z</time></trkpt><trkpt lat="51.9728823658" lon="-2.1859171987"><ele>24.17</ele><time>2015-05-13T09:41:56Z</time></trkpt><trkpt lat="51.9728759956" lon="-2.1859159414"><ele>27.53</ele><time>2015-05-13T09:41:57Z</time></trkpt><trkpt lat="51.9728653505" lon="-2.1859170310"><ele>20.32</ele><time>2015-05-13T09:41:58Z</time></trkpt><trkpt lat="51.9728536997" lon="-2.1859199647"><ele>24.17</ele><time>2015-05-13T09:41:59Z</time></trkpt><trkpt lat="51.9728280511" lon="-2.1859135944"><ele>27.53</ele><time>2015-05-13T09:42:01Z</time></trkpt><trkpt lat="51.9728058390" lon="-2.1859083138"><ele>23.69</ele><time>2015-05-13T09:42:03Z</time></trkpt><trkpt lat="51.9727836270" lon="-2.1859064698"><ele>27.05</ele><time>2015-05-13T09:42:05Z</time></trkpt><trkpt lat="51.9727659412" lon="-2.1859157737"><ele>21.77</ele><time>2015-05-13T09:42:07Z</time></trkpt><trkpt lat="51.9727578107" lon="-2.1859207191"><ele>24.65</ele><time>2015-05-13T09:42:08Z</time></trkpt><trkpt lat="51.9726314116" lon="-2.1859071404"><ele>21.77</ele><time>2015-05-13T09:42:21Z</time></trkpt><trkpt lat="51.9725674577" lon="-2.1858816594"><ele>21.29</ele><time>2015-05-13T09:42:29Z</time></trkpt><trkpt lat="51.9725099578" lon="-2.1858929750"><ele>20.32</ele><time>2015-05-13T09:42:37Z</time></trkpt><trkpt lat="51.9724672940" lon="-2.1859013569"><ele>18.40</ele><time>2015-05-13T09:42:42Z</time></trkpt><trkpt lat="51.9724076148" lon="-2.1859101579"><ele>16.96</ele><time>2015-05-13T09:42:51Z</time></trkpt><trkpt lat="51.9723458402" lon="-2.1859600302"><ele>15.52</ele><time>2015-05-13T09:43:00Z</time></trkpt><trkpt lat="51.9723019190" lon="-2.1860020235"><ele>19.36</ele><time>2015-05-13T09:43:05Z</time></trkpt><trkpt lat="51.9722950459" lon="-2.1860072203"><ele>16.00</ele><time>2015-05-13T09:43:06Z</time></trkpt><trkpt lat="51.9722504541" lon="-2.1860132553"><ele>12.63</ele><time>2015-05-13T09:43:11Z</time></trkpt><trkpt lat="51.9722407311" lon="-2.1860147640"><ele>15.04</ele><time>2015-05-13T09:43:12Z</time></trkpt><trkpt lat="51.9721743464" lon="-2.1860333718"><ele>15.04</ele><time>2015-05-13T09:43:19Z</time></trkpt><trkpt lat="51.9721457642" lon="-2.1860461123"><ele>12.15</ele><time>2015-05-13T09:43:22Z</time></trkpt><trkpt lat="51.9721356221" lon="-2.1860510577"><ele>14.08</ele><time>2015-05-13T09:43:23Z</time></trkpt><trkpt lat="51.9721049443" lon="-2.1860748623"><ele>16.48</ele><time>2015-05-13T09:43:26Z</time></trkpt><trkpt lat="51.9720830675" lon="-2.1860839147"><ele>10.71</ele><time>2015-05-13T09:43:29Z</time></trkpt><trkpt lat="51.9720733445" lon="-2.1860881895"><ele>13.60</ele><time>2015-05-13T09:43:30Z</time></trkpt><trkpt lat="51.9720168505" lon="-2.1861126646"><ele>14.08</ele><time>2015-05-13T09:43:36Z</time></trkpt><trkpt lat="51.9719999190" lon="-2.1861207113"><ele>8.79</ele><time>2015-05-13T09:43:38Z</time></trkpt><trkpt lat="51.9719921239" lon="-2.1861237288"><ele>13.60</ele><time>2015-05-13T09:43:39Z</time></trkpt><trkpt lat="51.9719824009" lon="-2.1861255728"><ele>12.63</ele><time>2015-05-13T09:43:40Z</time></trkpt><trkpt lat="51.9719471969" lon="-2.1861420851"><ele>9.75</ele><time>2015-05-13T09:43:44Z</time></trkpt><trkpt lat="51.9719255716" lon="-2.1861596033"><ele>13.60</ele><time>2015-05-13T09:43:46Z</time></trkpt><trkpt lat="51.9718950614" lon="-2.1861766186"><ele>11.19</ele><time>2015-05-13T09:43:49Z</time></trkpt><trkpt lat="51.9718387350" lon="-2.1861860063"><ele>14.56</ele><time>2015-05-13T09:43:54Z</time></trkpt><trkpt lat="51.9718312752" lon="-2.1861883532"><ele>10.23</ele><time>2015-05-13T09:43:55Z</time></trkpt><trkpt lat="51.9718237314" lon="-2.1861908678"><ele>10.23</ele><time>2015-05-13T09:43:56Z</time></trkpt><trkpt lat="51.9717985857" lon="-2.1862005908"><ele>12.63</ele><time>2015-05-13T09:43:59Z</time></trkpt><trkpt lat="51.9717920478" lon="-2.1862023510"><ele>6.87</ele><time>2015-05-13T09:44:00Z</time></trkpt><trkpt lat="51.9717844203" lon="-2.1862046979"><ele>11.19</ele><time>2015-05-13T09:44:01Z</time></trkpt><trkpt lat="51.9717489649" lon="-2.1862096433"><ele>16.00</ele><time>2015-05-13T09:44:05Z</time></trkpt><trkpt lat="51.9717406668" lon="-2.1862119064"><ele>10.71</ele><time>2015-05-13T09:44:06Z</time></trkpt><trkpt lat="51.9716843404" lon="-2.1862239763"><ele>10.23</ele><time>2015-05-13T09:44:12Z</time></trkpt><trkpt lat="51.9716679957" lon="-2.1862207912"><ele>14.08</ele><time>2015-05-13T09:44:14Z</time></trkpt><trkpt lat="51.9716529921" lon="-2.1862154268"><ele>8.79</ele><time>2015-05-13T09:44:16Z</time></trkpt><trkpt lat="51.9716346357" lon="-2.1862098947"><ele>11.67</ele><time>2015-05-13T09:44:18Z</time></trkpt><trkpt lat="51.9716266729" lon="-2.1861994173"><ele>4.46</ele><time>2015-05-13T09:44:38Z</time></trkpt><trkpt lat="51.9716267567" lon="-2.1861994173"><ele>15.04</ele><time>2015-05-13T09:44:39Z</time></trkpt><trkpt lat="51.9716267567" lon="-2.1861994173"><ele>9.75</ele><time>2015-05-13T09:44:40Z</time></trkpt><trkpt lat="51.9716261700" lon="-2.1861995850"><ele>3.98</ele><time>2015-05-13T09:44:50Z</time></trkpt><trkpt lat="51.9716264214" lon="-2.1861998364"><ele>12.63</ele><time>2015-05-13T09:44:51Z</time></trkpt><trkpt lat="51.9716267567" lon="-2.1862062905"><ele>9.75</ele><time>2015-05-13T09:44:53Z</time></trkpt><trkpt lat="51.9716254994" lon="-2.1862114035"><ele>11.19</ele><time>2015-05-13T09:44:54Z</time></trkpt><trkpt lat="51.9716125075" lon="-2.1862221323"><ele>10.71</ele><time>2015-05-13T09:45:17Z</time></trkpt><trkpt lat="51.9716098253" lon="-2.1862254012"><ele>11.67</ele><time>2015-05-13T09:45:44Z</time></trkpt><trkpt lat="51.9716106635" lon="-2.1862240601"><ele>8.31</ele><time>2015-05-13T09:45:46Z</time></trkpt><trkpt lat="51.9716048799" lon="-2.1862196177"><ele>14.56</ele><time>2015-05-13T09:45:47Z</time></trkpt><trkpt lat="51.9715979230" lon="-2.1862143371"><ele>8.79</ele><time>2015-05-13T09:45:48Z</time></trkpt><trkpt lat="51.9715825003" lon="-2.1862222161"><ele>14.08</ele><time>2015-05-13T09:45:50Z</time></trkpt><trkpt lat="51.9715771358" lon="-2.1862279158"><ele>12.15</ele><time>2015-05-13T09:45:51Z</time></trkpt><trkpt lat="51.9715707656" lon="-2.1862336155"><ele>10.71</ele><time>2015-05-13T09:45:53Z</time></trkpt><trkpt lat="51.9715721067" lon="-2.1862336155"><ele>24.17</ele><time>2015-05-13T09:46:00Z</time></trkpt><trkpt lat="51.9715726096" lon="-2.1862315200"><ele>6.39</ele><time>2015-05-13T09:46:01Z</time></trkpt><trkpt lat="51.9715728611" lon="-2.1862287540"><ele>11.67</ele><time>2015-05-13T09:46:02Z</time></trkpt><trkpt lat="51.9715409260" lon="-2.1861641295"><ele>7.35</ele><time>2015-05-13T09:46:10Z</time></trkpt><trkpt lat="51.9715334661" lon="-2.1861512214"><ele>10.71</ele><time>2015-05-13T09:46:11Z</time></trkpt><trkpt lat="51.9715006091" lon="-2.1861232258"><ele>4.94</ele><time>2015-05-13T09:46:14Z</time></trkpt><trkpt lat="51.9714871142" lon="-2.1861119941"><ele>10.23</ele><time>2015-05-13T09:46:15Z</time></trkpt><trkpt lat="51.9713951647" lon="-2.1860389877"><ele>11.67</ele><time>2015-05-13T09:46:22Z</time></trkpt><trkpt lat="51.9713757187" lon="-2.1860217210"><ele>9.75</ele><time>2015-05-13T09:46:24Z</time></trkpt><trkpt lat="51.9712877087" lon="-2.1858662367"><ele>6.39</ele><time>2015-05-13T09:46:38Z</time></trkpt><trkpt lat="51.9712830149" lon="-2.1858553402"><ele>12.63</ele><time>2015-05-13T09:46:39Z</time></trkpt><trkpt lat="51.9712791592" lon="-2.1858472098"><ele>9.75</ele><time>2015-05-13T09:46:40Z</time></trkpt><trkpt lat="51.9712494873" lon="-2.1857937332"><ele>12.15</ele><time>2015-05-13T09:46:44Z</time></trkpt><trkpt lat="51.9712379202" lon="-2.1857649833"><ele>10.23</ele><time>2015-05-13T09:46:46Z</time></trkpt><trkpt lat="51.9712148700" lon="-2.1856789850"><ele>9.27</ele><time>2015-05-13T09:46:51Z</time></trkpt><trkpt lat="51.9712047279" lon="-2.1856266819"><ele>11.19</ele><time>2015-05-13T09:46:54Z</time></trkpt><trkpt lat="51.9711893890" lon="-2.1855373308"><ele>12.15</ele><time>2015-05-13T09:47:00Z</time></trkpt><trkpt lat="51.9711868744" lon="-2.1855196450"><ele>7.83</ele><time>2015-05-13T09:47:01Z</time></trkpt><trkpt lat="51.9711832702" lon="-2.1855051443"><ele>7.83</ele><time>2015-05-13T09:47:02Z</time></trkpt><trkpt lat="51.9711760618" lon="-2.1854590438"><ele>11.67</ele><time>2015-05-13T09:47:05Z</time></trkpt><trkpt lat="51.9711743854" lon="-2.1854460519"><ele>15.04</ele><time>2015-05-13T09:47:06Z</time></trkpt><trkpt lat="51.9711743854" lon="-2.1854395978"><ele>10.71</ele><time>2015-05-13T09:47:07Z</time></trkpt><trkpt lat="51.9712025486" lon="-2.1854191460"><ele>11.67</ele><time>2015-05-13T09:47:26Z</time></trkpt><trkpt lat="51.9712181389" lon="-2.1853986103"><ele>10.23</ele><time>2015-05-13T09:47:29Z</time></trkpt><trkpt lat="51.9712251797" lon="-2.1853884682"><ele>7.35</ele><time>2015-05-13T09:47:34Z</time></trkpt><trkpt lat="51.9712294545" lon="-2.1853829361"><ele>12.63</ele><time>2015-05-13T09:47:35Z</time></trkpt><trkpt lat="51.9711749721" lon="-2.1852722950"><ele>10.71</ele><time>2015-05-13T09:47:55Z</time></trkpt><trkpt lat="51.9712047279" lon="-2.1852525137"><ele>7.83</ele><time>2015-05-13T09:48:07Z</time></trkpt><trkpt lat="51.9711957593" lon="-2.1851929184"><ele>8.31</ele><time>2015-05-13T09:48:14Z</time></trkpt><trkpt lat="51.9711786602" lon="-2.1850730572"><ele>9.75</ele><time>2015-05-13T09:48:22Z</time></trkpt><trkpt lat="51.9711674284" lon="-2.1849991288"><ele>9.75</ele><time>2015-05-13T09:48:27Z</time></trkpt><trkpt lat="51.9711604714" lon="-2.1849707980"><ele>12.63</ele><time>2015-05-13T09:48:29Z</time></trkpt><trkpt lat="51.9711506646" lon="-2.1849103644"><ele>8.79</ele><time>2015-05-13T09:48:33Z</time></trkpt><trkpt lat="51.9711468928" lon="-2.1848643478"><ele>10.71</ele><time>2015-05-13T09:48:36Z</time></trkpt><trkpt lat="51.9711512513" lon="-2.1848091949"><ele>7.83</ele><time>2015-05-13T09:48:39Z</time></trkpt><trkpt lat="51.9711532630" lon="-2.1847714763"><ele>7.35</ele><time>2015-05-13T09:48:41Z</time></trkpt><trkpt lat="51.9711740501" lon="-2.1846372820"><ele>13.12</ele><time>2015-05-13T09:48:49Z</time></trkpt><trkpt lat="51.9711752236" lon="-2.1846245416"><ele>8.79</ele><time>2015-05-13T09:48:50Z</time></trkpt><trkpt lat="51.9711763971" lon="-2.1846117172"><ele>8.31</ele><time>2015-05-13T09:48:51Z</time></trkpt><trkpt lat="51.9711779058" lon="-2.1845429018"><ele>11.67</ele><time>2015-05-13T09:48:55Z</time></trkpt><trkpt lat="51.9711753074" lon="-2.1845163312"><ele>8.31</ele><time>2015-05-13T09:48:57Z</time></trkpt><trkpt lat="51.9711761456" lon="-2.1844983939"><ele>9.75</ele><time>2015-05-13T09:48:58Z</time></trkpt><trkpt lat="51.9711981062" lon="-2.1843977273"><ele>13.12</ele><time>2015-05-13T09:49:04Z</time></trkpt><trkpt lat="51.9711989444" lon="-2.1843844838"><ele>8.31</ele><time>2015-05-13T09:49:05Z</time></trkpt><trkpt lat="51.9711986091" lon="-2.1843730006"><ele>12.63</ele><time>2015-05-13T09:49:06Z</time></trkpt><trkpt lat="51.9711957593" lon="-2.1843577456"><ele>8.31</ele><time>2015-05-13T09:49:07Z</time></trkpt><trkpt lat="51.9711948372" lon="-2.1843144111"><ele>13.12</ele><time>2015-05-13T09:49:10Z</time></trkpt><trkpt lat="51.9712004531" lon="-2.1842842363"><ele>8.79</ele><time>2015-05-13T09:49:12Z</time></trkpt><trkpt lat="51.9712014589" lon="-2.1842523851"><ele>14.08</ele><time>2015-05-13T09:49:14Z</time></trkpt><trkpt lat="51.9712024648" lon="-2.1842353698"><ele>10.23</ele><time>2015-05-13T09:49:15Z</time></trkpt><trkpt lat="51.9712058175" lon="-2.1842191089"><ele>5.42</ele><time>2015-05-13T09:49:16Z</time></trkpt><trkpt lat="51.9712102599" lon="-2.1842031833"><ele>11.19</ele><time>2015-05-13T09:49:17Z</time></trkpt><trkpt lat="51.9712141156" lon="-2.1841869224"><ele>6.87</ele><time>2015-05-13T09:49:18Z</time></trkpt><trkpt lat="51.9712178037" lon="-2.1841717511"><ele>11.67</ele><time>2015-05-13T09:49:19Z</time></trkpt><trkpt lat="51.9712253474" lon="-2.1841397323"><ele>12.63</ele><time>2015-05-13T09:49:21Z</time></trkpt><trkpt lat="51.9712295383" lon="-2.1841254830"><ele>6.39</ele><time>2015-05-13T09:49:22Z</time></trkpt><trkpt lat="51.9712321367" lon="-2.1841092221"><ele>10.71</ele><time>2015-05-13T09:49:23Z</time></trkpt><trkpt lat="51.9712467212" lon="-2.1840502135"><ele>10.23</ele><time>2015-05-13T09:49:27Z</time></trkpt><trkpt lat="51.9712541811" lon="-2.1840197034"><ele>11.67</ele><time>2015-05-13T09:49:29Z</time></trkpt><trkpt lat="51.9712630659" lon="-2.1839731839"><ele>8.31</ele><time>2015-05-13T09:49:32Z</time></trkpt><trkpt lat="51.9712659996" lon="-2.1839572582"><ele>9.27</ele><time>2015-05-13T09:49:33Z</time></trkpt><trkpt lat="51.9712698553" lon="-2.1839228924"><ele>12.63</ele><time>2015-05-13T09:49:35Z</time></trkpt><trkpt lat="51.9712712802" lon="-2.1839099005"><ele>12.63</ele><time>2015-05-13T09:49:36Z</time></trkpt><trkpt lat="51.9712730404" lon="-2.1838981658"><ele>8.31</ele><time>2015-05-13T09:49:37Z</time></trkpt><trkpt lat="51.9712732080" lon="-2.1838873532"><ele>10.71</ele><time>2015-05-13T09:49:38Z</time></trkpt><trkpt lat="51.9712769799" lon="-2.1838599443"><ele>15.52</ele><time>2015-05-13T09:49:40Z</time></trkpt><trkpt lat="51.9712789916" lon="-2.1838437673"><ele>9.75</ele><time>2015-05-13T09:49:41Z</time></trkpt><trkpt lat="51.9712821767" lon="-2.1838294342"><ele>13.60</ele><time>2015-05-13T09:49:42Z</time></trkpt><trkpt lat="51.9712888822" lon="-2.1838141792"><ele>8.79</ele><time>2015-05-13T09:49:43Z</time></trkpt><trkpt lat="51.9712956715" lon="-2.1837800648"><ele>12.63</ele><time>2015-05-13T09:49:45Z</time></trkpt><trkpt lat="51.9713009521" lon="-2.1837555058"><ele>13.12</ele><time>2015-05-13T09:49:47Z</time></trkpt><trkpt lat="51.9713035505" lon="-2.1837431006"><ele>7.83</ele><time>2015-05-13T09:49:48Z</time></trkpt><trkpt lat="51.9713032991" lon="-2.1837296896"><ele>10.71</ele><time>2015-05-13T09:49:49Z</time></trkpt><trkpt lat="51.9713048916" lon="-2.1836971678"><ele>14.08</ele><time>2015-05-13T09:49:51Z</time></trkpt><trkpt lat="51.9713151176" lon="-2.1836597007"><ele>5.91</ele><time>2015-05-13T09:49:53Z</time></trkpt><trkpt lat="51.9713184703" lon="-2.1836440265"><ele>11.19</ele><time>2015-05-13T09:49:54Z</time></trkpt><trkpt lat="51.9713227451" lon="-2.1836274303"><ele>8.31</ele><time>2015-05-13T09:49:55Z</time></trkpt><trkpt lat="51.9713265169" lon="-2.1836110018"><ele>13.12</ele><time>2015-05-13T09:49:56Z</time></trkpt><trkpt lat="51.9713395927" lon="-2.1835721098"><ele>8.79</ele><time>2015-05-13T09:49:59Z</time></trkpt><trkpt lat="51.9713421073" lon="-2.1835582796"><ele>12.63</ele><time>2015-05-13T09:50:00Z</time></trkpt><trkpt lat="51.9713457115" lon="-2.1835230757"><ele>16.00</ele><time>2015-05-13T09:50:02Z</time></trkpt><trkpt lat="51.9713479746" lon="-2.1835070662"><ele>8.79</ele><time>2015-05-13T09:50:03Z</time></trkpt><trkpt lat="51.9713521656" lon="-2.1834918950"><ele>10.71</ele><time>2015-05-13T09:50:04Z</time></trkpt><trkpt lat="51.9713618886" lon="-2.1834577806"><ele>13.12</ele><time>2015-05-13T09:50:06Z</time></trkpt><trkpt lat="51.9713783171" lon="-2.1834024601"><ele>8.79</ele><time>2015-05-13T09:50:10Z</time></trkpt><trkpt lat="51.9713813346" lon="-2.1833893005"><ele>13.12</ele><time>2015-05-13T09:50:11Z</time></trkpt><trkpt lat="51.9713887945" lon="-2.1833508275"><ele>9.27</ele><time>2015-05-13T09:50:14Z</time></trkpt><trkpt lat="51.9713918120" lon="-2.1833362430"><ele>10.71</ele><time>2015-05-13T09:50:15Z</time></trkpt><trkpt lat="51.9713947456" lon="-2.1833206527"><ele>14.56</ele><time>2015-05-13T09:50:16Z</time></trkpt><trkpt lat="51.9714021217" lon="-2.1832611412"><ele>8.31</ele><time>2015-05-13T09:50:20Z</time></trkpt><trkpt lat="51.9714055583" lon="-2.1832471434"><ele>13.12</ele><time>2015-05-13T09:50:21Z</time></trkpt><trkpt lat="51.9714104198" lon="-2.1832147054"><ele>17.92</ele><time>2015-05-13T09:50:23Z</time></trkpt><trkpt lat="51.9714115933" lon="-2.1831992827"><ele>11.67</ele><time>2015-05-13T09:50:24Z</time></trkpt><trkpt lat="51.9714128505" lon="-2.1831846982"><ele>16.96</ele><time>2015-05-13T09:50:25Z</time></trkpt><trkpt lat="51.9714170415" lon="-2.1831685212"><ele>11.67</ele><time>2015-05-13T09:50:26Z</time></trkpt><trkpt lat="51.9714291953" lon="-2.1831157152"><ele>16.96</ele><time>2015-05-13T09:50:29Z</time></trkpt><trkpt lat="51.9714343082" lon="-2.1830968559"><ele>13.60</ele><time>2015-05-13T09:50:30Z</time></trkpt><trkpt lat="51.9714376610" lon="-2.1830796730"><ele>8.31</ele><time>2015-05-13T09:50:31Z</time></trkpt><trkpt lat="51.9714400917" lon="-2.1830694471"><ele>14.08</ele><time>2015-05-13T09:50:32Z</time></trkpt><trkpt lat="51.9714450371" lon="-2.1830430441"><ele>15.52</ele><time>2015-05-13T09:50:34Z</time></trkpt><trkpt lat="51.9714436121" lon="-2.1830331534"><ele>10.71</ele><time>2015-05-13T09:50:38Z</time></trkpt><trkpt lat="51.9714428578" lon="-2.1830446366"><ele>11.67</ele><time>2015-05-13T09:50:39Z</time></trkpt><trkpt lat="51.9714420196" lon="-2.1830891445"><ele>15.04</ele><time>2015-05-13T09:50:41Z</time></trkpt><trkpt lat="51.9714428578" lon="-2.1831203252"><ele>13.12</ele><time>2015-05-13T09:50:58Z</time></trkpt><trkpt lat="51.9714457076" lon="-2.1831051540"><ele>8.31</ele><time>2015-05-13T09:51:00Z</time></trkpt><trkpt lat="51.9714453723" lon="-2.1830924135"><ele>15.04</ele><time>2015-05-13T09:51:01Z</time></trkpt><trkpt lat="51.9714456238" lon="-2.1830772422"><ele>11.67</ele><time>2015-05-13T09:51:04Z</time></trkpt><trkpt lat="51.9714474678" lon="-2.1830503363"><ele>16.96</ele><time>2015-05-13T09:51:06Z</time></trkpt><trkpt lat="51.9714478869" lon="-2.1830421221"><ele>14.08</ele><time>2015-05-13T09:51:07Z</time></trkpt><trkpt lat="51.9714477193" lon="-2.1830335725"><ele>8.31</ele><time>2015-05-13T09:51:08Z</time></trkpt><trkpt lat="51.9714509044" lon="-2.1830258612"><ele>14.56</ele><time>2015-05-13T09:51:09Z</time></trkpt><trkpt lat="51.9714566879" lon="-2.1830144618"><ele>15.04</ele><time>2015-05-13T09:51:10Z</time></trkpt><trkpt lat="51.9714682549" lon="-2.1829564590"><ele>12.15</ele><time>2015-05-13T09:51:13Z</time></trkpt><trkpt lat="51.9714715239" lon="-2.1829367615"><ele>19.84</ele><time>2015-05-13T09:51:14Z</time></trkpt><trkpt lat="51.9714765530" lon="-2.1829174832"><ele>12.63</ele><time>2015-05-13T09:51:15Z</time></trkpt><trkpt lat="51.9714801572" lon="-2.1828982886"><ele>8.31</ele><time>2015-05-13T09:51:16Z</time></trkpt><trkpt lat="51.9714845158" lon="-2.1828805190"><ele>14.56</ele><time>2015-05-13T09:51:17Z</time></trkpt><trkpt lat="51.9715011958" lon="-2.1828257013"><ele>14.56</ele><time>2015-05-13T09:51:21Z</time></trkpt><trkpt lat="51.9715118408" lon="-2.1827997174"><ele>15.52</ele><time>2015-05-13T09:51:23Z</time></trkpt><trkpt lat="51.9715213124" lon="-2.1828148887"><ele>14.56</ele><time>2015-05-13T09:51:43Z</time></trkpt><trkpt lat="51.9715323765" lon="-2.1828685328"><ele>15.52</ele><time>2015-05-13T09:51:46Z</time></trkpt><trkpt lat="51.9715217315" lon="-2.1828948520"><ele>11.67</ele><time>2015-05-13T09:51:48Z</time></trkpt><trkpt lat="51.9715179596" lon="-2.1829114482"><ele>16.48</ele><time>2015-05-13T09:51:49Z</time></trkpt><trkpt lat="51.9715103321" lon="-2.1829660144"><ele>11.19</ele><time>2015-05-13T09:51:52Z</time></trkpt><trkpt lat="51.9715080690" lon="-2.1829829458"><ele>14.08</ele><time>2015-05-13T09:51:53Z</time></trkpt><trkpt lat="51.9714970887" lon="-2.1830471512"><ele>10.71</ele><time>2015-05-13T09:51:57Z</time></trkpt><trkpt lat="51.9714895450" lon="-2.1830608137"><ele>13.60</ele><time>2015-05-13T09:51:58Z</time></trkpt><trkpt lat="51.9714746252" lon="-2.1830748115"><ele>15.04</ele><time>2015-05-13T09:52:00Z</time></trkpt><trkpt lat="51.9714401755" lon="-2.1830934193"><ele>7.83</ele><time>2015-05-13T09:52:03Z</time></trkpt><trkpt lat="51.9714327157" lon="-2.1831082553"><ele>11.19</ele><time>2015-05-13T09:52:04Z</time></trkpt><trkpt lat="51.9714261778" lon="-2.1831230912"><ele>14.08</ele><time>2015-05-13T09:52:05Z</time></trkpt><trkpt lat="51.9714218192" lon="-2.1831393521"><ele>14.08</ele><time>2015-05-13T09:52:06Z</time></trkpt><trkpt lat="51.9714012835" lon="-2.1832032222"><ele>12.15</ele><time>2015-05-13T09:52:10Z</time></trkpt><trkpt lat="51.9713835139" lon="-2.1833493188"><ele>13.60</ele><time>2015-05-13T09:52:19Z</time></trkpt><trkpt lat="51.9713634811" lon="-2.1833965927"><ele>10.23</ele><time>2015-05-13T09:52:23Z</time></trkpt><trkpt lat="51.9713531714" lon="-2.1834276058"><ele>13.60</ele><time>2015-05-13T09:52:25Z</time></trkpt><trkpt lat="51.9713439513" lon="-2.1834854409"><ele>10.23</ele><time>2015-05-13T09:52:28Z</time></trkpt><trkpt lat="51.9713415205" lon="-2.1835053898"><ele>10.71</ele><time>2015-05-13T09:52:29Z</time></trkpt><trkpt lat="51.9713343959" lon="-2.1835457906"><ele>14.08</ele><time>2015-05-13T09:52:31Z</time></trkpt><trkpt lat="51.9713062327" lon="-2.1836170368"><ele>10.23</ele><time>2015-05-13T09:52:36Z</time></trkpt><trkpt lat="51.9712876249" lon="-2.1836660709"><ele>15.04</ele><time>2015-05-13T09:52:40Z</time></trkpt><trkpt lat="51.9712830987" lon="-2.1836783085"><ele>11.19</ele><time>2015-05-13T09:52:41Z</time></trkpt><trkpt lat="51.9712669216" lon="-2.1837373171"><ele>12.63</ele><time>2015-05-13T09:52:45Z</time></trkpt><trkpt lat="51.9712600484" lon="-2.1838193759"><ele>9.27</ele><time>2015-05-13T09:52:49Z</time></trkpt><trkpt lat="51.9712510798" lon="-2.1838769596"><ele>12.63</ele><time>2015-05-13T09:52:52Z</time></trkpt><trkpt lat="51.9712357409" lon="-2.1839333698"><ele>8.79</ele><time>2015-05-13T09:52:55Z</time></trkpt><trkpt lat="51.9712233357" lon="-2.1839616168"><ele>12.15</ele><time>2015-05-13T09:52:57Z</time></trkpt><trkpt lat="51.9712136965" lon="-2.1839918755"><ele>7.83</ele><time>2015-05-13T09:52:59Z</time></trkpt><trkpt lat="51.9712116849" lon="-2.1840105671"><ele>12.63</ele><time>2015-05-13T09:53:00Z</time></trkpt><trkpt lat="51.9712109305" lon="-2.1840290911"><ele>9.75</ele><time>2015-05-13T09:53:01Z</time></trkpt><trkpt lat="51.9712026324" lon="-2.1841112338"><ele>13.12</ele><time>2015-05-13T09:53:05Z</time></trkpt><trkpt lat="51.9712012913" lon="-2.1841345355"><ele>9.75</ele><time>2015-05-13T09:53:06Z</time></trkpt><trkpt lat="51.9711998664" lon="-2.1841522213"><ele>5.42</ele><time>2015-05-13T09:53:07Z</time></trkpt><trkpt lat="51.9711974356" lon="-2.1841701586"><ele>10.71</ele><time>2015-05-13T09:53:08Z</time></trkpt><trkpt lat="51.9711932447" lon="-2.1842030156"><ele>12.15</ele><time>2015-05-13T09:53:10Z</time></trkpt><trkpt lat="51.9711831026" lon="-2.1842673048"><ele>8.79</ele><time>2015-05-13T09:53:14Z</time></trkpt><trkpt lat="51.9711810071" lon="-2.1842865832"><ele>9.27</ele><time>2015-05-13T09:53:15Z</time></trkpt><trkpt lat="51.9711760618" lon="-2.1843367908"><ele>13.12</ele><time>2015-05-13T09:53:18Z</time></trkpt><trkpt lat="51.9711753074" lon="-2.1843540575"><ele>9.27</ele><time>2015-05-13T09:53:19Z</time></trkpt><trkpt lat="51.9711454678" lon="-2.1845295746"><ele>12.15</ele><time>2015-05-13T09:53:29Z</time></trkpt><trkpt lat="51.9711364992" lon="-2.1845485177"><ele>7.83</ele><time>2015-05-13T09:53:31Z</time></trkpt><trkpt lat="51.9711186457" lon="-2.1845738310"><ele>10.71</ele><time>2015-05-13T09:53:34Z</time></trkpt><trkpt lat="51.9710964337" lon="-2.1845943667"><ele>4.94</ele><time>2015-05-13T09:53:38Z</time></trkpt><trkpt lat="51.9710903149" lon="-2.1846021619"><ele>11.19</ele><time>2015-05-13T09:53:39Z</time></trkpt><trkpt lat="51.9710776582" lon="-2.1846143156"><ele>7.83</ele><time>2015-05-13T09:53:42Z</time></trkpt><trkpt lat="51.9710681867" lon="-2.1846171655"><ele>11.19</ele><time>2015-05-13T09:53:44Z</time></trkpt><trkpt lat="51.9710657559" lon="-2.1846159920"><ele>10.23</ele><time>2015-05-13T09:53:45Z</time></trkpt><trkpt lat="51.9710442983" lon="-2.1845996473"><ele>9.75</ele><time>2015-05-13T09:54:02Z</time></trkpt><trkpt lat="51.9710383471" lon="-2.1845970489"><ele>15.04</ele><time>2015-05-13T09:54:04Z</time></trkpt><trkpt lat="51.9710330665" lon="-2.1845968813"><ele>4.94</ele><time>2015-05-13T09:54:05Z</time></trkpt><trkpt lat="51.9710266963" lon="-2.1845936123"><ele>11.67</ele><time>2015-05-13T09:54:06Z</time></trkpt><trkpt lat="51.9710189011" lon="-2.1845895890"><ele>14.56</ele><time>2015-05-13T09:54:07Z</time></trkpt><trkpt lat="51.9710104354" lon="-2.1845879965"><ele>7.83</ele><time>2015-05-13T09:54:08Z</time></trkpt><trkpt lat="51.9710025564" lon="-2.1845869906"><ele>10.71</ele><time>2015-05-13T09:54:09Z</time></trkpt><trkpt lat="51.9709950127" lon="-2.1845888346"><ele>15.04</ele><time>2015-05-13T09:54:10Z</time></trkpt><trkpt lat="51.9709878042" lon="-2.1845919359"><ele>6.39</ele><time>2015-05-13T09:54:11Z</time></trkpt><trkpt lat="51.9709808473" lon="-2.1845921036"><ele>11.19</ele><time>2015-05-13T09:54:12Z</time></trkpt><trkpt lat="51.9709203299" lon="-2.1846001502"><ele>5.42</ele><time>2015-05-13T09:54:21Z</time></trkpt><trkpt lat="51.9709142949" lon="-2.1846007369"><ele>11.67</ele><time>2015-05-13T09:54:22Z</time></trkpt><trkpt lat="51.9708906580" lon="-2.1846095379"><ele>16.00</ele><time>2015-05-13T09:54:25Z</time></trkpt><trkpt lat="51.9708824437" lon="-2.1846083645"><ele>3.50</ele><time>2015-05-13T09:54:26Z</time></trkpt><trkpt lat="51.9708738104" lon="-2.1846055146"><ele>11.67</ele><time>2015-05-13T09:54:27Z</time></trkpt><trkpt lat="51.9708481617" lon="-2.1846025810"><ele>3.98</ele><time>2015-05-13T09:54:30Z</time></trkpt><trkpt lat="51.9708386064" lon="-2.1846019942"><ele>10.23</ele><time>2015-05-13T09:54:31Z</time></trkpt><trkpt lat="51.9708272070" lon="-2.1846011560"><ele>13.12</ele><time>2015-05-13T09:54:32Z</time></trkpt><trkpt lat="51.9708091021" lon="-2.1846006531"><ele>18.88</ele><time>2015-05-13T09:54:34Z</time></trkpt><trkpt lat="51.9707994629" lon="-2.1846004855"><ele>6.87</ele><time>2015-05-13T09:54:35Z</time></trkpt><trkpt lat="51.9707903266" lon="-2.1846019104"><ele>8.79</ele><time>2015-05-13T09:54:36Z</time></trkpt><trkpt lat="51.9707806874" lon="-2.1846010722"><ele>12.15</ele><time>2015-05-13T09:54:37Z</time></trkpt><trkpt lat="51.9707632530" lon="-2.1845967136"><ele>7.35</ele><time>2015-05-13T09:54:39Z</time></trkpt><trkpt lat="51.9707552902" lon="-2.1845956240"><ele>10.71</ele><time>2015-05-13T09:54:40Z</time></trkpt><trkpt lat="51.9707344193" lon="-2.1845947858"><ele>16.00</ele><time>2015-05-13T09:54:42Z</time></trkpt><trkpt lat="51.9707259536" lon="-2.1845936123"><ele>10.23</ele><time>2015-05-13T09:54:43Z</time></trkpt><trkpt lat="51.9707101956" lon="-2.1845905110"><ele>13.12</ele><time>2015-05-13T09:54:45Z</time></trkpt><trkpt lat="51.9706895761" lon="-2.1845965460"><ele>13.12</ele><time>2015-05-13T09:54:47Z</time></trkpt><trkpt lat="51.9706680346" lon="-2.1845946182"><ele>7.83</ele><time>2015-05-13T09:54:49Z</time></trkpt><trkpt lat="51.9706573896" lon="-2.1845916007"><ele>10.23</ele><time>2015-05-13T09:54:50Z</time></trkpt><trkpt lat="51.9706469122" lon="-2.1845905110"><ele>13.12</ele><time>2015-05-13T09:54:51Z</time></trkpt><trkpt lat="51.9706278015" lon="-2.1845848951"><ele>9.27</ele><time>2015-05-13T09:54:53Z</time></trkpt><trkpt lat="51.9706173241" lon="-2.1845763456"><ele>10.23</ele><time>2015-05-13T09:54:54Z</time></trkpt><trkpt lat="51.9705946930" lon="-2.1845708974"><ele>14.56</ele><time>2015-05-13T09:54:56Z</time></trkpt><trkpt lat="51.9705749955" lon="-2.1845725738"><ele>6.87</ele><time>2015-05-13T09:54:58Z</time></trkpt><trkpt lat="51.9705676194" lon="-2.1845781058"><ele>12.15</ele><time>2015-05-13T09:54:59Z</time></trkpt><trkpt lat="51.9705591537" lon="-2.1845796145"><ele>7.83</ele><time>2015-05-13T09:55:00Z</time></trkpt><trkpt lat="51.9705497660" lon="-2.1845777705"><ele>13.12</ele><time>2015-05-13T09:55:01Z</time></trkpt><trkpt lat="51.9705151487" lon="-2.1845544688"><ele>6.39</ele><time>2015-05-13T09:55:04Z</time></trkpt><trkpt lat="51.9705031626" lon="-2.1845495235"><ele>10.71</ele><time>2015-05-13T09:55:05Z</time></trkpt><trkpt lat="51.9704842195" lon="-2.1845431533"><ele>12.63</ele><time>2015-05-13T09:55:07Z</time></trkpt><trkpt lat="51.9704778492" lon="-2.1845429856"><ele>8.79</ele><time>2015-05-13T09:55:08Z</time></trkpt><trkpt lat="51.9704717305" lon="-2.1845417283"><ele>10.71</ele><time>2015-05-13T09:55:09Z</time></trkpt><trkpt lat="51.9704703894" lon="-2.1845428180"><ele>11.19</ele><time>2015-05-13T09:55:11Z</time></trkpt><trkpt lat="51.9704713952" lon="-2.1845449135"><ele>6.87</ele><time>2015-05-13T09:55:15Z</time></trkpt><trkpt lat="51.9704714790" lon="-2.1845449135"><ele>11.67</ele><time>2015-05-13T09:55:16Z</time></trkpt><trkpt lat="51.9704712275" lon="-2.1845446620"><ele>-0.82</ele><time>2015-05-13T09:55:17Z</time></trkpt><trkpt lat="51.9704708923" lon="-2.1845442429"><ele>15.52</ele><time>2015-05-13T09:55:18Z</time></trkpt><trkpt lat="51.9704704732" lon="-2.1845438238"><ele>7.35</ele><time>2015-05-13T09:55:19Z</time></trkpt><trkpt lat="51.9704623427" lon="-2.1845469251"><ele>12.63</ele><time>2015-05-13T09:55:20Z</time></trkpt><trkpt lat="51.9704191759" lon="-2.1846030001"><ele>7.35</ele><time>2015-05-13T09:55:25Z</time></trkpt><trkpt lat="51.9704138953" lon="-2.1846161596"><ele>14.08</ele><time>2015-05-13T09:55:26Z</time></trkpt><trkpt lat="51.9704112969" lon="-2.1846297383"><ele>10.23</ele><time>2015-05-13T09:55:27Z</time></trkpt><trkpt lat="51.9703931082" lon="-2.1846573148"><ele>14.08</ele><time>2015-05-13T09:55:30Z</time></trkpt><trkpt lat="51.9703833014" lon="-2.1846569795"><ele>7.83</ele><time>2015-05-13T09:55:31Z</time></trkpt><trkpt lat="51.9703769311" lon="-2.1846589912"><ele>12.15</ele><time>2015-05-13T09:55:32Z</time></trkpt><trkpt lat="51.9703667052" lon="-2.1846559737"><ele>4.46</ele><time>2015-05-13T09:55:42Z</time></trkpt><trkpt lat="51.9703664538" lon="-2.1846559737"><ele>9.75</ele><time>2015-05-13T09:55:43Z</time></trkpt><trkpt lat="51.9703525398" lon="-2.1846662834"><ele>16.00</ele><time>2015-05-13T09:55:45Z</time></trkpt><trkpt lat="51.9703438226" lon="-2.1846741624"><ele>12.15</ele><time>2015-05-13T09:55:46Z</time></trkpt><trkpt lat="51.9703187607" lon="-2.1846858971"><ele>9.75</ele><time>2015-05-13T09:55:48Z</time></trkpt><trkpt lat="51.9702836405" lon="-2.1846976317"><ele>11.67</ele><time>2015-05-13T09:55:51Z</time></trkpt><trkpt lat="51.9702699780" lon="-2.1846989729"><ele>0.62</ele><time>2015-05-13T09:56:01Z</time></trkpt><trkpt lat="51.9702637754" lon="-2.1847002301"><ele>10.71</ele><time>2015-05-13T09:56:02Z</time></trkpt><trkpt lat="51.9702455029" lon="-2.1847045887"><ele>14.08</ele><time>2015-05-13T09:56:04Z</time></trkpt><trkpt lat="51.9702396356" lon="-2.1847112942"><ele>14.56</ele><time>2015-05-13T09:56:05Z</time></trkpt><trkpt lat="51.9702339359" lon="-2.1847195085"><ele>6.39</ele><time>2015-05-13T09:56:06Z</time></trkpt><trkpt lat="51.9702277333" lon="-2.1847273037"><ele>10.71</ele><time>2015-05-13T09:56:07Z</time></trkpt><trkpt lat="51.9702127296" lon="-2.1847470012"><ele>16.48</ele><time>2015-05-13T09:56:09Z</time></trkpt><trkpt lat="51.9702067785" lon="-2.1847533714"><ele>8.31</ele><time>2015-05-13T09:56:10Z</time></trkpt><trkpt lat="51.9701642822" lon="-2.1847807802"><ele>13.12</ele><time>2015-05-13T09:56:14Z</time></trkpt><trkpt lat="51.9701474346" lon="-2.1847899165"><ele>7.35</ele><time>2015-05-13T09:56:16Z</time></trkpt><trkpt lat="51.9701375440" lon="-2.1847887430"><ele>11.67</ele><time>2015-05-13T09:56:17Z</time></trkpt><trkpt lat="51.9701119792" lon="-2.1847877372"><ele>13.12</ele><time>2015-05-13T09:56:19Z</time></trkpt><trkpt lat="51.9700912759" lon="-2.1847868152"><ele>8.79</ele><time>2015-05-13T09:56:21Z</time></trkpt><trkpt lat="51.9700807147" lon="-2.1847904194"><ele>12.63</ele><time>2015-05-13T09:56:22Z</time></trkpt><trkpt lat="51.9700713269" lon="-2.1847959515"><ele>8.79</ele><time>2015-05-13T09:56:23Z</time></trkpt><trkpt lat="51.9700615201" lon="-2.1848071832"><ele>13.12</ele><time>2015-05-13T09:56:24Z</time></trkpt><trkpt lat="51.9700532220" lon="-2.1848153137"><ele>16.48</ele><time>2015-05-13T09:56:25Z</time></trkpt><trkpt lat="51.9700433314" lon="-2.1848222706"><ele>12.63</ele><time>2015-05-13T09:56:26Z</time></trkpt><trkpt lat="51.9700350333" lon="-2.1848271322"><ele>8.31</ele><time>2015-05-13T09:56:27Z</time></trkpt><trkpt lat="51.9700263161" lon="-2.1848342568"><ele>11.67</ele><time>2015-05-13T09:56:28Z</time></trkpt><trkpt lat="51.9699430838" lon="-2.1848508529"><ele>16.48</ele><time>2015-05-13T09:56:36Z</time></trkpt><trkpt lat="51.9699367136" lon="-2.1848553792"><ele>12.15</ele><time>2015-05-13T09:56:37Z</time></trkpt><trkpt lat="51.9699280802" lon="-2.1848588996"><ele>9.27</ele><time>2015-05-13T09:56:38Z</time></trkpt><trkpt lat="51.9699066225" lon="-2.1848725621"><ele>14.56</ele><time>2015-05-13T09:56:40Z</time></trkpt><trkpt lat="51.9698987436" lon="-2.1848807763"><ele>12.63</ele><time>2015-05-13T09:56:41Z</time></trkpt><trkpt lat="51.9698906131" lon="-2.1848843805"><ele>3.98</ele><time>2015-05-13T09:56:42Z</time></trkpt><trkpt lat="51.9698809739" lon="-2.1848872304"><ele>11.19</ele><time>2015-05-13T09:56:43Z</time></trkpt><trkpt lat="51.9698567502" lon="-2.1848946065"><ele>15.04</ele><time>2015-05-13T09:56:45Z</time></trkpt><trkpt lat="51.9698449317" lon="-2.1848982107"><ele>11.19</ele><time>2015-05-13T09:56:46Z</time></trkpt><trkpt lat="51.9698278327" lon="-2.1849057544"><ele>10.71</ele><time>2015-05-13T09:56:48Z</time></trkpt><trkpt lat="51.9697487913" lon="-2.1849309839"><ele>14.08</ele><time>2015-05-13T09:56:56Z</time></trkpt><trkpt lat="51.9697389007" lon="-2.1849317383"><ele>10.23</ele><time>2015-05-13T09:56:57Z</time></trkpt><trkpt lat="51.9696921296" lon="-2.1849473286"><ele>16.00</ele><time>2015-05-13T09:57:02Z</time></trkpt><trkpt lat="51.9696819037" lon="-2.1849476639"><ele>10.71</ele><time>2015-05-13T09:57:03Z</time></trkpt><trkpt lat="51.9696350489" lon="-2.1849646792"><ele>13.60</ele><time>2015-05-13T09:57:07Z</time></trkpt><trkpt lat="51.9696273375" lon="-2.1849691216"><ele>6.87</ele><time>2015-05-13T09:57:08Z</time></trkpt><trkpt lat="51.9696197938" lon="-2.1849754080"><ele>11.19</ele><time>2015-05-13T09:57:09Z</time></trkpt><trkpt lat="51.9695990905" lon="-2.1849837899"><ele>15.04</ele><time>2015-05-13T09:57:11Z</time></trkpt><trkpt lat="51.9695912953" lon="-2.1849908307"><ele>13.12</ele><time>2015-05-13T09:57:12Z</time></trkpt><trkpt lat="51.9695663173" lon="-2.1850044932"><ele>9.75</ele><time>2015-05-13T09:57:15Z</time></trkpt><trkpt lat="51.9695436861" lon="-2.1850174014"><ele>14.08</ele><time>2015-05-13T09:57:17Z</time></trkpt><trkpt lat="51.9695337955" lon="-2.1850179043"><ele>13.12</ele><time>2015-05-13T09:57:18Z</time></trkpt><trkpt lat="51.9695244078" lon="-2.1850184072"><ele>9.75</ele><time>2015-05-13T09:57:19Z</time></trkpt><trkpt lat="51.9695146848" lon="-2.1850208379"><ele>10.71</ele><time>2015-05-13T09:57:20Z</time></trkpt><trkpt lat="51.9694679976" lon="-2.1850329079"><ele>15.52</ele><time>2015-05-13T09:57:24Z</time></trkpt><trkpt lat="51.9694639742" lon="-2.1850397810"><ele>11.67</ele><time>2015-05-13T09:57:25Z</time></trkpt><trkpt lat="51.9694573525" lon="-2.1850486659"><ele>6.39</ele><time>2015-05-13T09:57:26Z</time></trkpt><trkpt lat="51.9694490544" lon="-2.1850577183"><ele>12.63</ele><time>2015-05-13T09:57:27Z</time></trkpt><trkpt lat="51.9694308657" lon="-2.1850686986"><ele>13.60</ele><time>2015-05-13T09:57:29Z</time></trkpt><trkpt lat="51.9694226515" lon="-2.1850674413"><ele>8.79</ele><time>2015-05-13T09:57:30Z</time></trkpt><trkpt lat="51.9693995174" lon="-2.1850743145"><ele>12.15</ele><time>2015-05-13T09:57:32Z</time></trkpt><trkpt lat="51.9693758804" lon="-2.1850860491"><ele>13.12</ele><time>2015-05-13T09:57:34Z</time></trkpt><trkpt lat="51.9693643972" lon="-2.1850903239"><ele>6.87</ele><time>2015-05-13T09:57:35Z</time></trkpt><trkpt lat="51.9693555124" lon="-2.1850960236"><ele>10.23</ele><time>2015-05-13T09:57:36Z</time></trkpt><trkpt lat="51.9693274330" lon="-2.1851199958"><ele>14.56</ele><time>2015-05-13T09:57:39Z</time></trkpt><trkpt lat="51.9693186320" lon="-2.1851236001"><ele>8.79</ele><time>2015-05-13T09:57:40Z</time></trkpt><trkpt lat="51.9693115912" lon="-2.1851275396"><ele>12.15</ele><time>2015-05-13T09:57:41Z</time></trkpt><trkpt lat="51.9692988507" lon="-2.1851578820"><ele>11.67</ele><time>2015-05-13T09:58:02Z</time></trkpt><trkpt lat="51.9692976773" lon="-2.1851427946"><ele>15.52</ele><time>2015-05-13T09:58:12Z</time></trkpt><trkpt lat="51.9692976773" lon="-2.1851435490"><ele>12.15</ele><time>2015-05-13T09:58:13Z</time></trkpt><trkpt lat="51.9692967553" lon="-2.1851479914"><ele>12.15</ele><time>2015-05-13T09:58:23Z</time></trkpt><trkpt lat="51.9692978449" lon="-2.1851448901"><ele>11.19</ele><time>2015-05-13T09:58:42Z</time></trkpt><trkpt lat="51.9692964200" lon="-2.1851421241"><ele>15.04</ele><time>2015-05-13T09:59:08Z</time></trkpt><trkpt lat="51.9692968391" lon="-2.1851416212"><ele>11.67</ele><time>2015-05-13T09:59:10Z</time></trkpt><trkpt lat="51.9692970905" lon="-2.1851416212"><ele>11.67</ele><time>2015-05-13T09:59:11Z</time></trkpt><trkpt lat="51.9692951627" lon="-2.1851348318"><ele>11.67</ele><time>2015-05-13T09:59:37Z</time></trkpt><trkpt lat="51.9692928158" lon="-2.1851339098"><ele>6.87</ele><time>2015-05-13T09:59:47Z</time></trkpt><trkpt lat="51.9692928996" lon="-2.1851339098"><ele>14.56</ele><time>2015-05-13T09:59:48Z</time></trkpt><trkpt lat="51.9692927320" lon="-2.1851339098"><ele>9.27</ele><time>2015-05-13T09:59:49Z</time></trkpt><trkpt lat="51.9692926481" lon="-2.1851339098"><ele>12.15</ele><time>2015-05-13T09:59:50Z</time></trkpt><trkpt lat="51.9692945760" lon="-2.1851360891"><ele>11.67</ele><time>2015-05-13T10:00:18Z</time></trkpt><trkpt lat="51.9692945760" lon="-2.1851361729"><ele>10.71</ele><time>2015-05-13T10:00:22Z</time></trkpt><trkpt lat="51.9692943245" lon="-2.1851348318"><ele>14.08</ele><time>2015-05-13T10:00:27Z</time></trkpt><trkpt lat="51.9692936540" lon="-2.1851358376"><ele>11.19</ele><time>2015-05-13T10:00:54Z</time></trkpt><trkpt lat="51.9692926481" lon="-2.1851359215"><ele>14.08</ele><time>2015-05-13T10:01:06Z</time></trkpt><trkpt lat="51.9692927320" lon="-2.1851360053"><ele>10.71</ele><time>2015-05-13T10:01:07Z</time></trkpt><trkpt lat="51.9692997728" lon="-2.1851364244"><ele>12.15</ele><time>2015-05-13T10:01:31Z</time></trkpt><trkpt lat="51.9693041313" lon="-2.1851368435"><ele>12.15</ele><time>2015-05-13T10:01:52Z</time></trkpt><trkpt lat="51.9693090767" lon="-2.1851335745"><ele>12.15</ele><time>2015-05-13T10:01:59Z</time></trkpt><trkpt lat="51.9692818355" lon="-2.1851107758"><ele>12.15</ele><time>2015-05-13T10:02:23Z</time></trkpt><trkpt lat="51.9692865293" lon="-2.1851059143"><ele>6.87</ele><time>2015-05-13T10:02:38Z</time></trkpt><trkpt lat="51.9692825899" lon="-2.1851093508"><ele>13.12</ele><time>2015-05-13T10:02:39Z</time></trkpt><trkpt lat="51.9692785665" lon="-2.1851289645"><ele>9.27</ele><time>2015-05-13T10:02:41Z</time></trkpt><trkpt lat="51.9692789018" lon="-2.1851367597"><ele>14.08</ele><time>2015-05-13T10:02:42Z</time></trkpt><trkpt lat="51.9692752976" lon="-2.1851716284"><ele>8.31</ele><time>2015-05-13T10:02:52Z</time></trkpt><trkpt lat="51.9692756329" lon="-2.1851707902"><ele>9.27</ele><time>2015-05-13T10:02:53Z</time></trkpt><trkpt lat="51.9692761358" lon="-2.1851690300"><ele>17.92</ele><time>2015-05-13T10:02:54Z</time></trkpt><trkpt lat="51.9692766387" lon="-2.1851669345"><ele>12.15</ele><time>2015-05-13T10:02:55Z</time></trkpt><trkpt lat="51.9692715257" lon="-2.1851469018"><ele>13.12</ele><time>2015-05-13T10:03:26Z</time></trkpt><trkpt lat="51.9692754652" lon="-2.1851385199"><ele>12.15</ele><time>2015-05-13T10:04:02Z</time></trkpt><trkpt lat="51.9692776445" lon="-2.1851308085"><ele>13.12</ele><time>2015-05-13T10:04:38Z</time></trkpt><trkpt lat="51.9692773931" lon="-2.1851235162"><ele>12.15</ele><time>2015-05-13T10:05:13Z</time></trkpt><trkpt lat="51.9692768902" lon="-2.1851240192"><ele>16.48</ele><time>2015-05-13T10:05:30Z</time></trkpt><trkpt lat="51.9692768902" lon="-2.1851241030"><ele>8.79</ele><time>2015-05-13T10:05:31Z</time></trkpt><trkpt lat="51.9692769740" lon="-2.1851241030"><ele>12.15</ele><time>2015-05-13T10:05:32Z</time></trkpt><trkpt lat="51.9692758005" lon="-2.1851234324"><ele>12.15</ele><time>2015-05-13T10:06:01Z</time></trkpt><trkpt lat="51.9692775607" lon="-2.1851269528"><ele>15.52</ele><time>2015-05-13T10:06:09Z</time></trkpt><trkpt lat="51.9692778960" lon="-2.1851270366"><ele>12.15</ele><time>2015-05-13T10:06:10Z</time></trkpt><trkpt lat="51.9692792371" lon="-2.1851330716"><ele>12.15</ele><time>2015-05-13T10:06:38Z</time></trkpt><trkpt lat="51.9692825899" lon="-2.1851322334"><ele>8.79</ele><time>2015-05-13T10:07:00Z</time></trkpt><trkpt lat="51.9692828413" lon="-2.1851328202"><ele>13.60</ele><time>2015-05-13T10:07:03Z</time></trkpt><trkpt lat="51.9692826737" lon="-2.1851334907"><ele>12.15</ele><time>2015-05-13T10:07:06Z</time></trkpt><trkpt lat="51.9692826737" lon="-2.1851341613"><ele>6.39</ele><time>2015-05-13T10:07:07Z</time></trkpt><trkpt lat="51.9692826737" lon="-2.1851341613"><ele>11.19</ele><time>2015-05-13T10:07:08Z</time></trkpt><trkpt lat="51.9692826737" lon="-2.1851346642"><ele>12.63</ele><time>2015-05-13T10:07:10Z</time></trkpt><trkpt lat="51.9692828413" lon="-2.1851355862"><ele>16.96</ele><time>2015-05-13T10:07:13Z</time></trkpt><trkpt lat="51.9692831766" lon="-2.1851358376"><ele>16.00</ele><time>2015-05-13T10:07:14Z</time></trkpt><trkpt lat="51.9692831766" lon="-2.1851358376"><ele>11.19</ele><time>2015-05-13T10:07:15Z</time></trkpt><trkpt lat="51.9692830089" lon="-2.1851360891"><ele>14.08</ele><time>2015-05-13T10:07:16Z</time></trkpt><trkpt lat="51.9692861103" lon="-2.1851366758"><ele>10.23</ele><time>2015-05-13T10:07:17Z</time></trkpt><trkpt lat="51.9692848530" lon="-2.1851384360"><ele>13.60</ele><time>2015-05-13T10:07:22Z</time></trkpt><trkpt lat="51.9692801591" lon="-2.1851366758"><ele>10.71</ele><time>2015-05-13T10:07:23Z</time></trkpt><trkpt lat="51.9692797400" lon="-2.1851379331"><ele>12.63</ele><time>2015-05-13T10:07:50Z</time></trkpt><trkpt lat="51.9692794047" lon="-2.1851438005"><ele>12.15</ele><time>2015-05-13T10:08:08Z</time></trkpt><trkpt lat="51.9692985993" lon="-2.1851422079"><ele>8.31</ele><time>2015-05-13T10:08:21Z</time></trkpt><trkpt lat="51.9692989346" lon="-2.1851422079"><ele>11.19</ele><time>2015-05-13T10:08:22Z</time></trkpt><trkpt lat="51.9693078194" lon="-2.1851458121"><ele>12.15</ele><time>2015-05-13T10:08:24Z</time></trkpt><trkpt lat="51.9693193026" lon="-2.1851965226"><ele>15.04</ele><time>2015-05-13T10:08:29Z</time></trkpt><trkpt lat="51.9693195540" lon="-2.1851966903"><ele>9.75</ele><time>2015-05-13T10:08:30Z</time></trkpt><trkpt lat="51.9693216495" lon="-2.1852056589"><ele>14.56</ele><time>2015-05-13T10:08:31Z</time></trkpt><trkpt lat="51.9693018682" lon="-2.1852641646"><ele>13.12</ele><time>2015-05-13T10:08:36Z</time></trkpt><trkpt lat="51.9692438655" lon="-2.1852973569"><ele>12.15</ele><time>2015-05-13T10:08:47Z</time></trkpt><trkpt lat="51.9691542629" lon="-2.1853011288"><ele>13.60</ele><time>2015-05-13T10:08:59Z</time></trkpt><trkpt lat="51.9690956734" lon="-2.1853034757"><ele>13.12</ele><time>2015-05-13T10:09:06Z</time></trkpt><trkpt lat="51.9690610562" lon="-2.1853147913"><ele>12.15</ele><time>2015-05-13T10:09:10Z</time></trkpt><trkpt lat="51.9689510018" lon="-2.1853273641"><ele>14.08</ele><time>2015-05-13T10:09:22Z</time></trkpt><trkpt lat="51.9688927475" lon="-2.1853449661"><ele>11.67</ele><time>2015-05-13T10:09:28Z</time></trkpt><trkpt lat="51.9688336551" lon="-2.1853539348"><ele>12.63</ele><time>2015-05-13T10:09:34Z</time></trkpt><trkpt lat="51.9688037317" lon="-2.1853546053"><ele>14.08</ele><time>2015-05-13T10:09:37Z</time></trkpt><trkpt lat="51.9687976968" lon="-2.1853523422"><ele>10.71</ele><time>2015-05-13T10:09:38Z</time></trkpt><trkpt lat="51.9687904045" lon="-2.1853520907"><ele>13.12</ele><time>2015-05-13T10:09:39Z</time></trkpt><trkpt lat="51.9687437173" lon="-2.1853551921"><ele>12.63</ele><time>2015-05-13T10:09:44Z</time></trkpt><trkpt lat="51.9687124528" lon="-2.1853567008"><ele>14.56</ele><time>2015-05-13T10:09:47Z</time></trkpt><trkpt lat="51.9686694536" lon="-2.1853561141"><ele>15.04</ele><time>2015-05-13T10:09:51Z</time></trkpt><trkpt lat="51.9686412066" lon="-2.1853484865"><ele>13.60</ele><time>2015-05-13T10:09:54Z</time></trkpt><trkpt lat="51.9686054159" lon="-2.1853515878"><ele>13.12</ele><time>2015-05-13T10:09:58Z</time></trkpt><trkpt lat="51.9685518555" lon="-2.1853556111"><ele>13.60</ele><time>2015-05-13T10:10:04Z</time></trkpt><trkpt lat="51.9685208425" lon="-2.1853613947"><ele>13.12</ele><time>2015-05-13T10:10:07Z</time></trkpt><trkpt lat="51.9684620015" lon="-2.1853686869"><ele>13.12</ele><time>2015-05-13T10:10:13Z</time></trkpt><trkpt lat="51.9683737401" lon="-2.1853899769"><ele>13.12</ele><time>2015-05-13T10:10:22Z</time></trkpt><trkpt lat="51.9683322497" lon="-2.1854252648"><ele>13.12</ele><time>2015-05-13T10:10:27Z</time></trkpt><trkpt lat="51.9682912622" lon="-2.1854522545"><ele>13.12</ele><time>2015-05-13T10:10:32Z</time></trkpt><trkpt lat="51.9682726543" lon="-2.1854629833"><ele>16.00</ele><time>2015-05-13T10:10:34Z</time></trkpt><trkpt lat="51.9682667870" lon="-2.1854649950"><ele>12.15</ele><time>2015-05-13T10:10:35Z</time></trkpt><trkpt lat="51.9682151545" lon="-2.1854666714"><ele>13.60</ele><time>2015-05-13T10:10:41Z</time></trkpt><trkpt lat="51.9681291562" lon="-2.1853890549"><ele>14.08</ele><time>2015-05-13T10:10:49Z</time></trkpt><trkpt lat="51.9679540582" lon="-2.1853173897"><ele>13.60</ele><time>2015-05-13T10:11:06Z</time></trkpt><trkpt lat="51.9678323530" lon="-2.1853541862"><ele>13.12</ele><time>2015-05-13T10:11:19Z</time></trkpt><trkpt lat="51.9677363802" lon="-2.1854185592"><ele>13.60</ele><time>2015-05-13T10:11:30Z</time></trkpt><trkpt lat="51.9676289242" lon="-2.1855005343"><ele>12.63</ele><time>2015-05-13T10:11:42Z</time></trkpt><trkpt lat="51.9675434288" lon="-2.1855730377"><ele>13.60</ele><time>2015-05-13T10:11:51Z</time></trkpt><trkpt lat="51.9674922992" lon="-2.1856006980"><ele>13.12</ele><time>2015-05-13T10:11:56Z</time></trkpt><trkpt lat="51.9674403314" lon="-2.1856473852"><ele>13.12</ele><time>2015-05-13T10:12:02Z</time></trkpt><trkpt lat="51.9673594460" lon="-2.1856622212"><ele>14.08</ele><time>2015-05-13T10:12:14Z</time></trkpt><trkpt lat="51.9673405867" lon="-2.1856570244"><ele>13.12</ele><time>2015-05-13T10:12:33Z</time></trkpt><trkpt lat="51.9673372339" lon="-2.1856318787"><ele>13.12</ele><time>2015-05-13T10:12:38Z</time></trkpt><trkpt lat="51.9673325401" lon="-2.1855867002"><ele>12.15</ele><time>2015-05-13T10:12:41Z</time></trkpt><trkpt lat="51.9673300255" lon="-2.1854666714"><ele>11.67</ele><time>2015-05-13T10:12:51Z</time></trkpt><trkpt lat="51.9673505612" lon="-2.1854727902"><ele>11.67</ele><time>2015-05-13T10:13:08Z</time></trkpt><trkpt lat="51.9673498906" lon="-2.1854725387"><ele>14.08</ele><time>2015-05-13T10:13:09Z</time></trkpt><trkpt lat="51.9674061332" lon="-2.1853513364"><ele>11.67</ele><time>2015-05-13T10:13:19Z</time></trkpt><trkpt lat="51.9674273394" lon="-2.1853098460"><ele>14.08</ele><time>2015-05-13T10:13:23Z</time></trkpt><trkpt lat="51.9674335420" lon="-2.1852974407"><ele>10.71</ele><time>2015-05-13T10:13:24Z</time></trkpt><trkpt lat="51.9675506372" lon="-2.1851065010"><ele>11.67</ele><time>2015-05-13T10:13:40Z</time></trkpt><trkpt lat="51.9676247332" lon="-2.1849916689"><ele>12.15</ele><time>2015-05-13T10:13:51Z</time></trkpt><trkpt lat="51.9676278345" lon="-2.1849865559"><ele>8.79</ele><time>2015-05-13T10:13:52Z</time></trkpt><trkpt lat="51.9676484540" lon="-2.1849511005"><ele>12.15</ele><time>2015-05-13T10:13:55Z</time></trkpt><trkpt lat="51.9677252322" lon="-2.1848097816"><ele>10.71</ele><time>2015-05-13T10:14:07Z</time></trkpt><trkpt lat="51.9677899405" lon="-2.1846873220"><ele>9.75</ele><time>2015-05-13T10:14:18Z</time></trkpt><trkpt lat="51.9678450096" lon="-2.1845952049"><ele>12.15</ele><time>2015-05-13T10:14:25Z</time></trkpt><trkpt lat="51.9678583369" lon="-2.1845698077"><ele>13.60</ele><time>2015-05-13T10:14:27Z</time></trkpt><trkpt lat="51.9679007493" lon="-2.1844850667"><ele>9.75</ele><time>2015-05-13T10:14:34Z</time></trkpt><trkpt lat="51.9679512084" lon="-2.1844051033"><ele>13.12</ele><time>2015-05-13T10:14:41Z</time></trkpt><trkpt lat="51.9680377934" lon="-2.1842382196"><ele>10.71</ele><time>2015-05-13T10:14:54Z</time></trkpt><trkpt lat="51.9681159128" lon="-2.1840701625"><ele>11.67</ele><time>2015-05-13T10:15:07Z</time></trkpt><trkpt lat="51.9681984745" lon="-2.1839076374"><ele>12.15</ele><time>2015-05-13T10:15:19Z</time></trkpt><trkpt lat="51.9683110435" lon="-2.1837322880"><ele>13.60</ele><time>2015-05-13T10:15:33Z</time></trkpt><trkpt lat="51.9683285616" lon="-2.1836980898"><ele>10.71</ele><time>2015-05-13T10:15:38Z</time></trkpt><trkpt lat="51.9683601614" lon="-2.1836431883"><ele>14.08</ele><time>2015-05-13T10:15:42Z</time></trkpt><trkpt lat="51.9684517756" lon="-2.1834669169"><ele>12.63</ele><time>2015-05-13T10:15:56Z</time></trkpt><trkpt lat="51.9684981275" lon="-2.1833508275"><ele>8.79</ele><time>2015-05-13T10:16:10Z</time></trkpt><trkpt lat="51.9684991334" lon="-2.1833504084"><ele>15.04</ele><time>2015-05-13T10:16:11Z</time></trkpt><trkpt lat="51.9684998039" lon="-2.1833494864"><ele>10.71</ele><time>2015-05-13T10:16:12Z</time></trkpt><trkpt lat="51.9684909191" lon="-2.1833337285"><ele>14.08</ele><time>2015-05-13T10:16:15Z</time></trkpt><trkpt lat="51.9684807770" lon="-2.1833090018"><ele>13.12</ele><time>2015-05-13T10:16:20Z</time></trkpt><trkpt lat="51.9684961159" lon="-2.1832917351"><ele>13.12</ele><time>2015-05-13T10:16:34Z</time></trkpt><trkpt lat="51.9684971217" lon="-2.1832759771"><ele>13.12</ele><time>2015-05-13T10:16:57Z</time></trkpt><trkpt lat="51.9685011450" lon="-2.1832570340"><ele>13.60</ele><time>2015-05-13T10:17:13Z</time></trkpt><trkpt lat="51.9685182441" lon="-2.1831240132"><ele>13.12</ele><time>2015-05-13T10:17:24Z</time></trkpt><trkpt lat="51.9685528614" lon="-2.1829754021"><ele>16.00</ele><time>2015-05-13T10:17:32Z</time></trkpt><trkpt lat="51.9685539510" lon="-2.1829601470"><ele>12.63</ele><time>2015-05-13T10:17:33Z</time></trkpt><trkpt lat="51.9685645960" lon="-2.1829007193"><ele>15.52</ele><time>2015-05-13T10:17:37Z</time></trkpt><trkpt lat="51.9685715530" lon="-2.1828847099"><ele>12.15</ele><time>2015-05-13T10:17:38Z</time></trkpt><trkpt lat="51.9685825333" lon="-2.1828584746"><ele>15.52</ele><time>2015-05-13T10:17:40Z</time></trkpt><trkpt lat="51.9686203357" lon="-2.1826687921"><ele>12.15</ele><time>2015-05-13T10:17:53Z</time></trkpt><trkpt lat="51.9686338305" lon="-2.1825817041"><ele>16.48</ele><time>2015-05-13T10:17:59Z</time></trkpt><trkpt lat="51.9686474930" lon="-2.1824946161"><ele>12.63</ele><time>2015-05-13T10:18:05Z</time></trkpt><trkpt lat="51.9686525222" lon="-2.1824614238"><ele>16.48</ele><time>2015-05-13T10:18:07Z</time></trkpt><trkpt lat="51.9686650950" lon="-2.1823878307"><ele>16.96</ele><time>2015-05-13T10:18:12Z</time></trkpt><trkpt lat="51.9686795957" lon="-2.1822862420"><ele>17.92</ele><time>2015-05-13T10:18:19Z</time></trkpt><trkpt lat="51.9686818589" lon="-2.1822745074"><ele>13.60</ele><time>2015-05-13T10:18:20Z</time></trkpt><trkpt lat="51.9686861336" lon="-2.1822476014"><ele>16.96</ele><time>2015-05-13T10:18:22Z</time></trkpt><trkpt lat="51.9686918333" lon="-2.1822196059"><ele>13.60</ele><time>2015-05-13T10:18:24Z</time></trkpt><trkpt lat="51.9686957728" lon="-2.1821943764"><ele>18.88</ele><time>2015-05-13T10:18:26Z</time></trkpt><trkpt lat="51.9686993770" lon="-2.1821812168"><ele>14.56</ele><time>2015-05-13T10:18:27Z</time></trkpt><trkpt lat="51.9687047414" lon="-2.1821213700"><ele>18.40</ele><time>2015-05-13T10:18:31Z</time></trkpt><trkpt lat="51.9687046576" lon="-2.1821097191"><ele>15.04</ele><time>2015-05-13T10:18:32Z</time></trkpt><trkpt lat="51.9687215053" lon="-2.1819717530"><ele>18.88</ele><time>2015-05-13T10:18:42Z</time></trkpt><trkpt lat="51.9687388558" lon="-2.1818877663"><ele>15.52</ele><time>2015-05-13T10:18:48Z</time></trkpt><trkpt lat="51.9687401969" lon="-2.1818734333"><ele>18.88</ele><time>2015-05-13T10:18:49Z</time></trkpt><trkpt lat="51.9687455613" lon="-2.1818217169"><ele>15.52</ele><time>2015-05-13T10:18:53Z</time></trkpt><trkpt lat="51.9687580504" lon="-2.1817575116"><ele>18.88</ele><time>2015-05-13T10:18:58Z</time></trkpt><trkpt lat="51.9687866326" lon="-2.1815885324"><ele>18.40</ele><time>2015-05-13T10:19:12Z</time></trkpt><trkpt lat="51.9687936734" lon="-2.1814996842"><ele>21.29</ele><time>2015-05-13T10:19:20Z</time></trkpt><trkpt lat="51.9688121136" lon="-2.1813948266"><ele>22.25</ele><time>2015-05-13T10:19:31Z</time></trkpt><trkpt lat="51.9688373432" lon="-2.1813151985"><ele>24.65</ele><time>2015-05-13T10:19:39Z</time></trkpt><trkpt lat="51.9688425399" lon="-2.1811842732"><ele>24.65</ele><time>2015-05-13T10:19:54Z</time></trkpt><trkpt lat="51.9688474014" lon="-2.1811046451"><ele>28.02</ele><time>2015-05-13T10:20:03Z</time></trkpt><trkpt lat="51.9688536040" lon="-2.1810186468"><ele>28.98</ele><time>2015-05-13T10:20:11Z</time></trkpt><trkpt lat="51.9688675180" lon="-2.1809630748"><ele>26.57</ele><time>2015-05-13T10:20:17Z</time></trkpt><trkpt lat="51.9689001236" lon="-2.1807140484"><ele>28.98</ele><time>2015-05-13T10:20:35Z</time></trkpt><trkpt lat="51.9689368363" lon="-2.1805218514"><ele>30.90</ele><time>2015-05-13T10:20:48Z</time></trkpt><trkpt lat="51.9689592160" lon="-2.1803470887"><ele>30.42</ele><time>2015-05-13T10:21:02Z</time></trkpt><trkpt lat="51.9689572882" lon="-2.1803555544"><ele>30.42</ele><time>2015-05-13T10:21:34Z</time></trkpt><trkpt lat="51.9689621497" lon="-2.1803572308"><ele>35.23</ele><time>2015-05-13T10:21:47Z</time></trkpt><trkpt lat="51.9689660892" lon="-2.1803304926"><ele>29.94</ele><time>2015-05-13T10:21:49Z</time></trkpt><trkpt lat="51.9689701963" lon="-2.1803136449"><ele>30.42</ele><time>2015-05-13T10:21:50Z</time></trkpt><trkpt lat="51.9689891394" lon="-2.1801574063"><ele>30.90</ele><time>2015-05-13T10:22:01Z</time></trkpt><trkpt lat="51.9690002874" lon="-2.1800548118"><ele>29.94</ele><time>2015-05-13T10:22:13Z</time></trkpt><trkpt lat="51.9690094236" lon="-2.1800460946"><ele>28.98</ele><time>2015-05-13T10:22:15Z</time></trkpt><trkpt lat="51.9690096751" lon="-2.1800446697"><ele>32.82</ele><time>2015-05-13T10:22:16Z</time></trkpt><trkpt lat="51.9690084178" lon="-2.1800297499"><ele>31.38</ele><time>2015-05-13T10:22:17Z</time></trkpt><trkpt lat="51.9690151233" lon="-2.1799647901"><ele>30.42</ele><time>2015-05-13T10:22:21Z</time></trkpt><trkpt lat="51.9690213259" lon="-2.1799179353"><ele>28.50</ele><time>2015-05-13T10:22:24Z</time></trkpt><trkpt lat="51.9690385927" lon="-2.1797899436"><ele>29.46</ele><time>2015-05-13T10:22:34Z</time></trkpt><trkpt lat="51.9690492377" lon="-2.1796819009"><ele>27.05</ele><time>2015-05-13T10:22:42Z</time></trkpt><trkpt lat="51.9690620620" lon="-2.1796278376"><ele>29.46</ele><time>2015-05-13T10:22:45Z</time></trkpt><trkpt lat="51.9690660853" lon="-2.1796156839"><ele>27.53</ele><time>2015-05-13T10:22:46Z</time></trkpt><trkpt lat="51.9690649956" lon="-2.1795256622"><ele>28.98</ele><time>2015-05-13T10:22:53Z</time></trkpt><trkpt lat="51.9690703601" lon="-2.1794972476"><ele>28.50</ele><time>2015-05-13T10:22:55Z</time></trkpt><trkpt lat="51.9690766465" lon="-2.1793962456"><ele>28.02</ele><time>2015-05-13T10:23:03Z</time></trkpt><trkpt lat="51.9691029657" lon="-2.1792784799"><ele>26.09</ele><time>2015-05-13T10:23:11Z</time></trkpt><trkpt lat="51.9691276085" lon="-2.1791677549"><ele>29.94</ele><time>2015-05-13T10:23:18Z</time></trkpt><trkpt lat="51.9691447075" lon="-2.1791018732"><ele>24.65</ele><time>2015-05-13T10:23:23Z</time></trkpt><trkpt lat="51.9691454619" lon="-2.1790747158"><ele>28.50</ele><time>2015-05-13T10:23:25Z</time></trkpt><trkpt lat="51.9691473898" lon="-2.1790525876"><ele>25.13</ele><time>2015-05-13T10:23:27Z</time></trkpt><trkpt lat="51.9691413548" lon="-2.1790002007"><ele>28.50</ele><time>2015-05-13T10:23:31Z</time></trkpt><trkpt lat="51.9691608846" lon="-2.1788787469"><ele>25.61</ele><time>2015-05-13T10:23:40Z</time></trkpt><trkpt lat="51.9691651594" lon="-2.1788636595"><ele>27.53</ele><time>2015-05-13T10:23:41Z</time></trkpt><trkpt lat="51.9691887125" lon="-2.1786692832"><ele>27.53</ele><time>2015-05-13T10:23:54Z</time></trkpt><trkpt lat="51.9691892993" lon="-2.1786556207"><ele>26.09</ele><time>2015-05-13T10:23:55Z</time></trkpt><trkpt lat="51.9691937417" lon="-2.1785833687"><ele>27.05</ele><time>2015-05-13T10:24:00Z</time></trkpt><trkpt lat="51.9692105055" lon="-2.1785226837"><ele>27.05</ele><time>2015-05-13T10:24:04Z</time></trkpt><trkpt lat="51.9692150317" lon="-2.1784759965"><ele>28.98</ele><time>2015-05-13T10:24:07Z</time></trkpt><trkpt lat="51.9692215696" lon="-2.1784184966"><ele>28.98</ele><time>2015-05-13T10:24:11Z</time></trkpt><trkpt lat="51.9692245033" lon="-2.1784045827"><ele>25.61</ele><time>2015-05-13T10:24:12Z</time></trkpt><trkpt lat="51.9692335557" lon="-2.1783573925"><ele>28.98</ele><time>2015-05-13T10:24:15Z</time></trkpt><trkpt lat="51.9692359027" lon="-2.1783451550"><ele>25.61</ele><time>2015-05-13T10:24:16Z</time></trkpt><trkpt lat="51.9692473859" lon="-2.1782896668"><ele>28.98</ele><time>2015-05-13T10:24:20Z</time></trkpt><trkpt lat="51.9692628086" lon="-2.1782634314"><ele>25.13</ele><time>2015-05-13T10:24:24Z</time></trkpt><trkpt lat="51.9692700170" lon="-2.1782646887"><ele>27.53</ele><time>2015-05-13T10:24:27Z</time></trkpt><trkpt lat="51.9692679215" lon="-2.1782200970"><ele>27.53</ele><time>2015-05-13T10:24:38Z</time></trkpt><trkpt lat="51.9692667481" lon="-2.1782170795"><ele>28.02</ele><time>2015-05-13T10:24:56Z</time></trkpt><trkpt lat="51.9692708552" lon="-2.1781838033"><ele>26.57</ele><time>2015-05-13T10:24:59Z</time></trkpt><trkpt lat="51.9692675862" lon="-2.1780983917"><ele>28.98</ele><time>2015-05-13T10:25:11Z</time></trkpt><trkpt lat="51.9692680053" lon="-2.1779954620"><ele>26.09</ele><time>2015-05-13T10:25:23Z</time></trkpt><trkpt lat="51.9692540076" lon="-2.1779808775"><ele>29.94</ele><time>2015-05-13T10:25:28Z</time></trkpt><trkpt lat="51.9692519121" lon="-2.1779662091"><ele>26.09</ele><time>2015-05-13T10:25:29Z</time></trkpt><trkpt lat="51.9692419376" lon="-2.1779423207"><ele>29.46</ele><time>2015-05-13T10:25:31Z</time></trkpt><trkpt lat="51.9692385010" lon="-2.1779388841"><ele>28.98</ele><time>2015-05-13T10:25:32Z</time></trkpt><trkpt lat="51.9692263473" lon="-2.1778792888"><ele>29.94</ele><time>2015-05-13T10:25:36Z</time></trkpt><trkpt lat="51.9692250062" lon="-2.1777917817"><ele>27.05</ele><time>2015-05-13T10:25:41Z</time></trkpt><trkpt lat="51.9692171272" lon="-2.1776195336"><ele>28.02</ele><time>2015-05-13T10:25:53Z</time></trkpt><trkpt lat="51.9692169596" lon="-2.1775884368"><ele>29.94</ele><time>2015-05-13T10:25:55Z</time></trkpt><trkpt lat="51.9692187198" lon="-2.1775712539"><ele>26.57</ele><time>2015-05-13T10:25:56Z</time></trkpt><trkpt lat="51.9692200609" lon="-2.1775539033"><ele>28.50</ele><time>2015-05-13T10:25:57Z</time></trkpt><trkpt lat="51.9692172948" lon="-2.1774805617"><ele>28.02</ele><time>2015-05-13T10:26:02Z</time></trkpt><trkpt lat="51.9691952504" lon="-2.1773610357"><ele>27.53</ele><time>2015-05-13T10:26:11Z</time></trkpt><trkpt lat="51.9691820070" lon="-2.1771693416"><ele>28.02</ele><time>2015-05-13T10:26:24Z</time></trkpt><trkpt lat="51.9691807497" lon="-2.1771409269"><ele>31.86</ele><time>2015-05-13T10:26:26Z</time></trkpt><trkpt lat="51.9691786543" lon="-2.1771264262"><ele>28.02</ele><time>2015-05-13T10:26:27Z</time></trkpt><trkpt lat="51.9691752177" lon="-2.1770742908"><ele>30.90</ele><time>2015-05-13T10:26:31Z</time></trkpt><trkpt lat="51.9691821747" lon="-2.1770390868"><ele>28.50</ele><time>2015-05-13T10:26:33Z</time></trkpt><trkpt lat="51.9691734575" lon="-2.1768571995"><ele>30.42</ele><time>2015-05-13T10:26:45Z</time></trkpt><trkpt lat="51.9691712782" lon="-2.1768266894"><ele>29.46</ele><time>2015-05-13T10:26:47Z</time></trkpt><trkpt lat="51.9691601302" lon="-2.1767966822"><ele>30.42</ele><time>2015-05-13T10:26:49Z</time></trkpt><trkpt lat="51.9691613875" lon="-2.1767864563"><ele>27.05</ele><time>2015-05-13T10:26:50Z</time></trkpt><trkpt lat="51.9691621419" lon="-2.1767753083"><ele>29.94</ele><time>2015-05-13T10:26:51Z</time></trkpt><trkpt lat="51.9691562746" lon="-2.1765527688"><ele>28.98</ele><time>2015-05-13T10:27:06Z</time></trkpt><trkpt lat="51.9691321347" lon="-2.1763702109"><ele>30.90</ele><time>2015-05-13T10:27:18Z</time></trkpt><trkpt lat="51.9691327214" lon="-2.1763528604"><ele>27.05</ele><time>2015-05-13T10:27:19Z</time></trkpt><trkpt lat="51.9691317994" lon="-2.1763356775"><ele>30.42</ele><time>2015-05-13T10:27:20Z</time></trkpt><trkpt lat="51.9691281952" lon="-2.1763056703"><ele>30.42</ele><time>2015-05-13T10:27:22Z</time></trkpt><trkpt lat="51.9691235851" lon="-2.1760793589"><ele>28.98</ele><time>2015-05-13T10:27:36Z</time></trkpt><trkpt lat="51.9691184722" lon="-2.1758800372"><ele>28.02</ele><time>2015-05-13T10:27:50Z</time></trkpt><trkpt lat="51.9691182207" lon="-2.1758693084"><ele>31.38</ele><time>2015-05-13T10:27:51Z</time></trkpt><trkpt lat="51.9690922368" lon="-2.1758499462"><ele>30.42</ele><time>2015-05-13T10:28:02Z</time></trkpt><trkpt lat="51.9690915663" lon="-2.1758571547"><ele>30.42</ele><time>2015-05-13T10:28:32Z</time></trkpt><trkpt lat="51.9690980203" lon="-2.1758542210"><ele>31.38</ele><time>2015-05-13T10:28:50Z</time></trkpt><trkpt lat="51.9691065699" lon="-2.1758356970"><ele>31.38</ele><time>2015-05-13T10:28:52Z</time></trkpt><trkpt lat="51.9691103417" lon="-2.1757167578"><ele>29.46</ele><time>2015-05-13T10:29:03Z</time></trkpt><trkpt lat="51.9691252615" lon="-2.1755305957"><ele>30.90</ele><time>2015-05-13T10:29:16Z</time></trkpt><trkpt lat="51.9691076595" lon="-2.1755295061"><ele>31.38</ele><time>2015-05-13T10:29:36Z</time></trkpt><trkpt lat="51.9691146165" lon="-2.1752901189"><ele>31.38</ele><time>2015-05-13T10:29:50Z</time></trkpt><trkpt lat="51.9691157900" lon="-2.1752716787"><ele>31.38</ele><time>2015-05-13T10:29:51Z</time></trkpt><trkpt lat="51.9691024628" lon="-2.1751390770"><ele>29.94</ele><time>2015-05-13T10:30:03Z</time></trkpt><trkpt lat="51.9691010378" lon="-2.1751280967"><ele>29.94</ele><time>2015-05-13T10:30:04Z</time></trkpt><trkpt lat="51.9690867886" lon="-2.1749266796"><ele>30.90</ele><time>2015-05-13T10:30:17Z</time></trkpt><trkpt lat="51.9690846093" lon="-2.1748563554"><ele>29.46</ele><time>2015-05-13T10:30:21Z</time></trkpt><trkpt lat="51.9690727908" lon="-2.1748100035"><ele>30.90</ele><time>2015-05-13T10:30:24Z</time></trkpt><trkpt lat="51.9690654986" lon="-2.1747851931"><ele>29.46</ele><time>2015-05-13T10:30:26Z</time></trkpt><trkpt lat="51.9689986948" lon="-2.1745506674"><ele>30.42</ele><time>2015-05-13T10:30:42Z</time></trkpt><trkpt lat="51.9689587131" lon="-2.1743246913"><ele>28.98</ele><time>2015-05-13T10:30:56Z</time></trkpt><trkpt lat="51.9689489901" lon="-2.1742987912"><ele>28.50</ele><time>2015-05-13T10:30:58Z</time></trkpt><trkpt lat="51.9688902330" lon="-2.1741001401"><ele>28.02</ele><time>2015-05-13T10:31:11Z</time></trkpt><trkpt lat="51.9688454736" lon="-2.1739145648"><ele>27.53</ele><time>2015-05-13T10:31:23Z</time></trkpt><trkpt lat="51.9687954336" lon="-2.1736968867"><ele>27.05</ele><time>2015-05-13T10:31:36Z</time></trkpt><trkpt lat="51.9687467348" lon="-2.1734927036"><ele>27.05</ele><time>2015-05-13T10:31:50Z</time></trkpt><trkpt lat="51.9687139615" lon="-2.1733391471"><ele>27.05</ele><time>2015-05-13T10:32:01Z</time></trkpt><trkpt lat="51.9686431345" lon="-2.1732009295"><ele>27.53</ele><time>2015-05-13T10:32:13Z</time></trkpt><trkpt lat="51.9685842097" lon="-2.1730021108"><ele>27.53</ele><time>2015-05-13T10:32:28Z</time></trkpt><trkpt lat="51.9685740676" lon="-2.1729021147"><ele>25.61</ele><time>2015-05-13T10:32:39Z</time></trkpt><trkpt lat="51.9685076829" lon="-2.1725296229"><ele>25.13</ele><time>2015-05-13T10:32:57Z</time></trkpt><trkpt lat="51.9685003068" lon="-2.1722478233"><ele>25.13</ele><time>2015-05-13T10:33:12Z</time></trkpt><trkpt lat="51.9684954453" lon="-2.1721293032"><ele>23.69</ele><time>2015-05-13T10:33:20Z</time></trkpt><trkpt lat="51.9684850518" lon="-2.1720394492"><ele>24.17</ele><time>2015-05-13T10:33:26Z</time></trkpt><trkpt lat="51.9684832077" lon="-2.1717905067"><ele>23.21</ele><time>2015-05-13T10:33:40Z</time></trkpt><trkpt lat="51.9684751611" lon="-2.1716931928"><ele>23.69</ele><time>2015-05-13T10:33:46Z</time></trkpt><trkpt lat="51.9684765860" lon="-2.1716558095"><ele>23.21</ele><time>2015-05-13T10:33:48Z</time></trkpt><trkpt lat="51.9684790168" lon="-2.1716071945"><ele>23.69</ele><time>2015-05-13T10:33:51Z</time></trkpt><trkpt lat="51.9684592355" lon="-2.1714955475"><ele>23.21</ele><time>2015-05-13T10:33:58Z</time></trkpt><trkpt lat="51.9684592355" lon="-2.1713687293"><ele>22.73</ele><time>2015-05-13T10:34:05Z</time></trkpt><trkpt lat="51.9684374426" lon="-2.1711678151"><ele>22.73</ele><time>2015-05-13T10:34:18Z</time></trkpt><trkpt lat="51.9684382807" lon="-2.1710820682"><ele>22.73</ele><time>2015-05-13T10:34:23Z</time></trkpt><trkpt lat="51.9684334192" lon="-2.1710570902"><ele>22.73</ele><time>2015-05-13T10:34:25Z</time></trkpt><trkpt lat="51.9684152305" lon="-2.1708394960"><ele>23.21</ele><time>2015-05-13T10:34:38Z</time></trkpt><trkpt lat="51.9684095308" lon="-2.1705783159"><ele>23.21</ele><time>2015-05-13T10:34:53Z</time></trkpt><trkpt lat="51.9684136380" lon="-2.1705432795"><ele>22.25</ele><time>2015-05-13T10:34:55Z</time></trkpt><trkpt lat="51.9683959521" lon="-2.1703310497"><ele>21.77</ele><time>2015-05-13T10:35:08Z</time></trkpt><trkpt lat="51.9683769252" lon="-2.1702665091"><ele>21.77</ele><time>2015-05-13T10:35:12Z</time></trkpt><trkpt lat="51.9683703873" lon="-2.1700681094"><ele>21.77</ele><time>2015-05-13T10:35:24Z</time></trkpt><trkpt lat="51.9683609996" lon="-2.1698506828"><ele>21.77</ele><time>2015-05-13T10:35:37Z</time></trkpt><trkpt lat="51.9683537912" lon="-2.1697433945"><ele>21.29</ele><time>2015-05-13T10:35:44Z</time></trkpt><trkpt lat="51.9683342613" lon="-2.1695456654"><ele>21.29</ele><time>2015-05-13T10:35:57Z</time></trkpt><trkpt lat="51.9683278073" lon="-2.1693564858"><ele>21.29</ele><time>2015-05-13T10:36:08Z</time></trkpt><trkpt lat="51.9683309086" lon="-2.1693227906"><ele>20.81</ele><time>2015-05-13T10:36:10Z</time></trkpt><trkpt lat="51.9683060143" lon="-2.1691013407"><ele>20.81</ele><time>2015-05-13T10:36:23Z</time></trkpt><trkpt lat="51.9682908431" lon="-2.1688879374"><ele>21.29</ele><time>2015-05-13T10:36:36Z</time></trkpt><trkpt lat="51.9682763424" lon="-2.1687074751"><ele>19.84</ele><time>2015-05-13T10:36:48Z</time></trkpt><trkpt lat="51.9682738278" lon="-2.1686358936"><ele>21.77</ele><time>2015-05-13T10:37:02Z</time></trkpt><trkpt lat="51.9682436530" lon="-2.1684529167"><ele>21.77</ele><time>2015-05-13T10:37:14Z</time></trkpt><trkpt lat="51.9682298228" lon="-2.1682626475"><ele>20.81</ele><time>2015-05-13T10:37:26Z</time></trkpt><trkpt lat="51.9681978039" lon="-2.1680484060"><ele>20.32</ele><time>2015-05-13T10:37:40Z</time></trkpt><trkpt lat="51.9681871589" lon="-2.1679878049"><ele>20.81</ele><time>2015-05-13T10:37:44Z</time></trkpt><trkpt lat="51.9681829680" lon="-2.1679615695"><ele>20.32</ele><time>2015-05-13T10:37:46Z</time></trkpt><trkpt lat="51.9681688864" lon="-2.1679111943"><ele>22.25</ele><time>2015-05-13T10:37:49Z</time></trkpt><trkpt lat="51.9681333471" lon="-2.1676469967"><ele>20.81</ele><time>2015-05-13T10:38:05Z</time></trkpt><trkpt lat="51.9681151584" lon="-2.1674264688"><ele>20.32</ele><time>2015-05-13T10:38:18Z</time></trkpt><trkpt lat="51.9681377895" lon="-2.1671930328"><ele>21.29</ele><time>2015-05-13T10:38:32Z</time></trkpt><trkpt lat="51.9681856502" lon="-2.1670993231"><ele>19.36</ele><time>2015-05-13T10:38:41Z</time></trkpt><trkpt lat="51.9683014881" lon="-2.1669710800"><ele>20.32</ele><time>2015-05-13T10:38:54Z</time></trkpt><trkpt lat="51.9684478361" lon="-2.1667509712"><ele>20.81</ele><time>2015-05-13T10:39:11Z</time></trkpt><trkpt lat="51.9684674498" lon="-2.1666813176"><ele>21.77</ele><time>2015-05-13T10:39:15Z</time></trkpt><trkpt lat="51.9684786815" lon="-2.1666453592"><ele>20.81</ele><time>2015-05-13T10:39:18Z</time></trkpt><trkpt lat="51.9685523584" lon="-2.1663460415"><ele>20.32</ele><time>2015-05-13T10:39:36Z</time></trkpt><trkpt lat="51.9685555436" lon="-2.1661079954"><ele>21.29</ele><time>2015-05-13T10:39:50Z</time></trkpt><trkpt lat="51.9685589802" lon="-2.1660930756"><ele>21.29</ele><time>2015-05-13T10:39:52Z</time></trkpt><trkpt lat="51.9685849641" lon="-2.1658871323"><ele>20.32</ele><time>2015-05-13T10:40:05Z</time></trkpt><trkpt lat="51.9685689546" lon="-2.1656609047"><ele>20.81</ele><time>2015-05-13T10:40:19Z</time></trkpt><trkpt lat="51.9685729779" lon="-2.1656484995"><ele>20.32</ele><time>2015-05-13T10:40:20Z</time></trkpt><trkpt lat="51.9685876463" lon="-2.1656112000"><ele>21.29</ele><time>2015-05-13T10:40:23Z</time></trkpt><trkpt lat="51.9686848763" lon="-2.1655480843"><ele>20.81</ele><time>2015-05-13T10:40:36Z</time></trkpt><trkpt lat="51.9687873870" lon="-2.1655277163"><ele>21.77</ele><time>2015-05-13T10:40:48Z</time></trkpt><trkpt lat="51.9689168036" lon="-2.1655187476"><ele>19.84</ele><time>2015-05-13T10:41:00Z</time></trkpt><trkpt lat="51.9689898938" lon="-2.1655091085"><ele>19.84</ele><time>2015-05-13T10:41:07Z</time></trkpt><trkpt lat="51.9691145327" lon="-2.1655091085"><ele>19.84</ele><time>2015-05-13T10:41:19Z</time></trkpt><trkpt lat="51.9692522474" lon="-2.1654832084"><ele>18.88</ele><time>2015-05-13T10:41:31Z</time></trkpt><trkpt lat="51.9693878666" lon="-2.1654237807"><ele>20.32</ele><time>2015-05-13T10:41:42Z</time></trkpt><trkpt lat="51.9694964122" lon="-2.1653156541"><ele>19.84</ele><time>2015-05-13T10:41:55Z</time></trkpt><trkpt lat="51.9696114957" lon="-2.1652087849"><ele>18.88</ele><time>2015-05-13T10:42:07Z</time></trkpt><trkpt lat="51.9697212148" lon="-2.1650744230"><ele>18.88</ele><time>2015-05-13T10:42:19Z</time></trkpt><trkpt lat="51.9698121585" lon="-2.1649329364"><ele>18.88</ele><time>2015-05-13T10:42:31Z</time></trkpt><trkpt lat="51.9699120708" lon="-2.1648444235"><ele>18.40</ele><time>2015-05-13T10:42:42Z</time></trkpt><trkpt lat="51.9699821435" lon="-2.1647708304"><ele>18.88</ele><time>2015-05-13T10:42:50Z</time></trkpt><trkpt lat="51.9701031782" lon="-2.1646769531"><ele>18.88</ele><time>2015-05-13T10:43:02Z</time></trkpt><trkpt lat="51.9701486081" lon="-2.1646427549"><ele>18.88</ele><time>2015-05-13T10:43:07Z</time></trkpt><trkpt lat="51.9701931160" lon="-2.1645632107"><ele>18.88</ele><time>2015-05-13T10:43:14Z</time></trkpt><trkpt lat="51.9701944571" lon="-2.1645493805"><ele>19.36</ele><time>2015-05-13T10:43:15Z</time></trkpt><trkpt lat="51.9701991510" lon="-2.1644920483"><ele>18.40</ele><time>2015-05-13T10:43:19Z</time></trkpt><trkpt lat="51.9701986481" lon="-2.1644746978"><ele>18.88</ele><time>2015-05-13T10:43:20Z</time></trkpt><trkpt lat="51.9701910205" lon="-2.1643726900"><ele>18.88</ele><time>2015-05-13T10:43:29Z</time></trkpt><trkpt lat="51.9702056888" lon="-2.1643455327"><ele>20.81</ele><time>2015-05-13T10:43:32Z</time></trkpt><trkpt lat="51.9702118915" lon="-2.1643357258"><ele>17.44</ele><time>2015-05-13T10:43:33Z</time></trkpt><trkpt lat="51.9702195190" lon="-2.1643252485"><ele>18.40</ele><time>2015-05-13T10:43:34Z</time></trkpt><trkpt lat="51.9702482689" lon="-2.1642972529"><ele>18.40</ele><time>2015-05-13T10:43:38Z</time></trkpt><trkpt lat="51.9703610893" lon="-2.1641363204"><ele>17.44</ele><time>2015-05-13T10:43:53Z</time></trkpt><trkpt lat="51.9703695551" lon="-2.1641243342"><ele>20.81</ele><time>2015-05-13T10:43:54Z</time></trkpt><trkpt lat="51.9703748357" lon="-2.1641129348"><ele>17.44</ele><time>2015-05-13T10:43:55Z</time></trkpt><trkpt lat="51.9703892525" lon="-2.1640771441"><ele>20.32</ele><time>2015-05-13T10:43:59Z</time></trkpt><trkpt lat="51.9704144821" lon="-2.1640290320"><ele>17.44</ele><time>2015-05-13T10:44:04Z</time></trkpt><trkpt lat="51.9704458304" lon="-2.1639691852"><ele>17.92</ele><time>2015-05-13T10:44:09Z</time></trkpt><trkpt lat="51.9704685453" lon="-2.1639444586"><ele>18.40</ele><time>2015-05-13T10:44:27Z</time></trkpt><trkpt lat="51.9704685453" lon="-2.1639450453"><ele>14.08</ele><time>2015-05-13T10:44:28Z</time></trkpt><trkpt lat="51.9704696350" lon="-2.1639451291"><ele>19.84</ele><time>2015-05-13T10:44:29Z</time></trkpt><trkpt lat="51.9704703894" lon="-2.1639446262"><ele>15.52</ele><time>2015-05-13T10:44:30Z</time></trkpt><trkpt lat="51.9704750832" lon="-2.1639339812"><ele>19.36</ele><time>2015-05-13T10:44:31Z</time></trkpt><trkpt lat="51.9705129694" lon="-2.1637740545"><ele>16.48</ele><time>2015-05-13T10:44:46Z</time></trkpt><trkpt lat="51.9705158193" lon="-2.1637651697"><ele>19.36</ele><time>2015-05-13T10:44:47Z</time></trkpt><trkpt lat="51.9705242850" lon="-2.1637365036"><ele>16.00</ele><time>2015-05-13T10:44:49Z</time></trkpt><trkpt lat="51.9705273863" lon="-2.1637271158"><ele>16.00</ele><time>2015-05-13T10:44:50Z</time></trkpt><trkpt lat="51.9705283921" lon="-2.1637211647"><ele>18.88</ele><time>2015-05-13T10:44:51Z</time></trkpt><trkpt lat="51.9705470838" lon="-2.1636639163"><ele>20.32</ele><time>2015-05-13T10:45:00Z</time></trkpt><trkpt lat="51.9705472514" lon="-2.1636417881"><ele>15.52</ele><time>2015-05-13T10:45:02Z</time></trkpt><trkpt lat="51.9705511909" lon="-2.1636192407"><ele>19.36</ele><time>2015-05-13T10:45:04Z</time></trkpt><trkpt lat="51.9706071820" lon="-2.1635448094"><ele>19.84</ele><time>2015-05-13T10:45:12Z</time></trkpt><trkpt lat="51.9706209283" lon="-2.1635194961"><ele>17.92</ele><time>2015-05-13T10:45:15Z</time></trkpt><trkpt lat="51.9706433080" lon="-2.1634604037"><ele>20.81</ele><time>2015-05-13T10:45:21Z</time></trkpt><trkpt lat="51.9706497621" lon="-2.1634468250"><ele>17.44</ele><time>2015-05-13T10:45:23Z</time></trkpt><trkpt lat="51.9706596527" lon="-2.1634245291"><ele>20.81</ele><time>2015-05-13T10:45:25Z</time></trkpt><trkpt lat="51.9706821162" lon="-2.1633906662"><ele>16.00</ele><time>2015-05-13T10:45:29Z</time></trkpt><trkpt lat="51.9706872292" lon="-2.1633703820"><ele>20.32</ele><time>2015-05-13T10:45:31Z</time></trkpt><trkpt lat="51.9706957787" lon="-2.1633415483"><ele>16.48</ele><time>2015-05-13T10:45:34Z</time></trkpt><trkpt lat="51.9706952758" lon="-2.1633403748"><ele>20.32</ele><time>2015-05-13T10:45:35Z</time></trkpt><trkpt lat="51.9706987124" lon="-2.1633394528"><ele>19.84</ele><time>2015-05-13T10:45:40Z</time></trkpt><trkpt lat="51.9707304798" lon="-2.1633024886"><ele>18.40</ele><time>2015-05-13T10:45:44Z</time></trkpt><trkpt lat="51.9708261173" lon="-2.1631795261"><ele>19.84</ele><time>2015-05-13T10:45:59Z</time></trkpt><trkpt lat="51.9708545320" lon="-2.1631473396"><ele>19.84</ele><time>2015-05-13T10:46:03Z</time></trkpt><trkpt lat="51.9708683621" lon="-2.1631242055"><ele>18.88</ele><time>2015-05-13T10:46:05Z</time></trkpt><trkpt lat="51.9709298853" lon="-2.1630144864"><ele>18.40</ele><time>2015-05-13T10:46:20Z</time></trkpt><trkpt lat="51.9709781650" lon="-2.1629769355"><ele>17.92</ele><time>2015-05-13T10:46:26Z</time></trkpt><trkpt lat="51.9710778259" lon="-2.1628293302"><ele>18.88</ele><time>2015-05-13T10:46:41Z</time></trkpt><trkpt lat="51.9711338170" lon="-2.1627378836"><ele>15.04</ele><time>2015-05-13T10:46:49Z</time></trkpt><trkpt lat="51.9711383432" lon="-2.1627206169"><ele>18.88</ele><time>2015-05-13T10:46:50Z</time></trkpt><trkpt lat="51.9711960107" lon="-2.1627528034"><ele>18.88</ele><time>2015-05-13T10:47:06Z</time></trkpt><trkpt lat="51.9712110143" lon="-2.1627528872"><ele>18.88</ele><time>2015-05-13T10:47:21Z</time></trkpt><trkpt lat="51.9712408539" lon="-2.1626680624"><ele>19.36</ele><time>2015-05-13T10:47:38Z</time></trkpt><trkpt lat="51.9712438714" lon="-2.1626492869"><ele>19.36</ele><time>2015-05-13T10:48:02Z</time></trkpt><trkpt lat="51.9712517504" lon="-2.1626777854"><ele>17.44</ele><time>2015-05-13T10:48:21Z</time></trkpt><trkpt lat="51.9714006130" lon="-2.1626574174"><ele>19.36</ele><time>2015-05-13T10:48:39Z</time></trkpt><trkpt lat="51.9715649821" lon="-2.1626029350"><ele>19.84</ele><time>2015-05-13T10:48:55Z</time></trkpt><trkpt lat="51.9716667384" lon="-2.1625537332"><ele>18.88</ele><time>2015-05-13T10:49:08Z</time></trkpt><trkpt lat="51.9717098214" lon="-2.1625430882"><ele>18.88</ele><time>2015-05-13T10:49:14Z</time></trkpt><trkpt lat="51.9718842488" lon="-2.1624729317"><ele>18.40</ele><time>2015-05-13T10:49:29Z</time></trkpt><trkpt lat="51.9719639607" lon="-2.1624406613"><ele>18.40</ele><time>2015-05-13T10:49:44Z</time></trkpt><trkpt lat="51.9722082093" lon="-2.1623104066"><ele>18.88</ele><time>2015-05-13T10:50:01Z</time></trkpt><trkpt lat="51.9723866601" lon="-2.1622093208"><ele>18.88</ele><time>2015-05-13T10:50:19Z</time></trkpt><trkpt lat="51.9724023342" lon="-2.1621752903"><ele>13.60</ele><time>2015-05-13T10:50:23Z</time></trkpt><trkpt lat="51.9724037591" lon="-2.1621747874"><ele>20.32</ele><time>2015-05-13T10:50:24Z</time></trkpt><trkpt lat="51.9724058546" lon="-2.1621735301"><ele>25.61</ele><time>2015-05-13T10:50:27Z</time></trkpt><trkpt lat="51.9724066928" lon="-2.1621727757"><ele>20.32</ele><time>2015-05-13T10:50:28Z</time></trkpt><trkpt lat="51.9724974688" lon="-2.1621329617"><ele>19.36</ele><time>2015-05-13T10:50:37Z</time></trkpt><trkpt lat="51.9726011530" lon="-2.1620892081"><ele>19.84</ele><time>2015-05-13T10:50:51Z</time></trkpt><trkpt lat="51.9726973772" lon="-2.1620009467"><ele>18.40</ele><time>2015-05-13T10:51:01Z</time></trkpt><trkpt lat="51.9728395343" lon="-2.1619550977"><ele>18.40</ele><time>2015-05-13T10:51:14Z</time></trkpt><trkpt lat="51.9728692062" lon="-2.1619573608"><ele>18.40</ele><time>2015-05-13T10:51:18Z</time></trkpt><trkpt lat="51.9729203358" lon="-2.1619737893"><ele>17.44</ele><time>2015-05-13T10:51:23Z</time></trkpt><trkpt lat="51.9729981199" lon="-2.1619353164"><ele>18.40</ele><time>2015-05-13T10:51:30Z</time></trkpt><trkpt lat="51.9730443880" lon="-2.1618763916"><ele>17.92</ele><time>2015-05-13T10:51:36Z</time></trkpt><trkpt lat="51.9731365051" lon="-2.1617808379"><ele>16.96</ele><time>2015-05-13T10:51:46Z</time></trkpt><trkpt lat="51.9731717929" lon="-2.1617559437"><ele>20.32</ele><time>2015-05-13T10:51:49Z</time></trkpt><trkpt lat="51.9733087532" lon="-2.1616605576"><ele>17.92</ele><time>2015-05-13T10:52:04Z</time></trkpt><trkpt lat="51.9734460488" lon="-2.1616025548"><ele>18.88</ele><time>2015-05-13T10:52:20Z</time></trkpt><trkpt lat="51.9736136030" lon="-2.1615085937"><ele>16.96</ele><time>2015-05-13T10:52:37Z</time></trkpt><trkpt lat="51.9736387488" lon="-2.1614977811"><ele>18.88</ele><time>2015-05-13T10:52:40Z</time></trkpt><trkpt lat="51.9737623818" lon="-2.1615002956"><ele>18.40</ele><time>2015-05-13T10:52:54Z</time></trkpt><trkpt lat="51.9737746194" lon="-2.1615023073"><ele>18.88</ele><time>2015-05-13T10:52:55Z</time></trkpt><trkpt lat="51.9738181215" lon="-2.1615058277"><ele>19.36</ele><time>2015-05-13T10:52:58Z</time></trkpt><trkpt lat="51.9738921337" lon="-2.1615404449"><ele>17.92</ele><time>2015-05-13T10:53:06Z</time></trkpt><trkpt lat="51.9739154354" lon="-2.1615418699"><ele>19.36</ele><time>2015-05-13T10:53:08Z</time></trkpt><trkpt lat="51.9739332888" lon="-2.1615407802"><ele>18.40</ele><time>2015-05-13T10:53:10Z</time></trkpt><trkpt lat="51.9739761204" lon="-2.1615305543"><ele>17.92</ele><time>2015-05-13T10:53:15Z</time></trkpt><trkpt lat="51.9740222208" lon="-2.1615141258"><ele>18.88</ele><time>2015-05-13T10:53:20Z</time></trkpt><trkpt lat="51.9740912877" lon="-2.1615052409"><ele>19.84</ele><time>2015-05-13T10:53:27Z</time></trkpt><trkpt lat="51.9741441775" lon="-2.1615116112"><ele>18.40</ele><time>2015-05-13T10:53:33Z</time></trkpt><trkpt lat="51.9741871767" lon="-2.1614794247"><ele>18.88</ele><time>2015-05-13T10:53:37Z</time></trkpt><trkpt lat="51.9743023440" lon="-2.1614206675"><ele>18.40</ele><time>2015-05-13T10:53:48Z</time></trkpt><trkpt lat="51.9744403102" lon="-2.1613801830"><ele>18.40</ele><time>2015-05-13T10:54:02Z</time></trkpt><trkpt lat="51.9744590856" lon="-2.1613709629"><ele>18.88</ele><time>2015-05-13T10:54:04Z</time></trkpt><trkpt lat="51.9745749235" lon="-2.1613514330"><ele>18.40</ele><time>2015-05-13T10:54:16Z</time></trkpt><trkpt lat="51.9745920226" lon="-2.1613386925"><ele>18.88</ele><time>2015-05-13T10:54:18Z</time></trkpt><trkpt lat="51.9746783562" lon="-2.1612779237"><ele>19.36</ele><time>2015-05-13T10:54:29Z</time></trkpt><trkpt lat="51.9747470878" lon="-2.1611265466"><ele>17.44</ele><time>2015-05-13T10:54:41Z</time></trkpt><trkpt lat="51.9747610018" lon="-2.1611025743"><ele>19.36</ele><time>2015-05-13T10:54:43Z</time></trkpt><trkpt lat="51.9747694675" lon="-2.1610948630"><ele>18.88</ele><time>2015-05-13T10:54:44Z</time></trkpt><trkpt lat="51.9747937750" lon="-2.1610577311"><ele>17.92</ele><time>2015-05-13T10:54:50Z</time></trkpt><trkpt lat="51.9748828746" lon="-2.1608234569"><ele>18.40</ele><time>2015-05-13T10:55:04Z</time></trkpt><trkpt lat="51.9749563001" lon="-2.1606858261"><ele>18.40</ele><time>2015-05-13T10:55:15Z</time></trkpt><trkpt lat="51.9750459027" lon="-2.1605129912"><ele>18.88</ele><time>2015-05-13T10:55:29Z</time></trkpt><trkpt lat="51.9751181547" lon="-2.1603533998"><ele>18.88</ele><time>2015-05-13T10:55:41Z</time></trkpt><trkpt lat="51.9751235191" lon="-2.1603403240"><ele>17.44</ele><time>2015-05-13T10:55:42Z</time></trkpt><trkpt lat="51.9751537777" lon="-2.1603116579"><ele>17.92</ele><time>2015-05-13T10:55:46Z</time></trkpt><trkpt lat="51.9752579648" lon="-2.1603742708"><ele>18.40</ele><time>2015-05-13T10:56:01Z</time></trkpt><trkpt lat="51.9753216673" lon="-2.1603963990"><ele>17.44</ele><time>2015-05-13T10:56:09Z</time></trkpt><trkpt lat="51.9754127786" lon="-2.1603758633"><ele>14.56</ele><time>2015-05-13T10:56:17Z</time></trkpt><trkpt lat="51.9754168019" lon="-2.1603710018"><ele>18.40</ele><time>2015-05-13T10:56:18Z</time></trkpt><trkpt lat="51.9754669257" lon="-2.1604361292"><ele>18.88</ele><time>2015-05-13T10:56:29Z</time></trkpt><trkpt lat="51.9754874613" lon="-2.1604401525"><ele>17.92</ele><time>2015-05-13T10:56:31Z</time></trkpt><trkpt lat="51.9755479787" lon="-2.1604296751"><ele>17.92</ele><time>2015-05-13T10:56:36Z</time></trkpt><trkpt lat="51.9756866153" lon="-2.1603549924"><ele>18.88</ele><time>2015-05-13T10:56:51Z</time></trkpt><trkpt lat="51.9757978432" lon="-2.1603316069"><ele>17.44</ele><time>2015-05-13T10:57:05Z</time></trkpt><trkpt lat="51.9757880364" lon="-2.1604232211"><ele>17.44</ele><time>2015-05-13T10:57:09Z</time></trkpt><trkpt lat="51.9758066442" lon="-2.1605975647"><ele>5.91</ele><time>2015-05-13T10:57:22Z</time></trkpt><trkpt lat="51.9758068956" lon="-2.1605974808"><ele>15.52</ele><time>2015-05-13T10:57:23Z</time></trkpt><trkpt lat="51.9758079853" lon="-2.1605959721"><ele>20.81</ele><time>2015-05-13T10:57:24Z</time></trkpt><trkpt lat="51.9758093264" lon="-2.1605946310"><ele>19.36</ele><time>2015-05-13T10:57:25Z</time></trkpt><trkpt lat="51.9758163672" lon="-2.1605937090"><ele>11.19</ele><time>2015-05-13T10:57:28Z</time></trkpt><trkpt lat="51.9758162834" lon="-2.1605953015"><ele>21.77</ele><time>2015-05-13T10:57:29Z</time></trkpt><trkpt lat="51.9758175407" lon="-2.1605958883"><ele>16.48</ele><time>2015-05-13T10:57:31Z</time></trkpt><trkpt lat="51.9758472964" lon="-2.1605813876"><ele>17.92</ele><time>2015-05-13T10:57:46Z</time></trkpt><trkpt lat="51.9758561812" lon="-2.1605615225"><ele>18.40</ele><time>2015-05-13T10:58:08Z</time></trkpt><trkpt lat="51.9758607075" lon="-2.1605639532"><ele>17.92</ele><time>2015-05-13T10:58:34Z</time></trkpt><trkpt lat="51.9758669101" lon="-2.1605569124"><ele>18.40</ele><time>2015-05-13T10:58:51Z</time></trkpt><trkpt lat="51.9758716039" lon="-2.1605528891"><ele>18.40</ele><time>2015-05-13T10:59:14Z</time></trkpt><trkpt lat="51.9759581052" lon="-2.1605813876"><ele>14.08</ele><time>2015-05-13T10:59:27Z</time></trkpt><trkpt lat="51.9759665709" lon="-2.1605813038"><ele>19.84</ele><time>2015-05-13T10:59:28Z</time></trkpt><trkpt lat="51.9760240708" lon="-2.1605910268"><ele>15.52</ele><time>2015-05-13T10:59:35Z</time></trkpt><trkpt lat="51.9760304410" lon="-2.1605879255"><ele>16.00</ele><time>2015-05-13T10:59:36Z</time></trkpt><trkpt lat="51.9760343805" lon="-2.1605841536"><ele>19.36</ele><time>2015-05-13T10:59:37Z</time></trkpt><trkpt lat="51.9760827441" lon="-2.1605657972"><ele>18.40</ele><time>2015-05-13T10:59:52Z</time></trkpt><trkpt lat="51.9761176966" lon="-2.1605512127"><ele>21.29</ele><time>2015-05-13T11:00:11Z</time></trkpt><trkpt lat="51.9761244021" lon="-2.1605585050"><ele>17.92</ele><time>2015-05-13T11:00:12Z</time></trkpt><trkpt lat="51.9761923794" lon="-2.1606170107"><ele>18.40</ele><time>2015-05-13T11:00:18Z</time></trkpt><trkpt lat="51.9763558265" lon="-2.1606926993"><ele>17.92</ele><time>2015-05-13T11:00:34Z</time></trkpt><trkpt lat="51.9764983188" lon="-2.1607413981"><ele>21.29</ele><time>2015-05-13T11:00:48Z</time></trkpt><trkpt lat="51.9765153341" lon="-2.1607393026"><ele>17.92</ele><time>2015-05-13T11:00:50Z</time></trkpt><trkpt lat="51.9766577426" lon="-2.1607902646"><ele>21.29</ele><time>2015-05-13T11:01:06Z</time></trkpt><trkpt lat="51.9767958764" lon="-2.1608427353"><ele>21.29</ele><time>2015-05-13T11:01:20Z</time></trkpt><trkpt lat="51.9768584892" lon="-2.1608474292"><ele>23.21</ele><time>2015-05-13T11:01:27Z</time></trkpt><trkpt lat="51.9768679608" lon="-2.1608467586"><ele>20.32</ele><time>2015-05-13T11:01:28Z</time></trkpt><trkpt lat="51.9768757559" lon="-2.1608465072"><ele>23.21</ele><time>2015-05-13T11:01:29Z</time></trkpt><trkpt lat="51.9770076871" lon="-2.1608973015"><ele>24.17</ele><time>2015-05-13T11:01:47Z</time></trkpt><trkpt lat="51.9771386124" lon="-2.1610242035"><ele>27.05</ele><time>2015-05-13T11:02:05Z</time></trkpt><trkpt lat="51.9771461561" lon="-2.1610338427"><ele>24.17</ele><time>2015-05-13T11:02:06Z</time></trkpt><trkpt lat="51.9772232696" lon="-2.1611379460"><ele>25.13</ele><time>2015-05-13T11:02:20Z</time></trkpt><trkpt lat="51.9773785863" lon="-2.1612285543"><ele>24.65</ele><time>2015-05-13T11:02:37Z</time></trkpt><trkpt lat="51.9774688594" lon="-2.1612313204"><ele>23.69</ele><time>2015-05-13T11:02:47Z</time></trkpt><trkpt lat="51.9776022993" lon="-2.1612596512"><ele>23.21</ele><time>2015-05-13T11:03:02Z</time></trkpt><trkpt lat="51.9777737092" lon="-2.1612710506"><ele>24.17</ele><time>2015-05-13T11:03:18Z</time></trkpt><trkpt lat="51.9778813329" lon="-2.1613024827"><ele>23.21</ele><time>2015-05-13T11:03:30Z</time></trkpt><trkpt lat="51.9780183770" lon="-2.1613137145"><ele>23.21</ele><time>2015-05-13T11:03:43Z</time></trkpt><trkpt lat="51.9781477936" lon="-2.1613099426"><ele>21.29</ele><time>2015-05-13T11:03:57Z</time></trkpt><trkpt lat="51.9782717619" lon="-2.1612990461"><ele>21.77</ele><time>2015-05-13T11:04:09Z</time></trkpt><trkpt lat="51.9783550780" lon="-2.1613133792"><ele>22.73</ele><time>2015-05-13T11:04:19Z</time></trkpt><trkpt lat="51.9783612806" lon="-2.1613149717"><ele>19.36</ele><time>2015-05-13T11:04:20Z</time></trkpt><trkpt lat="51.9783902820" lon="-2.1613275446"><ele>23.69</ele><time>2015-05-13T11:04:24Z</time></trkpt><trkpt lat="51.9783979934" lon="-2.1613339148"><ele>21.29</ele><time>2015-05-13T11:04:27Z</time></trkpt><trkpt lat="51.9784546550" lon="-2.1613914147"><ele>20.32</ele><time>2015-05-13T11:04:44Z</time></trkpt><trkpt lat="51.9785556570" lon="-2.1614268702"><ele>23.21</ele><time>2015-05-13T11:04:53Z</time></trkpt><trkpt lat="51.9786767755" lon="-2.1614743955"><ele>20.81</ele><time>2015-05-13T11:05:09Z</time></trkpt><trkpt lat="51.9787268154" lon="-2.1614899859"><ele>20.32</ele><time>2015-05-13T11:05:13Z</time></trkpt><trkpt lat="51.9787730835" lon="-2.1614938416"><ele>19.36</ele><time>2015-05-13T11:05:22Z</time></trkpt><trkpt lat="51.9787801243" lon="-2.1615404449"><ele>22.25</ele><time>2015-05-13T11:05:28Z</time></trkpt><trkpt lat="51.9787772745" lon="-2.1615951788"><ele>21.29</ele><time>2015-05-13T11:05:34Z</time></trkpt><trkpt lat="51.9787551463" lon="-2.1617982723"><ele>21.29</ele><time>2015-05-13T11:05:45Z</time></trkpt><trkpt lat="51.9787654560" lon="-2.1620158665"><ele>24.17</ele><time>2015-05-13T11:05:59Z</time></trkpt><trkpt lat="51.9787756819" lon="-2.1623176988"><ele>21.77</ele><time>2015-05-13T11:06:16Z</time></trkpt><trkpt lat="51.9787612651" lon="-2.1623421740"><ele>21.29</ele><time>2015-05-13T11:06:23Z</time></trkpt><trkpt lat="51.9786594249" lon="-2.1623653080"><ele>21.77</ele><time>2015-05-13T11:06:36Z</time></trkpt><trkpt lat="51.9785894360" lon="-2.1624151804"><ele>22.25</ele><time>2015-05-13T11:06:45Z</time></trkpt><trkpt lat="51.9785505440" lon="-2.1624374762"><ele>21.77</ele><time>2015-05-13T11:06:50Z</time></trkpt><trkpt lat="51.9784262404" lon="-2.1624632925"><ele>22.73</ele><time>2015-05-13T11:07:04Z</time></trkpt><trkpt lat="51.9782931358" lon="-2.1626239736"><ele>23.69</ele><time>2015-05-13T11:07:20Z</time></trkpt><trkpt lat="51.9781335443" lon="-2.1627695672"><ele>23.69</ele><time>2015-05-13T11:07:37Z</time></trkpt><trkpt lat="51.9780586939" lon="-2.1628053579"><ele>23.21</ele><time>2015-05-13T11:07:48Z</time></trkpt><trkpt lat="51.9780308660" lon="-2.1628556494"><ele>22.25</ele><time>2015-05-13T11:07:52Z</time></trkpt><trkpt lat="51.9780107494" lon="-2.1628805436"><ele>26.57</ele><time>2015-05-13T11:07:54Z</time></trkpt><trkpt lat="51.9779990986" lon="-2.1628949605"><ele>22.73</ele><time>2015-05-13T11:07:55Z</time></trkpt><trkpt lat="51.9779503997" lon="-2.1629426535"><ele>28.02</ele><time>2015-05-13T11:08:00Z</time></trkpt><trkpt lat="51.9779425208" lon="-2.1629513707"><ele>20.81</ele><time>2015-05-13T11:08:01Z</time></trkpt><trkpt lat="51.9779333007" lon="-2.1629571542"><ele>24.65</ele><time>2015-05-13T11:08:02Z</time></trkpt><trkpt lat="51.9779032934" lon="-2.1629765164"><ele>21.77</ele><time>2015-05-13T11:08:05Z</time></trkpt><trkpt lat="51.9778835122" lon="-2.1629987285"><ele>25.61</ele><time>2015-05-13T11:08:07Z</time></trkpt><trkpt lat="51.9778730348" lon="-2.1630094573"><ele>25.61</ele><time>2015-05-13T11:08:08Z</time></trkpt><trkpt lat="51.9778556004" lon="-2.1630202699"><ele>20.81</ele><time>2015-05-13T11:08:10Z</time></trkpt><trkpt lat="51.9778462965" lon="-2.1630264726"><ele>23.69</ele><time>2015-05-13T11:08:11Z</time></trkpt><trkpt lat="51.9777555205" lon="-2.1631085314"><ele>23.69</ele><time>2015-05-13T11:08:25Z</time></trkpt><trkpt lat="51.9776791614" lon="-2.1632661112"><ele>23.69</ele><time>2015-05-13T11:08:41Z</time></trkpt><trkpt lat="51.9776466396" lon="-2.1633236110"><ele>24.65</ele><time>2015-05-13T11:08:47Z</time></trkpt><trkpt lat="51.9776026346" lon="-2.1634873934"><ele>21.29</ele><time>2015-05-13T11:09:02Z</time></trkpt><trkpt lat="51.9776022155" lon="-2.1634988766"><ele>25.61</ele><time>2015-05-13T11:09:03Z</time></trkpt><trkpt lat="51.9775855355" lon="-2.1635966096"><ele>23.69</ele><time>2015-05-13T11:09:12Z</time></trkpt><trkpt lat="51.9775820151" lon="-2.1636152174"><ele>24.65</ele><time>2015-05-13T11:09:14Z</time></trkpt><trkpt lat="51.9774552807" lon="-2.1637252718"><ele>23.69</ele><time>2015-05-13T11:09:26Z</time></trkpt><trkpt lat="51.9773041550" lon="-2.1638675965"><ele>22.25</ele><time>2015-05-13T11:09:48Z</time></trkpt><trkpt lat="51.9772944320" lon="-2.1638697758"><ele>24.17</ele><time>2015-05-13T11:09:49Z</time></trkpt><trkpt lat="51.9772064220" lon="-2.1638954245"><ele>24.65</ele><time>2015-05-13T11:09:57Z</time></trkpt><trkpt lat="51.9772080146" lon="-2.1639235038"><ele>24.17</ele><time>2015-05-13T11:10:17Z</time></trkpt><trkpt lat="51.9770658575" lon="-2.1639921516"><ele>20.32</ele><time>2015-05-13T11:10:34Z</time></trkpt><trkpt lat="51.9770496804" lon="-2.1640000306"><ele>24.17</ele><time>2015-05-13T11:10:36Z</time></trkpt><trkpt lat="51.9770346768" lon="-2.1640098374"><ele>20.81</ele><time>2015-05-13T11:10:38Z</time></trkpt><trkpt lat="51.9770090282" lon="-2.1640312951"><ele>25.13</ele><time>2015-05-13T11:10:41Z</time></trkpt><trkpt lat="51.9769278076" lon="-2.1641089953"><ele>21.29</ele><time>2015-05-13T11:10:49Z</time></trkpt><trkpt lat="51.9769202638" lon="-2.1641170420"><ele>22.73</ele><time>2015-05-13T11:10:50Z</time></trkpt><trkpt lat="51.9769095350" lon="-2.1641328838"><ele>24.17</ele><time>2015-05-13T11:10:52Z</time></trkpt><trkpt lat="51.9768966269" lon="-2.1641428582"><ele>22.73</ele><time>2015-05-13T11:10:54Z</time></trkpt><trkpt lat="51.9768734928" lon="-2.1641531680"><ele>28.98</ele><time>2015-05-13T11:10:57Z</time></trkpt><trkpt lat="51.9768642727" lon="-2.1641538385"><ele>22.73</ele><time>2015-05-13T11:10:58Z</time></trkpt><trkpt lat="51.9768514484" lon="-2.1641561855"><ele>17.44</ele><time>2015-05-13T11:10:59Z</time></trkpt><trkpt lat="51.9768401328" lon="-2.1641607117"><ele>23.69</ele><time>2015-05-13T11:11:00Z</time></trkpt><trkpt lat="51.9767961279" lon="-2.1641606279"><ele>22.73</ele><time>2015-05-13T11:11:04Z</time></trkpt><trkpt lat="51.9767454173" lon="-2.1640633978"><ele>24.65</ele><time>2015-05-13T11:11:17Z</time></trkpt><trkpt lat="51.9767484348" lon="-2.1640544292"><ele>22.73</ele><time>2015-05-13T11:11:19Z</time></trkpt><trkpt lat="51.9767085370" lon="-2.1640379168"><ele>19.36</ele><time>2015-05-13T11:11:27Z</time></trkpt><trkpt lat="51.9767084531" lon="-2.1640380844"><ele>22.73</ele><time>2015-05-13T11:11:28Z</time></trkpt><trkpt lat="51.9765819702" lon="-2.1639939956"><ele>25.61</ele><time>2015-05-13T11:11:45Z</time></trkpt><trkpt lat="51.9765756838" lon="-2.1639981866"><ele>21.29</ele><time>2015-05-13T11:11:46Z</time></trkpt><trkpt lat="51.9765704032" lon="-2.1639984380"><ele>21.77</ele><time>2015-05-13T11:11:47Z</time></trkpt><trkpt lat="51.9765048567" lon="-2.1640343964"><ele>25.13</ele><time>2015-05-13T11:12:08Z</time></trkpt><trkpt lat="51.9764988218" lon="-2.1640312113"><ele>19.36</ele><time>2015-05-13T11:12:09Z</time></trkpt><trkpt lat="51.9764927868" lon="-2.1640292834"><ele>22.73</ele><time>2015-05-13T11:12:10Z</time></trkpt><trkpt lat="51.9764157571" lon="-2.1640296187"><ele>20.81</ele><time>2015-05-13T11:12:20Z</time></trkpt><trkpt lat="51.9763683993" lon="-2.1640448738"><ele>22.25</ele><time>2015-05-13T11:12:25Z</time></trkpt><trkpt lat="51.9763357099" lon="-2.1640651580"><ele>24.65</ele><time>2015-05-13T11:12:28Z</time></trkpt><trkpt lat="51.9763065409" lon="-2.1640808322"><ele>21.29</ele><time>2015-05-13T11:12:31Z</time></trkpt><trkpt lat="51.9761917088" lon="-2.1641426906"><ele>25.13</ele><time>2015-05-13T11:12:42Z</time></trkpt><trkpt lat="51.9761820696" lon="-2.1641362365"><ele>21.29</ele><time>2015-05-13T11:12:43Z</time></trkpt><trkpt lat="51.9761674013" lon="-2.1641345602"><ele>22.25</ele><time>2015-05-13T11:12:46Z</time></trkpt><trkpt lat="51.9761354662" lon="-2.1641882882"><ele>21.77</ele><time>2015-05-13T11:12:51Z</time></trkpt><trkpt lat="51.9761150144" lon="-2.1642006934"><ele>22.73</ele><time>2015-05-13T11:12:53Z</time></trkpt><trkpt lat="51.9760611188" lon="-2.1642154455"><ele>22.25</ele><time>2015-05-13T11:12:58Z</time></trkpt><trkpt lat="51.9760217238" lon="-2.1642335504"><ele>23.69</ele><time>2015-05-13T11:13:01Z</time></trkpt><trkpt lat="51.9759388268" lon="-2.1642892901"><ele>22.25</ele><time>2015-05-13T11:13:11Z</time></trkpt><trkpt lat="51.9759232365" lon="-2.1643067244"><ele>23.21</ele><time>2015-05-13T11:13:13Z</time></trkpt><trkpt lat="51.9758711010" lon="-2.1643415093"><ele>21.77</ele><time>2015-05-13T11:13:18Z</time></trkpt><trkpt lat="51.9758267608" lon="-2.1643508971"><ele>21.29</ele><time>2015-05-13T11:13:23Z</time></trkpt><trkpt lat="51.9757928140" lon="-2.1643786412"><ele>24.65</ele><time>2015-05-13T11:13:27Z</time></trkpt><trkpt lat="51.9757713564" lon="-2.1643946506"><ele>19.84</ele><time>2015-05-13T11:13:29Z</time></trkpt><trkpt lat="51.9757402595" lon="-2.1644210536"><ele>25.61</ele><time>2015-05-13T11:13:32Z</time></trkpt><trkpt lat="51.9757343922" lon="-2.1644249093"><ele>21.77</ele><time>2015-05-13T11:13:33Z</time></trkpt><trkpt lat="51.9756778982" lon="-2.1644242387"><ele>22.25</ele><time>2015-05-13T11:13:49Z</time></trkpt><trkpt lat="51.9756040536" lon="-2.1644627117"><ele>23.21</ele><time>2015-05-13T11:13:57Z</time></trkpt><trkpt lat="51.9755965099" lon="-2.1644696686"><ele>19.84</ele><time>2015-05-13T11:13:58Z</time></trkpt><trkpt lat="51.9755887985" lon="-2.1644744463"><ele>21.77</ele><time>2015-05-13T11:13:59Z</time></trkpt><trkpt lat="51.9755793270" lon="-2.1644814033"><ele>22.25</ele><time>2015-05-13T11:14:00Z</time></trkpt><trkpt lat="51.9755389262" lon="-2.1645172779"><ele>21.29</ele><time>2015-05-13T11:14:05Z</time></trkpt><trkpt lat="51.9754286204" lon="-2.1646368038"><ele>23.69</ele><time>2015-05-13T11:14:19Z</time></trkpt><trkpt lat="51.9754101802" lon="-2.1646425873"><ele>19.84</ele><time>2015-05-13T11:14:21Z</time></trkpt><trkpt lat="51.9753985293" lon="-2.1646482032"><ele>21.77</ele><time>2015-05-13T11:14:22Z</time></trkpt><trkpt lat="51.9753656723" lon="-2.1646711696"><ele>23.21</ele><time>2015-05-13T11:14:25Z</time></trkpt><trkpt lat="51.9753573742" lon="-2.1646803059"><ele>18.88</ele><time>2015-05-13T11:14:26Z</time></trkpt><trkpt lat="51.9753466453" lon="-2.1646860056"><ele>21.77</ele><time>2015-05-13T11:14:27Z</time></trkpt><trkpt lat="51.9751890656" lon="-2.1647847444"><ele>23.69</ele><time>2015-05-13T11:14:43Z</time></trkpt><trkpt lat="51.9751510955" lon="-2.1648004185"><ele>19.36</ele><time>2015-05-13T11:14:47Z</time></trkpt><trkpt lat="51.9751225132" lon="-2.1648098901"><ele>23.21</ele><time>2015-05-13T11:14:50Z</time></trkpt><trkpt lat="51.9751171488" lon="-2.1648103092"><ele>21.77</ele><time>2015-05-13T11:14:51Z</time></trkpt><trkpt lat="51.9750008080" lon="-2.1648608521"><ele>20.81</ele><time>2015-05-13T11:15:04Z</time></trkpt><trkpt lat="51.9749277178" lon="-2.1648958046"><ele>20.81</ele><time>2015-05-13T11:15:11Z</time></trkpt><trkpt lat="51.9748963695" lon="-2.1649290808"><ele>19.36</ele><time>2015-05-13T11:15:15Z</time></trkpt><trkpt lat="51.9748848863" lon="-2.1649488620"><ele>22.73</ele><time>2015-05-13T11:15:17Z</time></trkpt><trkpt lat="51.9748620037" lon="-2.1650122292"><ele>20.81</ele><time>2015-05-13T11:15:34Z</time></trkpt><trkpt lat="51.9748811144" lon="-2.1651267260"><ele>22.25</ele><time>2015-05-13T11:15:49Z</time></trkpt><trkpt lat="51.9748883229" lon="-2.1651370358"><ele>21.77</ele><time>2015-05-13T11:16:06Z</time></trkpt><trkpt lat="51.9748910889" lon="-2.1651874948"><ele>20.81</ele><time>2015-05-13T11:16:29Z</time></trkpt><trkpt lat="51.9749230240" lon="-2.1654074360"><ele>20.81</ele><time>2015-05-13T11:16:43Z</time></trkpt><trkpt lat="51.9749264605" lon="-2.1654656902"><ele>24.17</ele><time>2015-05-13T11:16:46Z</time></trkpt><trkpt lat="51.9749355968" lon="-2.1655037440"><ele>20.81</ele><time>2015-05-13T11:16:48Z</time></trkpt><trkpt lat="51.9749453198" lon="-2.1655672789"><ele>24.65</ele><time>2015-05-13T11:16:52Z</time></trkpt><trkpt lat="51.9749449007" lon="-2.1655810252"><ele>21.77</ele><time>2015-05-13T11:16:53Z</time></trkpt><trkpt lat="51.9749551266" lon="-2.1656957734"><ele>22.73</ele><time>2015-05-13T11:17:01Z</time></trkpt><trkpt lat="51.9749627542" lon="-2.1657341626"><ele>21.29</ele><time>2015-05-13T11:17:04Z</time></trkpt><trkpt lat="51.9749705493" lon="-2.1657803468"><ele>22.73</ele><time>2015-05-13T11:17:07Z</time></trkpt><trkpt lat="51.9749727286" lon="-2.1658127010"><ele>21.29</ele><time>2015-05-13T11:17:09Z</time></trkpt><trkpt lat="51.9749825355" lon="-2.1658821031"><ele>24.65</ele><time>2015-05-13T11:17:13Z</time></trkpt><trkpt lat="51.9749830384" lon="-2.1658929996"><ele>21.29</ele><time>2015-05-13T11:17:14Z</time></trkpt><trkpt lat="51.9749869779" lon="-2.1659059916"><ele>20.32</ele><time>2015-05-13T11:17:15Z</time></trkpt><trkpt lat="51.9749938510" lon="-2.1659347415"><ele>23.21</ele><time>2015-05-13T11:17:17Z</time></trkpt><trkpt lat="51.9749937672" lon="-2.1659480687"><ele>22.25</ele><time>2015-05-13T11:17:18Z</time></trkpt><trkpt lat="51.9750146382" lon="-2.1661400143"><ele>22.25</ele><time>2015-05-13T11:17:29Z</time></trkpt><trkpt lat="51.9750210084" lon="-2.1661562752"><ele>18.40</ele><time>2015-05-13T11:17:30Z</time></trkpt><trkpt lat="51.9750267081" lon="-2.1661711112"><ele>23.21</ele><time>2015-05-13T11:17:31Z</time></trkpt><trkpt lat="51.9750586431" lon="-2.1663006954"><ele>19.84</ele><time>2015-05-13T11:17:41Z</time></trkpt><trkpt lat="51.9750623312" lon="-2.1663121786"><ele>22.73</ele><time>2015-05-13T11:17:42Z</time></trkpt><trkpt lat="51.9750737306" lon="-2.1663752943"><ele>18.88</ele><time>2015-05-13T11:17:46Z</time></trkpt><trkpt lat="51.9750733115" lon="-2.1663913876"><ele>22.73</ele><time>2015-05-13T11:17:47Z</time></trkpt><trkpt lat="51.9750954397" lon="-2.1665138472"><ele>23.21</ele><time>2015-05-13T11:17:55Z</time></trkpt><trkpt lat="51.9751391094" lon="-2.1667998377"><ele>19.84</ele><time>2015-05-13T11:18:15Z</time></trkpt><trkpt lat="51.9751401991" lon="-2.1668105666"><ele>23.69</ele><time>2015-05-13T11:18:16Z</time></trkpt><trkpt lat="51.9751509279" lon="-2.1668758616"><ele>19.36</ele><time>2015-05-13T11:18:20Z</time></trkpt><trkpt lat="51.9751546998" lon="-2.1668928768"><ele>23.21</ele><time>2015-05-13T11:18:21Z</time></trkpt><trkpt lat="51.9751834497" lon="-2.1671677195"><ele>19.36</ele><time>2015-05-13T11:18:42Z</time></trkpt><trkpt lat="51.9751816057" lon="-2.1671885904"><ele>19.36</ele><time>2015-05-13T11:18:43Z</time></trkpt><trkpt lat="51.9751809351" lon="-2.1672278177"><ele>23.21</ele><time>2015-05-13T11:18:45Z</time></trkpt><trkpt lat="51.9751871377" lon="-2.1672440786"><ele>24.65</ele><time>2015-05-13T11:18:46Z</time></trkpt><trkpt lat="51.9751961902" lon="-2.1673043445"><ele>18.88</ele><time>2015-05-13T11:18:50Z</time></trkpt><trkpt lat="51.9752022251" lon="-2.1673185099"><ele>23.21</ele><time>2015-05-13T11:18:51Z</time></trkpt><trkpt lat="51.9752158038" lon="-2.1673647780"><ele>24.65</ele><time>2015-05-13T11:18:54Z</time></trkpt><trkpt lat="51.9752220064" lon="-2.1674278937"><ele>21.29</ele><time>2015-05-13T11:18:58Z</time></trkpt><trkpt lat="51.9752315618" lon="-2.1674888302"><ele>25.61</ele><time>2015-05-13T11:19:01Z</time></trkpt><trkpt lat="51.9752341602" lon="-2.1675080247"><ele>17.92</ele><time>2015-05-13T11:19:02Z</time></trkpt><trkpt lat="51.9752401114" lon="-2.1675250400"><ele>23.21</ele><time>2015-05-13T11:19:03Z</time></trkpt><trkpt lat="51.9752664305" lon="-2.1675871499"><ele>18.88</ele><time>2015-05-13T11:19:07Z</time></trkpt><trkpt lat="51.9752706215" lon="-2.1676009800"><ele>23.21</ele><time>2015-05-13T11:19:08Z</time></trkpt><trkpt lat="51.9752728846" lon="-2.1676151454"><ele>19.84</ele><time>2015-05-13T11:19:09Z</time></trkpt><trkpt lat="51.9752720464" lon="-2.1676441468"><ele>23.69</ele><time>2015-05-13T11:19:11Z</time></trkpt><trkpt lat="51.9752722140" lon="-2.1676761657"><ele>25.61</ele><time>2015-05-13T11:19:13Z</time></trkpt><trkpt lat="51.9752680231" lon="-2.1676927619"><ele>21.29</ele><time>2015-05-13T11:19:14Z</time></trkpt><trkpt lat="51.9752639160" lon="-2.1677081846"><ele>22.73</ele><time>2015-05-13T11:19:15Z</time></trkpt><trkpt lat="51.9752567913" lon="-2.1677397843"><ele>26.57</ele><time>2015-05-13T11:19:17Z</time></trkpt><trkpt lat="51.9752506725" lon="-2.1677493397"><ele>21.29</ele><time>2015-05-13T11:19:18Z</time></trkpt><trkpt lat="51.9752466492" lon="-2.1677589789"><ele>21.29</ele><time>2015-05-13T11:19:19Z</time></trkpt><trkpt lat="51.9752438832" lon="-2.1677665226"><ele>25.13</ele><time>2015-05-13T11:19:20Z</time></trkpt><trkpt lat="51.9752448052" lon="-2.1677725576"><ele>22.73</ele><time>2015-05-13T11:19:21Z</time></trkpt><trkpt lat="51.9752439670" lon="-2.1677756589"><ele>24.17</ele><time>2015-05-13T11:19:24Z</time></trkpt><trkpt lat="51.9752363395" lon="-2.1677864715"><ele>21.29</ele><time>2015-05-13T11:19:26Z</time></trkpt><trkpt lat="51.9752267003" lon="-2.1677991282"><ele>22.73</ele><time>2015-05-13T11:19:27Z</time></trkpt><trkpt lat="51.9752148818" lon="-2.1678282134"><ele>25.13</ele><time>2015-05-13T11:19:29Z</time></trkpt><trkpt lat="51.9751974475" lon="-2.1678904071"><ele>21.29</ele><time>2015-05-13T11:19:33Z</time></trkpt><trkpt lat="51.9751944300" lon="-2.1679251082"><ele>19.84</ele><time>2015-05-13T11:19:35Z</time></trkpt><trkpt lat="51.9751916640" lon="-2.1679621562"><ele>24.17</ele><time>2015-05-13T11:19:37Z</time></trkpt><trkpt lat="51.9751923345" lon="-2.1680173930"><ele>21.29</ele><time>2015-05-13T11:19:40Z</time></trkpt><trkpt lat="51.9751904067" lon="-2.1680508368"><ele>24.17</ele><time>2015-05-13T11:19:42Z</time></trkpt><trkpt lat="51.9751918316" lon="-2.1681122761"><ele>22.73</ele><time>2015-05-13T11:19:46Z</time></trkpt><trkpt lat="51.9752047397" lon="-2.1681535151"><ele>26.09</ele><time>2015-05-13T11:19:50Z</time></trkpt><trkpt lat="51.9752058294" lon="-2.1681649145"><ele>22.73</ele><time>2015-05-13T11:19:51Z</time></trkpt><trkpt lat="51.9752126187" lon="-2.1682138648"><ele>24.17</ele><time>2015-05-13T11:19:54Z</time></trkpt><trkpt lat="51.9752210844" lon="-2.1682634018"><ele>20.32</ele><time>2015-05-13T11:19:57Z</time></trkpt><trkpt lat="51.9752220064" lon="-2.1682781540"><ele>24.17</ele><time>2015-05-13T11:19:58Z</time></trkpt><trkpt lat="51.9752227608" lon="-2.1682930738"><ele>20.81</ele><time>2015-05-13T11:19:59Z</time></trkpt><trkpt lat="51.9752256107" lon="-2.1683084965"><ele>24.65</ele><time>2015-05-13T11:20:00Z</time></trkpt><trkpt lat="51.9752532709" lon="-2.1684779786"><ele>23.69</ele><time>2015-05-13T11:20:10Z</time></trkpt><trkpt lat="51.9752592221" lon="-2.1685731970"><ele>27.53</ele><time>2015-05-13T11:20:15Z</time></trkpt><trkpt lat="51.9752574619" lon="-2.1685922239"><ele>23.21</ele><time>2015-05-13T11:20:16Z</time></trkpt><trkpt lat="51.9752587192" lon="-2.1686093230"><ele>22.73</ele><time>2015-05-13T11:20:17Z</time></trkpt><trkpt lat="51.9752648380" lon="-2.1686683316"><ele>28.02</ele><time>2015-05-13T11:20:20Z</time></trkpt><trkpt lat="51.9752682745" lon="-2.1686875261"><ele>24.17</ele><time>2015-05-13T11:20:21Z</time></trkpt><trkpt lat="51.9752758183" lon="-2.1687365603"><ele>20.81</ele><time>2015-05-13T11:20:24Z</time></trkpt><trkpt lat="51.9752772432" lon="-2.1687510610"><ele>24.65</ele><time>2015-05-13T11:20:25Z</time></trkpt><trkpt lat="51.9752789196" lon="-2.1687787212"><ele>27.53</ele><time>2015-05-13T11:20:27Z</time></trkpt><trkpt lat="51.9752789196" lon="-2.1688131709"><ele>23.21</ele><time>2015-05-13T11:20:29Z</time></trkpt><trkpt lat="51.9752812665" lon="-2.1688285936"><ele>23.69</ele><time>2015-05-13T11:20:30Z</time></trkpt><trkpt lat="51.9752893131" lon="-2.1688736882"><ele>26.57</ele><time>2015-05-13T11:20:33Z</time></trkpt><trkpt lat="51.9752957672" lon="-2.1689106524"><ele>21.77</ele><time>2015-05-13T11:20:35Z</time></trkpt><trkpt lat="51.9753007963" lon="-2.1689282544"><ele>25.13</ele><time>2015-05-13T11:20:36Z</time></trkpt><trkpt lat="51.9753111899" lon="-2.1690222993"><ele>24.65</ele><time>2015-05-13T11:20:41Z</time></trkpt><trkpt lat="51.9753168058" lon="-2.1690928750"><ele>28.50</ele><time>2015-05-13T11:20:45Z</time></trkpt><trkpt lat="51.9753177278" lon="-2.1691104770"><ele>25.13</ele><time>2015-05-13T11:20:46Z</time></trkpt><trkpt lat="51.9753204100" lon="-2.1691268217"><ele>19.84</ele><time>2015-05-13T11:20:47Z</time></trkpt><trkpt lat="51.9753204100" lon="-2.1691399813"><ele>25.61</ele><time>2015-05-13T11:20:48Z</time></trkpt><trkpt lat="51.9753128663" lon="-2.1691731736"><ele>19.36</ele><time>2015-05-13T11:20:59Z</time></trkpt><trkpt lat="51.9753112737" lon="-2.1691790409"><ele>25.13</ele><time>2015-05-13T11:21:00Z</time></trkpt><trkpt lat="51.9753324799" lon="-2.1693336871"><ele>25.61</ele><time>2015-05-13T11:21:09Z</time></trkpt><trkpt lat="51.9753300492" lon="-2.1693728305"><ele>27.53</ele><time>2015-05-13T11:21:11Z</time></trkpt><trkpt lat="51.9753339048" lon="-2.1693838947"><ele>24.17</ele><time>2015-05-13T11:21:12Z</time></trkpt><trkpt lat="51.9753543567" lon="-2.1694467589"><ele>28.02</ele><time>2015-05-13T11:21:16Z</time></trkpt><trkpt lat="51.9753700309" lon="-2.1694917697"><ele>25.13</ele><time>2015-05-13T11:21:19Z</time></trkpt><trkpt lat="51.9753747247" lon="-2.1695081983"><ele>21.77</ele><time>2015-05-13T11:21:20Z</time></trkpt><trkpt lat="51.9753788318" lon="-2.1695247944"><ele>25.61</ele><time>2015-05-13T11:21:21Z</time></trkpt><trkpt lat="51.9754095934" lon="-2.1696535405"><ele>30.42</ele><time>2015-05-13T11:21:31Z</time></trkpt><trkpt lat="51.9754226692" lon="-2.1696810331"><ele>21.29</ele><time>2015-05-13T11:21:33Z</time></trkpt><trkpt lat="51.9754288718" lon="-2.1696962044"><ele>26.09</ele><time>2015-05-13T11:21:34Z</time></trkpt><trkpt lat="51.9754405227" lon="-2.1697298996"><ele>29.46</ele><time>2015-05-13T11:21:36Z</time></trkpt><trkpt lat="51.9754523411" lon="-2.1697568893"><ele>22.73</ele><time>2015-05-13T11:21:38Z</time></trkpt><trkpt lat="51.9754560292" lon="-2.1697699651"><ele>26.57</ele><time>2015-05-13T11:21:39Z</time></trkpt><trkpt lat="51.9754673447" lon="-2.1698040795"><ele>30.90</ele><time>2015-05-13T11:21:41Z</time></trkpt><trkpt lat="51.9754723739" lon="-2.1698217653"><ele>27.53</ele><time>2015-05-13T11:21:42Z</time></trkpt><trkpt lat="51.9754877966" lon="-2.1698594838"><ele>21.77</ele><time>2015-05-13T11:21:45Z</time></trkpt><trkpt lat="51.9754940830" lon="-2.1698705480"><ele>26.57</ele><time>2015-05-13T11:21:46Z</time></trkpt><trkpt lat="51.9755058177" lon="-2.1698863897"><ele>30.90</ele><time>2015-05-13T11:21:48Z</time></trkpt><trkpt lat="51.9755119365" lon="-2.1698956098"><ele>24.17</ele><time>2015-05-13T11:21:49Z</time></trkpt><trkpt lat="51.9755222462" lon="-2.1699132118"><ele>27.53</ele><time>2015-05-13T11:21:51Z</time></trkpt><trkpt lat="51.9755362440" lon="-2.1699215099"><ele>27.05</ele><time>2015-05-13T11:22:11Z</time></trkpt><trkpt lat="51.9755390100" lon="-2.1699202526"><ele>19.84</ele><time>2015-05-13T11:22:22Z</time></trkpt><trkpt lat="51.9755383395" lon="-2.1699261200"><ele>28.50</ele><time>2015-05-13T11:22:23Z</time></trkpt><trkpt lat="51.9755454641" lon="-2.1699020639"><ele>23.21</ele><time>2015-05-13T11:22:27Z</time></trkpt><trkpt lat="51.9755506609" lon="-2.1698911674"><ele>28.50</ele><time>2015-05-13T11:22:28Z</time></trkpt><trkpt lat="51.9755602162" lon="-2.1698678657"><ele>25.13</ele><time>2015-05-13T11:22:30Z</time></trkpt><trkpt lat="51.9755657483" lon="-2.1698606573"><ele>29.94</ele><time>2015-05-13T11:22:31Z</time></trkpt><trkpt lat="51.9755710289" lon="-2.1698570531"><ele>26.09</ele><time>2015-05-13T11:22:32Z</time></trkpt><trkpt lat="51.9755728729" lon="-2.1698542032"><ele>18.88</ele><time>2015-05-13T11:22:33Z</time></trkpt><trkpt lat="51.9755734596" lon="-2.1698509343"><ele>31.38</ele><time>2015-05-13T11:22:34Z</time></trkpt><trkpt lat="51.9755733758" lon="-2.1698502637"><ele>28.02</ele><time>2015-05-13T11:22:35Z</time></trkpt><trkpt lat="51.9755732920" lon="-2.1698501799"><ele>24.65</ele><time>2015-05-13T11:22:36Z</time></trkpt><trkpt lat="51.9755730405" lon="-2.1698508505"><ele>28.98</ele><time>2015-05-13T11:22:37Z</time></trkpt><trkpt lat="51.9755633175" lon="-2.1698627528"><ele>32.34</ele><time>2015-05-13T11:22:41Z</time></trkpt><trkpt lat="51.9755639043" lon="-2.1698754933"><ele>23.21</ele><time>2015-05-13T11:22:42Z</time></trkpt><trkpt lat="51.9755645748" lon="-2.1699175704"><ele>28.50</ele><time>2015-05-13T11:22:44Z</time></trkpt><trkpt lat="51.9755635690" lon="-2.1699386090"><ele>26.09</ele><time>2015-05-13T11:22:45Z</time></trkpt><trkpt lat="51.9755610544" lon="-2.1699567139"><ele>28.98</ele><time>2015-05-13T11:22:46Z</time></trkpt><trkpt lat="51.9755592942" lon="-2.1700329892"><ele>23.21</ele><time>2015-05-13T11:22:50Z</time></trkpt><trkpt lat="51.9755618088" lon="-2.1700509265"><ele>25.61</ele><time>2015-05-13T11:22:51Z</time></trkpt><trkpt lat="51.9755745493" lon="-2.1701137070"><ele>29.94</ele><time>2015-05-13T11:22:54Z</time></trkpt><trkpt lat="51.9755812548" lon="-2.1701427083"><ele>23.69</ele><time>2015-05-13T11:22:56Z</time></trkpt><trkpt lat="51.9755829312" lon="-2.1701544430"><ele>25.61</ele><time>2015-05-13T11:22:57Z</time></trkpt><trkpt lat="51.9756077416" lon="-2.1702424530"><ele>29.46</ele><time>2015-05-13T11:23:02Z</time></trkpt><trkpt lat="51.9756167103" lon="-2.1703055687"><ele>25.13</ele><time>2015-05-13T11:23:05Z</time></trkpt><trkpt lat="51.9756183028" lon="-2.1703519206"><ele>28.50</ele><time>2015-05-13T11:23:08Z</time></trkpt><trkpt lat="51.9756466337" lon="-2.1704680100"><ele>23.69</ele><time>2015-05-13T11:23:15Z</time></trkpt><trkpt lat="51.9756475557" lon="-2.1704844385"><ele>26.57</ele><time>2015-05-13T11:23:16Z</time></trkpt><trkpt lat="51.9756631460" lon="-2.1705326345"><ele>30.90</ele><time>2015-05-13T11:23:19Z</time></trkpt><trkpt lat="51.9756671693" lon="-2.1705514938"><ele>27.05</ele><time>2015-05-13T11:23:20Z</time></trkpt><trkpt lat="51.9756713603" lon="-2.1705672517"><ele>22.73</ele><time>2015-05-13T11:23:21Z</time></trkpt><trkpt lat="51.9756737910" lon="-2.1705851052"><ele>26.09</ele><time>2015-05-13T11:23:22Z</time></trkpt><trkpt lat="51.9756915607" lon="-2.1706767194"><ele>29.94</ele><time>2015-05-13T11:23:27Z</time></trkpt><trkpt lat="51.9756958354" lon="-2.1707047988"><ele>25.13</ele><time>2015-05-13T11:23:29Z</time></trkpt><trkpt lat="51.9756992720" lon="-2.1707186289"><ele>26.57</ele><time>2015-05-13T11:23:30Z</time></trkpt><trkpt lat="51.9757046364" lon="-2.1707498096"><ele>30.42</ele><time>2015-05-13T11:23:32Z</time></trkpt><trkpt lat="51.9757079054" lon="-2.1707665734"><ele>29.94</ele><time>2015-05-13T11:23:33Z</time></trkpt><trkpt lat="51.9757113419" lon="-2.1707861032"><ele>26.57</ele><time>2015-05-13T11:23:34Z</time></trkpt><trkpt lat="51.9757177122" lon="-2.1708044596"><ele>30.42</ele><time>2015-05-13T11:23:35Z</time></trkpt><trkpt lat="51.9757311232" lon="-2.1708342992"><ele>24.65</ele><time>2015-05-13T11:23:37Z</time></trkpt><trkpt lat="51.9757367391" lon="-2.1708534099"><ele>27.05</ele><time>2015-05-13T11:23:38Z</time></trkpt><trkpt lat="51.9757428579" lon="-2.1708926372"><ele>30.42</ele><time>2015-05-13T11:23:40Z</time></trkpt><trkpt lat="51.9757481385" lon="-2.1709196270"><ele>25.13</ele><time>2015-05-13T11:23:42Z</time></trkpt><trkpt lat="51.9757511560" lon="-2.1709327865"><ele>26.09</ele><time>2015-05-13T11:23:43Z</time></trkpt><trkpt lat="51.9757643994" lon="-2.1709893644"><ele>31.38</ele><time>2015-05-13T11:23:46Z</time></trkpt><trkpt lat="51.9757715240" lon="-2.1710061282"><ele>27.05</ele><time>2015-05-13T11:23:47Z</time></trkpt><trkpt lat="51.9757766370" lon="-2.1710223053"><ele>30.42</ele><time>2015-05-13T11:23:48Z</time></trkpt><trkpt lat="51.9757853542" lon="-2.1710464451"><ele>23.69</ele><time>2015-05-13T11:23:50Z</time></trkpt><trkpt lat="51.9757876173" lon="-2.1710609458"><ele>28.02</ele><time>2015-05-13T11:23:51Z</time></trkpt><trkpt lat="51.9758022856" lon="-2.1711101476"><ele>23.21</ele><time>2015-05-13T11:23:55Z</time></trkpt><trkpt lat="51.9758056384" lon="-2.1711244807"><ele>27.53</ele><time>2015-05-13T11:23:56Z</time></trkpt><trkpt lat="51.9758140203" lon="-2.1711602714"><ele>30.90</ele><time>2015-05-13T11:23:58Z</time></trkpt><trkpt lat="51.9758355618" lon="-2.1712238900"><ele>25.13</ele><time>2015-05-13T11:24:02Z</time></trkpt><trkpt lat="51.9758421835" lon="-2.1712374687"><ele>27.05</ele><time>2015-05-13T11:24:03Z</time></trkpt><trkpt lat="51.9758556783" lon="-2.1712789591"><ele>29.46</ele><time>2015-05-13T11:24:06Z</time></trkpt><trkpt lat="51.9758591149" lon="-2.1712942142"><ele>23.69</ele><time>2015-05-13T11:24:07Z</time></trkpt><trkpt lat="51.9758620486" lon="-2.1713132411"><ele>28.50</ele><time>2015-05-13T11:24:08Z</time></trkpt><trkpt lat="51.9759249128" lon="-2.1714562364"><ele>32.82</ele><time>2015-05-13T11:24:18Z</time></trkpt><trkpt lat="51.9759284332" lon="-2.1714719106"><ele>28.50</ele><time>2015-05-13T11:24:19Z</time></trkpt><trkpt lat="51.9759326242" lon="-2.1714879200"><ele>24.65</ele><time>2015-05-13T11:24:20Z</time></trkpt><trkpt lat="51.9759358931" lon="-2.1715045162"><ele>26.57</ele><time>2015-05-13T11:24:21Z</time></trkpt><trkpt lat="51.9759405870" lon="-2.1715196036"><ele>29.46</ele><time>2015-05-13T11:24:22Z</time></trkpt><trkpt lat="51.9759818260" lon="-2.1715983935"><ele>24.65</ele><time>2015-05-13T11:24:28Z</time></trkpt><trkpt lat="51.9759872742" lon="-2.1716190130"><ele>28.02</ele><time>2015-05-13T11:24:29Z</time></trkpt><trkpt lat="51.9759934768" lon="-2.1716510318"><ele>30.42</ele><time>2015-05-13T11:24:31Z</time></trkpt><trkpt lat="51.9760114979" lon="-2.1716797817"><ele>25.13</ele><time>2015-05-13T11:24:34Z</time></trkpt><trkpt lat="51.9760173652" lon="-2.1716924384"><ele>28.50</ele><time>2015-05-13T11:24:35Z</time></trkpt><trkpt lat="51.9760460313" lon="-2.1717493515"><ele>31.38</ele><time>2015-05-13T11:24:39Z</time></trkpt><trkpt lat="51.9760526530" lon="-2.1717817057"><ele>27.05</ele><time>2015-05-13T11:24:41Z</time></trkpt><trkpt lat="51.9760570116" lon="-2.1717982180"><ele>27.53</ele><time>2015-05-13T11:24:42Z</time></trkpt><trkpt lat="51.9760726020" lon="-2.1718351822"><ele>30.42</ele><time>2015-05-13T11:24:44Z</time></trkpt><trkpt lat="51.9760886952" lon="-2.1718774270"><ele>26.09</ele><time>2015-05-13T11:24:47Z</time></trkpt><trkpt lat="51.9760935567" lon="-2.1718884073"><ele>29.46</ele><time>2015-05-13T11:24:48Z</time></trkpt><trkpt lat="51.9761220552" lon="-2.1719452366"><ele>32.82</ele><time>2015-05-13T11:24:52Z</time></trkpt><trkpt lat="51.9761335384" lon="-2.1719662752"><ele>26.09</ele><time>2015-05-13T11:24:54Z</time></trkpt><trkpt lat="51.9761389866" lon="-2.1719745733"><ele>27.53</ele><time>2015-05-13T11:24:55Z</time></trkpt><trkpt lat="51.9761455245" lon="-2.1719829552"><ele>30.42</ele><time>2015-05-13T11:24:56Z</time></trkpt><trkpt lat="51.9761592709" lon="-2.1720246132"><ele>27.05</ele><time>2015-05-13T11:24:59Z</time></trkpt><trkpt lat="51.9761635456" lon="-2.1720593981"><ele>30.42</ele><time>2015-05-13T11:25:01Z</time></trkpt><trkpt lat="51.9761681557" lon="-2.1720791794"><ele>30.90</ele><time>2015-05-13T11:25:02Z</time></trkpt><trkpt lat="51.9761921279" lon="-2.1721532755"><ele>24.65</ele><time>2015-05-13T11:25:07Z</time></trkpt><trkpt lat="51.9761956483" lon="-2.1721692849"><ele>30.42</ele><time>2015-05-13T11:25:08Z</time></trkpt><trkpt lat="51.9762189500" lon="-2.1722110268"><ele>26.09</ele><time>2015-05-13T11:25:19Z</time></trkpt><trkpt lat="51.9762269128" lon="-2.1722178161"><ele>26.09</ele><time>2015-05-13T11:25:20Z</time></trkpt><trkpt lat="51.9762433413" lon="-2.1722289640"><ele>30.90</ele><time>2015-05-13T11:25:22Z</time></trkpt><trkpt lat="51.9762736000" lon="-2.1722002979"><ele>35.23</ele><time>2015-05-13T11:25:39Z</time></trkpt><trkpt lat="51.9762814790" lon="-2.1721930057"><ele>28.02</ele><time>2015-05-13T11:25:40Z</time></trkpt><trkpt lat="51.9762896933" lon="-2.1721873060"><ele>34.26</ele><time>2015-05-13T11:25:41Z</time></trkpt><trkpt lat="51.9763001706" lon="-2.1721785888"><ele>27.53</ele><time>2015-05-13T11:25:42Z</time></trkpt><trkpt lat="51.9763106480" lon="-2.1721711289"><ele>24.65</ele><time>2015-05-13T11:25:43Z</time></trkpt><trkpt lat="51.9763193652" lon="-2.1721614059"><ele>30.42</ele><time>2015-05-13T11:25:44Z</time></trkpt><trkpt lat="51.9763337821" lon="-2.1721430495"><ele>32.34</ele><time>2015-05-13T11:25:46Z</time></trkpt><trkpt lat="51.9763395656" lon="-2.1721394453"><ele>27.05</ele><time>2015-05-13T11:25:47Z</time></trkpt><trkpt lat="51.9763461873" lon="-2.1721336618"><ele>28.98</ele><time>2015-05-13T11:25:48Z</time></trkpt><trkpt lat="51.9763502944" lon="-2.1720972005"><ele>29.94</ele><time>2015-05-13T11:25:52Z</time></trkpt><trkpt lat="51.9763545692" lon="-2.1720878966"><ele>33.78</ele><time>2015-05-13T11:26:00Z</time></trkpt><trkpt lat="51.9763596822" lon="-2.1720768325"><ele>21.29</ele><time>2015-05-13T11:26:01Z</time></trkpt><trkpt lat="51.9763657171" lon="-2.1720684506"><ele>31.38</ele><time>2015-05-13T11:26:02Z</time></trkpt><trkpt lat="51.9763704948" lon="-2.1720618289"><ele>35.23</ele><time>2015-05-13T11:26:03Z</time></trkpt><trkpt lat="51.9763761945" lon="-2.1720559616"><ele>23.69</ele><time>2015-05-13T11:26:04Z</time></trkpt><trkpt lat="51.9763829838" lon="-2.1720527764"><ele>30.42</ele><time>2015-05-13T11:26:05Z</time></trkpt><trkpt lat="51.9763937965" lon="-2.1720211767"><ele>30.42</ele><time>2015-05-13T11:26:25Z</time></trkpt><trkpt lat="51.9763882644" lon="-2.1720164828"><ele>30.42</ele><time>2015-05-13T11:26:50Z</time></trkpt><trkpt lat="51.9763879292" lon="-2.1720005572"><ele>31.86</ele><time>2015-05-13T11:27:01Z</time></trkpt><trkpt lat="51.9763957243" lon="-2.1719559655"><ele>27.05</ele><time>2015-05-13T11:27:04Z</time></trkpt><trkpt lat="51.9764012564" lon="-2.1719428059"><ele>29.46</ele><time>2015-05-13T11:27:05Z</time></trkpt><trkpt lat="51.9764249772" lon="-2.1718870662"><ele>28.50</ele><time>2015-05-13T11:27:09Z</time></trkpt><trkpt lat="51.9764414895" lon="-2.1718405467"><ele>32.82</ele><time>2015-05-13T11:27:12Z</time></trkpt><trkpt lat="51.9764574151" lon="-2.1718054265"><ele>28.50</ele><time>2015-05-13T11:27:15Z</time></trkpt><trkpt lat="51.9764745142" lon="-2.1717830468"><ele>31.86</ele><time>2015-05-13T11:27:17Z</time></trkpt><trkpt lat="51.9764872547" lon="-2.1717556380"><ele>35.23</ele><time>2015-05-13T11:27:19Z</time></trkpt><trkpt lat="51.9764908589" lon="-2.1717439033"><ele>29.94</ele><time>2015-05-13T11:27:20Z</time></trkpt><trkpt lat="51.9764979836" lon="-2.1717331745"><ele>26.09</ele><time>2015-05-13T11:27:21Z</time></trkpt><trkpt lat="51.9765051082" lon="-2.1717238706"><ele>30.90</ele><time>2015-05-13T11:27:22Z</time></trkpt><trkpt lat="51.9765765220" lon="-2.1716315020"><ele>27.53</ele><time>2015-05-13T11:27:30Z</time></trkpt><trkpt lat="51.9765839819" lon="-2.1716191806"><ele>30.90</ele><time>2015-05-13T11:27:31Z</time></trkpt><trkpt lat="51.9766189344" lon="-2.1715576574"><ele>34.26</ele><time>2015-05-13T11:27:36Z</time></trkpt><trkpt lat="51.9766339380" lon="-2.1715424024"><ele>29.94</ele><time>2015-05-13T11:27:38Z</time></trkpt><trkpt lat="51.9766716566" lon="-2.1714947093"><ele>34.74</ele><time>2015-05-13T11:27:43Z</time></trkpt><trkpt lat="51.9766811281" lon="-2.1714781970"><ele>32.34</ele><time>2015-05-13T11:27:44Z</time></trkpt><trkpt lat="51.9766895100" lon="-2.1714648698"><ele>28.02</ele><time>2015-05-13T11:27:45Z</time></trkpt><trkpt lat="51.9766993169" lon="-2.1714532189"><ele>33.78</ele><time>2015-05-13T11:27:46Z</time></trkpt><trkpt lat="51.9767165836" lon="-2.1714262292"><ele>27.05</ele><time>2015-05-13T11:27:48Z</time></trkpt><trkpt lat="51.9767259713" lon="-2.1714123152"><ele>29.94</ele><time>2015-05-13T11:27:49Z</time></trkpt><trkpt lat="51.9767477643" lon="-2.1713800449"><ele>35.23</ele><time>2015-05-13T11:27:52Z</time></trkpt><trkpt lat="51.9767557271" lon="-2.1713710763"><ele>31.86</ele><time>2015-05-13T11:27:53Z</time></trkpt><trkpt lat="51.9767618459" lon="-2.1713606827"><ele>28.98</ele><time>2015-05-13T11:27:54Z</time></trkpt><trkpt lat="51.9767837226" lon="-2.1713318489"><ele>32.82</ele><time>2015-05-13T11:27:57Z</time></trkpt><trkpt lat="51.9767904282" lon="-2.1713210363"><ele>28.98</ele><time>2015-05-13T11:27:58Z</time></trkpt><trkpt lat="51.9768031687" lon="-2.1713009197"><ele>32.82</ele><time>2015-05-13T11:28:00Z</time></trkpt><trkpt lat="51.9768259674" lon="-2.1712788753"><ele>29.46</ele><time>2015-05-13T11:28:03Z</time></trkpt><trkpt lat="51.9768507779" lon="-2.1712492872"><ele>32.82</ele><time>2015-05-13T11:28:06Z</time></trkpt><trkpt lat="51.9768757559" lon="-2.1712169331"><ele>27.53</ele><time>2015-05-13T11:28:09Z</time></trkpt><trkpt lat="51.9768823776" lon="-2.1712066233"><ele>28.98</ele><time>2015-05-13T11:28:10Z</time></trkpt><trkpt lat="51.9768905919" lon="-2.1711994987"><ele>25.61</ele><time>2015-05-13T11:28:11Z</time></trkpt><trkpt lat="51.9769082777" lon="-2.1711854171"><ele>32.34</ele><time>2015-05-13T11:28:13Z</time></trkpt><trkpt lat="51.9769377820" lon="-2.1711492073"><ele>28.50</ele><time>2015-05-13T11:28:17Z</time></trkpt><trkpt lat="51.9769550487" lon="-2.1711245645"><ele>32.82</ele><time>2015-05-13T11:28:19Z</time></trkpt><trkpt lat="51.9769775122" lon="-2.1710963175"><ele>26.57</ele><time>2015-05-13T11:28:22Z</time></trkpt><trkpt lat="51.9769846369" lon="-2.1710882708"><ele>33.78</ele><time>2015-05-13T11:28:23Z</time></trkpt><trkpt lat="51.9769936893" lon="-2.1710809786"><ele>28.50</ele><time>2015-05-13T11:28:24Z</time></trkpt><trkpt lat="51.9770131353" lon="-2.1710525639"><ele>33.30</ele><time>2015-05-13T11:28:27Z</time></trkpt><trkpt lat="51.9770425558" lon="-2.1710254904"><ele>29.94</ele><time>2015-05-13T11:28:30Z</time></trkpt><trkpt lat="51.9770552125" lon="-2.1710031945"><ele>27.53</ele><time>2015-05-13T11:28:32Z</time></trkpt><trkpt lat="51.9770609960" lon="-2.1709911246"><ele>32.82</ele><time>2015-05-13T11:28:33Z</time></trkpt><trkpt lat="51.9771100301" lon="-2.1709311102"><ele>29.46</ele><time>2015-05-13T11:28:38Z</time></trkpt><trkpt lat="51.9771540351" lon="-2.1708901227"><ele>32.82</ele><time>2015-05-13T11:28:42Z</time></trkpt><trkpt lat="51.9771982078" lon="-2.1708511468"><ele>28.98</ele><time>2015-05-13T11:28:46Z</time></trkpt><trkpt lat="51.9772075955" lon="-2.1708368976"><ele>32.34</ele><time>2015-05-13T11:28:47Z</time></trkpt><trkpt lat="51.9772137981" lon="-2.1708249114"><ele>32.82</ele><time>2015-05-13T11:28:48Z</time></trkpt><trkpt lat="51.9772158936" lon="-2.1708176192"><ele>7.35</ele><time>2015-05-13T11:28:49Z</time></trkpt><trkpt lat="51.9772164803" lon="-2.1708100755"><ele>43.40</ele><time>2015-05-13T11:28:50Z</time></trkpt><trkpt lat="51.9772156421" lon="-2.1707962453"><ele>32.34</ele><time>2015-05-13T11:28:51Z</time></trkpt><trkpt lat="51.9772156421" lon="-2.1707673278"><ele>31.38</ele><time>2015-05-13T11:28:53Z</time></trkpt><trkpt lat="51.9772282150" lon="-2.1707429364"><ele>34.26</ele><time>2015-05-13T11:28:55Z</time></trkpt><trkpt lat="51.9772413746" lon="-2.1707249153"><ele>30.90</ele><time>2015-05-13T11:28:57Z</time></trkpt><trkpt lat="51.9772678614" lon="-2.1706958301"><ele>33.30</ele><time>2015-05-13T11:29:00Z</time></trkpt><trkpt lat="51.9772882294" lon="-2.1706676669"><ele>34.26</ele><time>2015-05-13T11:29:02Z</time></trkpt><trkpt lat="51.9773106091" lon="-2.1706335526"><ele>29.94</ele><time>2015-05-13T11:29:05Z</time></trkpt><trkpt lat="51.9773186557" lon="-2.1706193872"><ele>30.42</ele><time>2015-05-13T11:29:06Z</time></trkpt><trkpt lat="51.9773322344" lon="-2.1705943253"><ele>33.30</ele><time>2015-05-13T11:29:08Z</time></trkpt><trkpt lat="51.9773444720" lon="-2.1705675870"><ele>28.50</ele><time>2015-05-13T11:29:11Z</time></trkpt><trkpt lat="51.9773509260" lon="-2.1705581993"><ele>31.86</ele><time>2015-05-13T11:29:12Z</time></trkpt><trkpt lat="51.9774046540" lon="-2.1704948321"><ele>34.74</ele><time>2015-05-13T11:29:17Z</time></trkpt><trkpt lat="51.9774146285" lon="-2.1704862826"><ele>30.90</ele><time>2015-05-13T11:29:18Z</time></trkpt><trkpt lat="51.9774500001" lon="-2.1704438701"><ele>34.74</ele><time>2015-05-13T11:29:22Z</time></trkpt><trkpt lat="51.9774695300" lon="-2.1704346500"><ele>27.53</ele><time>2015-05-13T11:29:24Z</time></trkpt><trkpt lat="51.9774766546" lon="-2.1704303753"><ele>31.86</ele><time>2015-05-13T11:29:25Z</time></trkpt><trkpt lat="51.9775069971" lon="-2.1703506634"><ele>32.34</ele><time>2015-05-13T11:29:31Z</time></trkpt><trkpt lat="51.9775224198" lon="-2.1703383420"><ele>32.34</ele><time>2015-05-13T11:29:33Z</time></trkpt><trkpt lat="51.9775490742" lon="-2.1703082509"><ele>34.26</ele><time>2015-05-13T11:29:36Z</time></trkpt><trkpt lat="51.9775571208" lon="-2.1703017969"><ele>29.94</ele><time>2015-05-13T11:29:37Z</time></trkpt><trkpt lat="51.9775661733" lon="-2.1702929959"><ele>30.42</ele><time>2015-05-13T11:29:38Z</time></trkpt><trkpt lat="51.9776085019" lon="-2.1702209115"><ele>35.71</ele><time>2015-05-13T11:29:43Z</time></trkpt><trkpt lat="51.9776163809" lon="-2.1702124458"><ele>34.26</ele><time>2015-05-13T11:29:44Z</time></trkpt><trkpt lat="51.9776252657" lon="-2.1702052373"><ele>29.46</ele><time>2015-05-13T11:29:45Z</time></trkpt><trkpt lat="51.9776359107" lon="-2.1701975260"><ele>30.42</ele><time>2015-05-13T11:29:46Z</time></trkpt><trkpt lat="51.9776489027" lon="-2.1701852046"><ele>33.78</ele><time>2015-05-13T11:29:47Z</time></trkpt><trkpt lat="51.9776893035" lon="-2.1701317281"><ele>29.94</ele><time>2015-05-13T11:29:51Z</time></trkpt><trkpt lat="51.9777194783" lon="-2.1700893156"><ele>33.30</ele><time>2015-05-13T11:29:55Z</time></trkpt><trkpt lat="51.9777387567" lon="-2.1700692829"><ele>34.74</ele><time>2015-05-13T11:29:57Z</time></trkpt><trkpt lat="51.9777505752" lon="-2.1700619906"><ele>31.38</ele><time>2015-05-13T11:29:58Z</time></trkpt><trkpt lat="51.9777836837" lon="-2.1700256132"><ele>35.71</ele><time>2015-05-13T11:30:02Z</time></trkpt><trkpt lat="51.9778141100" lon="-2.1699861344"><ele>28.50</ele><time>2015-05-13T11:30:06Z</time></trkpt><trkpt lat="51.9778208993" lon="-2.1699759923"><ele>32.34</ele><time>2015-05-13T11:30:07Z</time></trkpt><trkpt lat="51.9778573606" lon="-2.1699179057"><ele>29.46</ele><time>2015-05-13T11:30:12Z</time></trkpt><trkpt lat="51.9778638985" lon="-2.1699094400"><ele>32.34</ele><time>2015-05-13T11:30:13Z</time></trkpt><trkpt lat="51.9779296126" lon="-2.1699054167"><ele>30.42</ele><time>2015-05-13T11:30:19Z</time></trkpt><trkpt lat="51.9779607095" lon="-2.1699332446"><ele>34.26</ele><time>2015-05-13T11:30:22Z</time></trkpt><trkpt lat="51.9779716060" lon="-2.1699388605"><ele>37.63</ele><time>2015-05-13T11:30:23Z</time></trkpt><trkpt lat="51.9779841788" lon="-2.1699425485"><ele>35.23</ele><time>2015-05-13T11:30:24Z</time></trkpt><trkpt lat="51.9779951591" lon="-2.1699411236"><ele>31.86</ele><time>2015-05-13T11:30:25Z</time></trkpt><trkpt lat="51.9780068099" lon="-2.1699398663"><ele>28.02</ele><time>2015-05-13T11:30:26Z</time></trkpt><trkpt lat="51.9780169521" lon="-2.1699377708"><ele>33.78</ele><time>2015-05-13T11:30:27Z</time></trkpt><trkpt lat="51.9780279323" lon="-2.1699373517"><ele>30.42</ele><time>2015-05-13T11:30:28Z</time></trkpt><trkpt lat="51.9780358952" lon="-2.1699413750"><ele>33.78</ele><time>2015-05-13T11:30:29Z</time></trkpt><trkpt lat="51.9780548383" lon="-2.1699373517"><ele>38.11</ele><time>2015-05-13T11:30:31Z</time></trkpt><trkpt lat="51.9780627172" lon="-2.1699365135"><ele>34.26</ele><time>2015-05-13T11:30:32Z</time></trkpt><trkpt lat="51.9780850969" lon="-2.1699339990"><ele>29.46</ele><time>2015-05-13T11:30:34Z</time></trkpt><trkpt lat="51.9780977536" lon="-2.1699310653"><ele>34.74</ele><time>2015-05-13T11:30:35Z</time></trkpt><trkpt lat="51.9781104103" lon="-2.1699272934"><ele>34.74</ele><time>2015-05-13T11:30:36Z</time></trkpt><trkpt lat="51.9781433512" lon="-2.1699294727"><ele>30.90</ele><time>2015-05-13T11:30:39Z</time></trkpt><trkpt lat="51.9781498890" lon="-2.1699339151"><ele>32.82</ele><time>2015-05-13T11:30:40Z</time></trkpt><trkpt lat="51.9781569298" lon="-2.1699408721"><ele>33.78</ele><time>2015-05-13T11:30:41Z</time></trkpt><trkpt lat="51.9781702571" lon="-2.1699751541"><ele>40.03</ele><time>2015-05-13T11:30:43Z</time></trkpt><trkpt lat="51.9781778008" lon="-2.1699928399"><ele>35.23</ele><time>2015-05-13T11:30:44Z</time></trkpt><trkpt lat="51.9781933911" lon="-2.1700329054"><ele>31.38</ele><time>2015-05-13T11:30:47Z</time></trkpt><trkpt lat="51.9782008510" lon="-2.1700486634"><ele>31.38</ele><time>2015-05-13T11:30:48Z</time></trkpt><trkpt lat="51.9782082271" lon="-2.1700657625"><ele>34.74</ele><time>2015-05-13T11:30:49Z</time></trkpt><trkpt lat="51.9782206323" lon="-2.1700939257"><ele>38.59</ele><time>2015-05-13T11:30:51Z</time></trkpt><trkpt lat="51.9782254100" lon="-2.1701072529"><ele>37.15</ele><time>2015-05-13T11:30:52Z</time></trkpt><trkpt lat="51.9782289304" lon="-2.1701204963"><ele>29.94</ele><time>2015-05-13T11:30:53Z</time></trkpt><trkpt lat="51.9782313611" lon="-2.1701371763"><ele>32.34</ele><time>2015-05-13T11:30:54Z</time></trkpt><trkpt lat="51.9782378990" lon="-2.1701544430"><ele>35.23</ele><time>2015-05-13T11:30:55Z</time></trkpt><trkpt lat="51.9782443531" lon="-2.1701683570"><ele>29.94</ele><time>2015-05-13T11:30:56Z</time></trkpt><trkpt lat="51.9782504719" lon="-2.1701822709"><ele>34.74</ele><time>2015-05-13T11:30:57Z</time></trkpt><trkpt lat="51.9782655593" lon="-2.1702034771"><ele>38.59</ele><time>2015-05-13T11:30:59Z</time></trkpt><trkpt lat="51.9782755338" lon="-2.1702126972"><ele>35.23</ele><time>2015-05-13T11:31:00Z</time></trkpt><trkpt lat="51.9782846700" lon="-2.1702245995"><ele>29.94</ele><time>2015-05-13T11:31:01Z</time></trkpt><trkpt lat="51.9782925490" lon="-2.1702388488"><ele>33.30</ele><time>2015-05-13T11:31:02Z</time></trkpt><trkpt lat="51.9783061277" lon="-2.1702687722"><ele>37.15</ele><time>2015-05-13T11:31:04Z</time></trkpt><trkpt lat="51.9783152640" lon="-2.1703036409"><ele>31.86</ele><time>2015-05-13T11:31:07Z</time></trkpt><trkpt lat="51.9783199579" lon="-2.1703153756"><ele>36.19</ele><time>2015-05-13T11:31:08Z</time></trkpt><trkpt lat="51.9783243164" lon="-2.1703295410"><ele>29.46</ele><time>2015-05-13T11:31:09Z</time></trkpt><trkpt lat="51.9783322793" lon="-2.1703397669"><ele>34.74</ele><time>2015-05-13T11:31:10Z</time></trkpt><trkpt lat="51.9783497136" lon="-2.1703679301"><ele>38.11</ele><time>2015-05-13T11:31:12Z</time></trkpt><trkpt lat="51.9783652201" lon="-2.1703937463"><ele>34.74</ele><time>2015-05-13T11:31:14Z</time></trkpt><trkpt lat="51.9783690758" lon="-2.1704101749"><ele>30.90</ele><time>2015-05-13T11:31:15Z</time></trkpt><trkpt lat="51.9783749431" lon="-2.1704271063"><ele>34.74</ele><time>2015-05-13T11:31:16Z</time></trkpt><trkpt lat="51.9783893600" lon="-2.1704582032"><ele>37.63</ele><time>2015-05-13T11:31:18Z</time></trkpt><trkpt lat="51.9784243125" lon="-2.1705209836"><ele>31.86</ele><time>2015-05-13T11:31:23Z</time></trkpt><trkpt lat="51.9784342870" lon="-2.1705316287"><ele>32.82</ele><time>2015-05-13T11:31:24Z</time></trkpt><trkpt lat="51.9784443453" lon="-2.1705431957"><ele>37.15</ele><time>2015-05-13T11:31:25Z</time></trkpt><trkpt lat="51.9784523919" lon="-2.1705560200"><ele>37.15</ele><time>2015-05-13T11:31:26Z</time></trkpt><trkpt lat="51.9784742687" lon="-2.1705902182"><ele>31.86</ele><time>2015-05-13T11:31:29Z</time></trkpt><trkpt lat="51.9784813095" lon="-2.1705990192"><ele>34.26</ele><time>2015-05-13T11:31:30Z</time></trkpt><trkpt lat="51.9784863386" lon="-2.1706084907"><ele>38.11</ele><time>2015-05-13T11:31:31Z</time></trkpt><trkpt lat="51.9785207044" lon="-2.1706424374"><ele>41.95</ele><time>2015-05-13T11:31:35Z</time></trkpt><trkpt lat="51.9785284158" lon="-2.1706533339"><ele>37.15</ele><time>2015-05-13T11:31:36Z</time></trkpt><trkpt lat="51.9785341155" lon="-2.1706685051"><ele>31.86</ele><time>2015-05-13T11:31:37Z</time></trkpt><trkpt lat="51.9785401504" lon="-2.1706834249"><ele>36.19</ele><time>2015-05-13T11:31:38Z</time></trkpt><trkpt lat="51.9785525557" lon="-2.1707090735"><ele>39.55</ele><time>2015-05-13T11:31:40Z</time></trkpt><trkpt lat="51.9785691518" lon="-2.1707321238"><ele>35.71</ele><time>2015-05-13T11:31:42Z</time></trkpt><trkpt lat="51.9785771146" lon="-2.1707437746"><ele>31.86</ele><time>2015-05-13T11:31:43Z</time></trkpt><trkpt lat="51.9785850774" lon="-2.1707555093"><ele>38.11</ele><time>2015-05-13T11:31:44Z</time></trkpt><trkpt lat="51.9785919506" lon="-2.1707664896"><ele>30.42</ele><time>2015-05-13T11:31:45Z</time></trkpt><trkpt lat="51.9786032662" lon="-2.1707768831"><ele>38.59</ele><time>2015-05-13T11:31:46Z</time></trkpt><trkpt lat="51.9786274061" lon="-2.1708120033"><ele>34.26</ele><time>2015-05-13T11:31:50Z</time></trkpt><trkpt lat="51.9786326867" lon="-2.1708213072"><ele>35.71</ele><time>2015-05-13T11:31:51Z</time></trkpt><trkpt lat="51.9786413200" lon="-2.1708299406"><ele>40.51</ele><time>2015-05-13T11:31:52Z</time></trkpt><trkpt lat="51.9786510430" lon="-2.1708349697"><ele>40.03</ele><time>2015-05-13T11:31:53Z</time></trkpt><trkpt lat="51.9786844030" lon="-2.1708552539"><ele>33.78</ele><time>2015-05-13T11:31:56Z</time></trkpt><trkpt lat="51.9786937907" lon="-2.1708620433"><ele>37.15</ele><time>2015-05-13T11:31:57Z</time></trkpt><trkpt lat="51.9787221216" lon="-2.1708898712"><ele>41.47</ele><time>2015-05-13T11:32:00Z</time></trkpt><trkpt lat="51.9787310902" lon="-2.1709010191"><ele>40.51</ele><time>2015-05-13T11:32:01Z</time></trkpt><trkpt lat="51.9787539728" lon="-2.1709215548"><ele>36.19</ele><time>2015-05-13T11:32:05Z</time></trkpt><trkpt lat="51.9787598401" lon="-2.1709294338"><ele>40.51</ele><time>2015-05-13T11:32:06Z</time></trkpt><trkpt lat="51.9787672162" lon="-2.1709377319"><ele>41.47</ele><time>2015-05-13T11:32:07Z</time></trkpt><trkpt lat="51.9788174238" lon="-2.1709948126"><ele>39.07</ele><time>2015-05-13T11:32:13Z</time></trkpt><trkpt lat="51.9788227882" lon="-2.1710057091"><ele>42.44</ele><time>2015-05-13T11:32:14Z</time></trkpt><trkpt lat="51.9788304996" lon="-2.1710131690"><ele>41.95</ele><time>2015-05-13T11:32:15Z</time></trkpt><trkpt lat="51.9788465090" lon="-2.1710337885"><ele>38.59</ele><time>2015-05-13T11:32:18Z</time></trkpt><trkpt lat="51.9788522925" lon="-2.1710398234"><ele>41.95</ele><time>2015-05-13T11:32:19Z</time></trkpt><trkpt lat="51.9788681343" lon="-2.1710596047"><ele>43.88</ele><time>2015-05-13T11:32:22Z</time></trkpt><trkpt lat="51.9789032545" lon="-2.1710828226"><ele>42.44</ele><time>2015-05-13T11:32:41Z</time></trkpt><trkpt lat="51.9789045956" lon="-2.1710852534"><ele>40.99</ele><time>2015-05-13T11:32:50Z</time></trkpt><trkpt lat="51.9789163303" lon="-2.1711120754"><ele>46.28</ele><time>2015-05-13T11:32:55Z</time></trkpt><trkpt lat="51.9789290708" lon="-2.1711246483"><ele>39.55</ele><time>2015-05-13T11:32:57Z</time></trkpt><trkpt lat="51.9789352734" lon="-2.1711341199"><ele>40.03</ele><time>2015-05-13T11:32:58Z</time></trkpt><trkpt lat="51.9789417274" lon="-2.1711428370"><ele>44.36</ele><time>2015-05-13T11:32:59Z</time></trkpt><trkpt lat="51.9789501932" lon="-2.1711489558"><ele>44.84</ele><time>2015-05-13T11:33:00Z</time></trkpt><trkpt lat="51.9789667055" lon="-2.1711570024"><ele>44.84</ele><time>2015-05-13T11:33:02Z</time></trkpt><trkpt lat="51.9789878279" lon="-2.1711514704"><ele>41.47</ele><time>2015-05-13T11:33:04Z</time></trkpt><trkpt lat="51.9790096208" lon="-2.1711360477"><ele>45.80</ele><time>2015-05-13T11:33:06Z</time></trkpt><trkpt lat="51.9790221099" lon="-2.1711259056"><ele>34.26</ele><time>2015-05-13T11:33:07Z</time></trkpt><trkpt lat="51.9790327549" lon="-2.1711244807"><ele>44.84</ele><time>2015-05-13T11:33:08Z</time></trkpt><trkpt lat="51.9790515304" lon="-2.1711284202"><ele>40.51</ele><time>2015-05-13T11:33:10Z</time></trkpt><trkpt lat="51.9790594094" lon="-2.1711269952"><ele>43.40</ele><time>2015-05-13T11:33:11Z</time></trkpt><trkpt lat="51.9790736586" lon="-2.1711202897"><ele>44.36</ele><time>2015-05-13T11:33:13Z</time></trkpt><trkpt lat="51.9790810347" lon="-2.1711196192"><ele>41.47</ele><time>2015-05-13T11:33:14Z</time></trkpt><trkpt lat="51.9790858123" lon="-2.1711250674"><ele>42.44</ele><time>2015-05-13T11:33:15Z</time></trkpt><trkpt lat="51.9790894166" lon="-2.1711316053"><ele>45.80</ele><time>2015-05-13T11:33:16Z</time></trkpt><trkpt lat="51.9790978823" lon="-2.1711359639"><ele>45.32</ele><time>2015-05-13T11:33:17Z</time></trkpt><trkpt lat="51.9791381154" lon="-2.1711658873"><ele>40.99</ele><time>2015-05-13T11:33:21Z</time></trkpt><trkpt lat="51.9791438989" lon="-2.1711710002"><ele>46.28</ele><time>2015-05-13T11:33:22Z</time></trkpt><trkpt lat="51.9791653566" lon="-2.1711955592"><ele>42.44</ele><time>2015-05-13T11:33:25Z</time></trkpt><trkpt lat="51.9791721459" lon="-2.1712036058"><ele>45.80</ele><time>2015-05-13T11:33:26Z</time></trkpt><trkpt lat="51.9791931007" lon="-2.1712404024"><ele>49.65</ele><time>2015-05-13T11:33:29Z</time></trkpt><trkpt lat="51.9791986328" lon="-2.1712494548"><ele>42.44</ele><time>2015-05-13T11:33:30Z</time></trkpt><trkpt lat="51.9792063441" lon="-2.1712583397"><ele>44.36</ele><time>2015-05-13T11:33:31Z</time></trkpt><trkpt lat="51.9792238623" lon="-2.1712741815"><ele>49.65</ele><time>2015-05-13T11:33:33Z</time></trkpt><trkpt lat="51.9792285562" lon="-2.1712823119"><ele>46.28</ele><time>2015-05-13T11:33:34Z</time></trkpt><trkpt lat="51.9792325795" lon="-2.1712875925"><ele>40.03</ele><time>2015-05-13T11:33:35Z</time></trkpt><trkpt lat="51.9792387821" lon="-2.1712914482"><ele>47.72</ele><time>2015-05-13T11:33:36Z</time></trkpt><trkpt lat="51.9792500138" lon="-2.1713014226"><ele>49.16</ele><time>2015-05-13T11:33:38Z</time></trkpt><trkpt lat="51.9793700427" lon="-2.1714061126"><ele>47.72</ele><time>2015-05-13T11:33:51Z</time></trkpt><trkpt lat="51.9794917479" lon="-2.1716123912"><ele>48.68</ele><time>2015-05-13T11:34:09Z</time></trkpt><trkpt lat="51.9795540255" lon="-2.1717514470"><ele>48.68</ele><time>2015-05-13T11:34:24Z</time></trkpt><trkpt lat="51.9796384312" lon="-2.1718151495"><ele>49.16</ele><time>2015-05-13T11:34:37Z</time></trkpt><trkpt lat="51.9796510041" lon="-2.1718313266"><ele>49.65</ele><time>2015-05-13T11:34:50Z</time></trkpt><trkpt lat="51.9796540216" lon="-2.1718324162"><ele>48.20</ele><time>2015-05-13T11:35:07Z</time></trkpt><trkpt lat="51.9796532672" lon="-2.1718323324"><ele>48.68</ele><time>2015-05-13T11:35:09Z</time></trkpt></trkseg></trk></gpx>